GFSGL_sfc_thetae_000.txt.gz
Theta_e
271 271 270 270 270 270 269 270 270 271 271 271 272 272 272 272 273 273 273 273 272 273 273 273 275 278 282 287 292 293 294 295 290 292 296 299 300 317 313 319 312 318 313
270 270 269 269 269 268 268 269 270 270 270 270 270 270 270 270 271 271 271 272 271 271 272 273 274 279 282 284 291 291 292 294 293 290 295 297 296 313 313 317 314 316 315
269 268 268 267 267 267 268 268 269 269 269 269 269 268 268 269 269 270 270 270 271 271 271 271 273 276 279 282 289 289 291 294 294 293 292 295 296 314 313 311 314 314 314
267 266 266 267 267 267 267 267 267 267 266 266 267 267 267 267 268 269 269 270 270 271 272 272 273 275 278 281 284 287 289 289 289 291 290 293 296 311 312 309 307 311 309
266 266 266 266 266 266 266 266 266 265 265 265 265 265 265 266 267 267 269 270 270 270 271 272 273 277 279 282 283 286 288 287 287 287 288 289 299 308 307 308 307 308 308
265 266 266 265 265 264 264 264 263 263 263 263 264 264 264 266 270 272 273 272 272 272 273 274 275 276 279 282 284 287 289 286 285 285 286 287 298 308 308 307 305 303 299
266 264 263 264 262 262 262 262 261 261 262 263 263 263 264 265 269 272 274 273 273 273 273 273 274 276 278 281 284 287 289 292 290 286 285 286 304 309 307 305 304 303 302
264 262 262 262 261 261 260 259 260 261 262 262 262 263 264 265 270 272 273 273 273 274 274 274 274 275 277 280 283 284 285 286 287 288 288 289 290 311 309 308 306 303 305
262 261 261 260 258 258 256 258 259 261 260 260 263 262 262 263 269 272 273 273 274 275 275 274 274 275 278 281 281 281 283 285 289 289 291 292 294 305 308 307 300 298 297
261 260 260 259 256 256 257 257 260 259 261 262 262 262 263 263 269 272 273 272 273 274 275 275 276 275 278 282 281 282 281 283 285 285 286 298 302 303 303 306 303 299 299
260 259 258 258 256 256 257 258 258 259 260 260 262 263 265 266 267 271 274 272 271 271 273 276 275 278 280 282 284 283 283 286 286 285 285 299 301 303 303 304 305 303 299
258 257 255 254 254 258 256 256 258 258 259 260 262 263 265 266 268 271 272 274 274 272 273 276 276 279 281 284 284 286 287 287 286 285 284 296 299 301 302 303 304 305 305
253 252 250 254 256 257 255 257 257 259 260 261 263 262 263 266 267 270 271 274 274 273 274 275 278 280 282 283 285 288 286 287 285 284 285 295 299 302 303 301 302 301 301
251 254 256 256 255 257 258 259 258 259 260 263 262 262 262 265 265 268 270 270 272 271 272 272 274 277 280 282 283 287 286 286 285 285 287 297 299 299 298 300 299 299 295
254 256 255 254 253 256 258 257 260 262 265 264 263 264 263 263 266 271 270 268 269 271 273 272 272 275 276 282 284 285 285 286 286 287 291 294 296 296 296 298 298 296 294
254 254 254 254 254 256 256 256 262 265 266 267 268 267 266 269 271 271 270 270 270 270 268 269 272 273 274 281 283 284 285 285 287 290 293 294 294 295 294 295 296 295 294
249 252 252 253 253 253 253 254 253 257 263 264 265 267 269 268 269 269 269 267 268 265 261 262 263 265 267 270 272 279 285 287 290 292 293 294 294 294 293 293 294 294 294
244 251 249 250 250 250 251 252 252 252 252 254 259 264 267 267 267 267 267 263 259 261 260 262 262 263 265 267 268 269 272 282 291 293 293 293 292 292 292 292 292 293 293
248 247 246 246 247 248 249 250 251 251 252 253 254 258 262 264 265 264 264 257 257 258 259 261 263 263 264 266 266 267 269 270 290 292 292 291 291 292 291 292 292 292 292
245 251 248 244 246 247 248 249 250 249 250 251 252 252 261 256 255 256 257 257 257 258 260 261 263 264 264 266 265 265 266 269 286 291 291 291 291 292 292 291 291 291 292
245 244 248 243 243 244 244 245 247 247 248 249 252 254 265 255 255 255 256 256 256 258 259 260 264 264 264 266 266 264 265 266 270 283 290 290 290 290 291 292 291 291 292
245 242 241 241 245 247 245 245 246 246 247 248 250 252 260 254 254 255 255 256 257 258 260 261 262 264 265 265 266 265 264 264 266 268 274 290 290 290 290 291 291 291 290
247 247 245 244 244 246 245 243 245 246 247 246 248 250 252 253 253 254 255 256 257 258 260 261 262 264 265 266 266 267 264 264 265 268 269 278 290 290 290 289 290 290 290
247 246 246 243 243 242 242 243 245 246 246 246 246 248 249 251 253 253 254 255 256 258 260 261 262 262 265 265 266 268 268 266 266 267 269 275 288 289 290 289 289 290 290
242 245 244 242 238 240 241 241 245 241 243 246 246 248 249 250 251 252 253 254 255 257 258 260 262 263 265 265 265 266 269 266 265 267 267 269 271 275 283 288 288 289 289
244 244 242 242 241 239 239 241 240 242 241 245 246 246 248 249 250 251 252 253 254 256 257 260 262 262 264 266 266 267 268 270 266 265 266 266 266 267 269 272 277 283 285

GFSGL_sfc_thetae_003.txt.gz
Theta_e
273 272 271 270 270 270 270 270 271 271 271 271 271 271 272 272 273 273 273 274 274 275 275 275 276 277 276 277 279 280 282 283 287 292 296 297 297 297 299 302 304 320 316
271 270 270 269 269 269 269 270 270 270 270 270 270 270 270 270 270 270 270 271 271 272 273 274 274 275 275 276 277 279 283 283 288 289 293 295 295 298 298 299 299 317 318
270 269 268 268 268 268 268 268 269 268 268 268 268 267 267 268 267 268 268 269 270 270 272 272 273 273 273 274 275 277 281 283 289 290 291 293 293 295 295 297 299 305 315
268 267 267 267 267 267 267 267 267 267 266 266 266 266 266 266 266 266 266 267 268 269 270 272 272 273 273 273 274 275 280 281 286 289 289 289 293 295 294 293 293 311 309
267 266 266 267 267 267 266 267 266 266 265 265 264 264 265 265 265 266 268 269 270 271 272 272 273 274 275 276 275 276 279 281 283 287 287 288 289 289 291 294 294 308 308
266 266 266 266 266 265 265 265 264 264 264 263 264 264 263 265 268 270 271 270 271 271 271 272 274 275 276 278 279 280 280 279 280 284 286 285 286 287 290 290 294 298 304
267 265 264 264 263 263 263 263 262 262 262 263 263 263 263 264 268 271 272 271 270 271 271 272 273 275 276 276 278 279 281 285 286 284 285 286 286 288 289 288 291 294 306
265 263 263 263 261 262 261 261 261 262 262 262 262 262 263 265 269 271 272 271 271 272 273 274 274 275 276 276 276 276 278 283 285 287 288 288 289 289 289 288 287 297 307
263 263 262 261 259 259 257 259 260 261 261 260 262 263 262 263 268 271 272 270 270 271 273 274 275 276 279 279 276 276 277 280 286 289 289 290 291 291 291 287 284 294 299
263 262 261 260 257 257 258 258 260 259 260 262 262 262 263 264 268 271 272 271 269 270 271 273 275 276 279 280 277 277 276 278 282 284 285 287 289 288 289 287 285 283 301
261 260 260 259 257 256 257 258 258 258 260 259 261 263 265 266 267 271 273 271 270 270 271 272 274 277 279 281 281 278 278 281 283 284 285 286 286 287 288 289 294 289 301
260 259 257 256 256 258 254 256 257 258 258 259 261 265 266 267 268 271 273 274 274 271 271 272 274 276 278 280 281 282 283 282 283 283 283 283 285 286 287 290 299 299 307
257 256 256 256 257 256 254 256 257 258 259 261 264 264 264 267 268 271 273 274 273 271 271 273 275 276 278 278 280 282 283 283 283 283 282 284 286 287 288 289 302 305 305
255 258 259 258 256 257 258 259 257 259 261 264 264 264 265 266 267 270 270 270 271 270 271 271 273 275 277 278 278 280 282 283 283 284 284 286 287 287 286 297 302 302 301
257 258 257 257 255 257 258 257 260 262 265 265 265 265 264 266 268 271 271 268 268 270 266 266 270 272 274 276 276 280 282 283 284 285 285 286 286 286 288 301 300 300 298
258 257 256 256 255 256 256 256 261 265 267 268 268 268 268 271 272 271 271 270 269 269 263 264 264 266 266 269 270 272 279 284 285 285 285 286 285 285 294 298 298 298 297
256 256 255 255 255 254 253 253 252 256 262 264 265 268 270 270 270 270 269 267 267 266 260 262 263 264 265 266 268 269 270 273 275 284 285 285 286 289 292 294 295 297 296
254 253 252 252 252 251 251 251 251 251 251 253 259 265 266 268 268 269 268 263 259 261 261 260 263 264 264 265 266 267 267 269 271 274 281 286 288 291 292 292 294 295 294
254 252 251 250 249 249 250 250 250 249 250 251 253 258 259 264 265 265 265 259 258 258 259 261 262 264 264 265 266 267 266 266 268 270 274 286 290 289 291 293 294 293 293
253 252 250 249 249 249 248 248 249 248 249 249 251 253 259 256 255 256 258 258 258 258 259 259 262 263 264 265 265 266 266 265 266 268 269 288 290 290 291 292 292 292 292
251 251 250 249 248 246 246 246 247 246 247 247 249 250 265 254 254 255 256 257 257 258 259 260 262 262 265 265 265 265 266 265 265 266 268 270 289 289 290 292 292 292 293
251 249 248 247 248 248 245 246 246 245 246 246 247 249 258 253 253 254 255 256 257 258 260 260 262 263 264 265 265 265 266 264 264 265 266 269 275 291 289 290 291 292 291
251 250 249 247 247 247 247 244 245 246 246 245 246 248 249 249 251 253 254 255 257 258 260 261 262 263 264 266 266 266 267 265 264 265 266 268 272 286 290 290 290 290 290
251 251 249 247 246 245 245 244 246 246 245 245 244 245 246 248 249 251 253 254 256 257 259 260 262 262 263 266 266 266 268 267 266 266 267 268 270 284 290 290 290 290 290
249 250 249 247 244 245 244 244 245 242 242 245 245 245 245 248 249 250 252 253 255 256 258 259 261 262 263 266 266 266 268 268 266 266 266 266 267 271 281 288 289 290 290
248 248 247 244 243 241 241 244 242 244 242 245 245 244 245 247 248 249 250 252 253 255 257 258 260 262 263 267 267 268 268 270 267 266 266 265 265 265 268 271 280 287 290

GFSGL_sfc_thetae_009.txt.gz
Theta_e
287 286 284 283 282 282 280 280 280 280 279 278 278 277 277 277 277 276 276 276 276 276 276 277 276 277 277 277 278 278 278 278 275 277 279 281 281 282 284 285 287 290 292
286 285 283 282 280 279 279 279 279 278 278 277 276 276 275 275 275 275 274 274 273 273 273 274 273 274 274 274 275 274 275 276 275 273 276 277 277 280 281 281 286 289 289
285 283 281 280 278 278 278 278 277 276 276 276 275 274 274 274 273 273 273 272 272 272 273 273 273 273 273 273 273 273 273 275 275 273 273 276 276 278 278 281 285 287 290
283 280 279 278 277 278 277 276 276 275 274 274 274 273 273 272 272 272 272 272 272 273 274 274 274 274 273 273 273 273 273 272 273 272 273 273 275 277 278 278 282 285 289
280 279 278 278 277 277 275 275 274 274 273 273 272 272 272 272 272 272 272 272 273 273 274 274 274 274 275 276 274 273 273 272 272 272 272 273 274 275 277 280 282 285 291
278 277 277 276 275 275 274 273 272 272 272 271 271 271 271 271 274 274 274 273 273 272 272 273 274 274 275 276 277 278 277 274 273 272 272 272 273 275 277 278 281 281 284
277 277 275 274 273 273 272 271 270 270 271 270 270 271 270 271 273 275 275 273 273 273 273 273 273 274 275 274 275 276 277 278 279 277 275 275 276 278 279 278 279 280 284
276 275 273 273 271 271 270 269 269 269 269 270 270 269 269 270 273 274 274 273 273 273 273 273 273 273 274 274 274 273 274 275 276 277 276 277 278 279 279 280 280 282 283
275 273 272 271 270 269 268 268 269 269 269 269 269 269 268 267 271 273 274 273 273 273 274 274 274 274 276 277 275 273 273 274 278 279 280 282 283 283 282 280 278 280 279
273 272 271 270 269 268 268 268 269 268 268 268 268 268 268 267 271 274 275 273 272 273 274 275 275 273 275 276 273 272 271 273 275 276 278 279 281 281 283 281 280 277 282
273 271 269 268 267 267 267 267 266 266 267 266 266 269 270 271 271 274 275 274 273 273 272 271 272 274 275 276 276 273 273 275 275 275 276 278 279 279 279 280 282 282 282
270 268 267 266 266 266 264 264 265 265 265 266 267 269 271 271 272 273 275 276 276 271 270 270 271 274 274 275 275 278 278 276 276 275 275 277 278 278 280 281 284 286 287
267 266 265 265 266 265 263 264 264 265 266 267 268 268 268 270 271 273 274 275 274 271 271 272 272 272 273 273 274 275 275 275 275 274 274 275 278 280 281 283 283 284 285
265 264 264 263 264 263 265 265 266 266 267 268 268 267 268 268 270 271 272 272 272 271 271 267 268 270 270 271 270 271 271 271 272 272 274 277 279 281 280 281 282 283 283
265 264 264 264 264 264 266 265 266 267 268 267 267 267 267 266 269 273 272 271 270 271 268 265 264 265 266 266 267 268 269 269 269 271 271 272 276 279 281 282 282 283 282
265 265 264 264 264 264 264 263 266 267 267 268 268 268 269 270 272 273 273 273 271 272 263 262 262 263 264 265 264 266 267 268 268 269 270 271 273 275 280 282 284 284 283
265 265 264 264 264 263 264 264 262 263 265 265 266 267 269 270 271 271 271 270 269 267 261 261 261 262 263 264 264 265 266 267 268 268 269 269 270 271 274 279 282 283 284
265 264 264 263 264 263 263 263 263 263 262 262 263 265 267 268 269 269 270 266 261 262 261 261 261 262 263 264 264 265 266 267 266 267 268 267 267 268 270 273 276 284 284
263 263 263 262 262 262 261 260 260 260 260 259 260 262 262 266 267 267 267 260 259 259 260 260 261 262 263 263 264 264 266 266 266 267 266 266 266 266 267 269 272 276 283
262 262 260 260 259 259 260 259 259 258 258 258 258 258 257 260 259 259 259 259 259 258 259 259 261 262 263 263 264 264 266 266 266 266 265 265 265 266 266 267 269 271 281
260 259 259 259 258 259 259 259 259 258 257 256 257 256 264 256 257 257 257 258 257 257 258 259 260 261 262 263 263 264 266 265 267 265 264 264 264 264 266 268 269 270 283
259 258 259 258 258 258 258 257 257 257 256 256 256 256 260 256 255 255 256 256 257 257 258 259 259 261 262 263 263 265 266 266 267 265 264 264 265 265 266 267 269 272 287
259 258 258 257 258 256 256 256 256 257 256 254 255 255 255 254 253 254 255 255 256 256 257 258 259 260 262 263 265 267 267 266 267 266 264 264 264 264 265 266 268 272 286
259 258 257 256 255 256 256 256 255 254 255 255 254 254 254 253 253 254 254 255 254 255 256 257 258 259 260 262 265 267 269 269 268 266 266 264 264 264 264 266 268 278 287
258 258 257 257 256 256 255 255 255 255 254 255 254 254 253 254 253 253 254 253 253 253 254 256 258 259 260 261 265 267 269 270 268 267 266 265 264 264 264 265 266 271 287
258 258 257 257 256 255 256 255 254 255 254 254 254 253 253 253 253 252 252 252 252 252 254 255 257 258 260 263 264 268 271 271 270 267 266 265 264 264 263 264 264 266 270

GFSGL_sfc_thetae_012.txt.gz
Theta_e
285 285 283 282 281 279 279 278 277 277 277 276 276 276 276 276 276 275 275 275 275 275 275 275 275 275 275 275 275 275 275 276 273 275 277 278 277 278 280 280 281 281 281
285 283 282 280 279 278 277 276 277 276 276 276 275 275 275 274 274 274 273 274 273 273 273 273 272 274 273 273 273 272 272 273 273 270 273 274 274 276 277 277 279 280 280
284 283 280 279 278 277 276 276 276 275 275 275 274 274 273 274 273 273 273 272 272 272 272 272 272 272 272 273 273 272 273 274 273 271 270 273 273 274 275 276 276 277 279
283 282 280 278 277 276 276 275 275 274 274 273 273 273 273 272 272 272 272 272 272 272 273 273 273 273 273 273 273 273 273 272 272 271 271 271 272 274 274 273 273 276 277
283 281 279 277 276 276 275 275 274 273 273 273 272 272 272 271 272 271 272 272 272 272 273 274 274 274 275 276 275 274 274 273 272 272 271 271 272 272 272 274 274 275 277
281 279 278 276 275 275 274 274 273 273 272 272 272 271 270 271 274 276 276 273 274 273 272 273 274 273 274 277 277 278 277 274 273 272 272 272 272 273 274 274 274 273 272
279 278 276 275 274 274 273 272 272 271 272 271 271 271 271 271 274 276 276 275 273 272 272 273 273 274 274 274 276 277 277 278 278 274 272 272 273 275 276 275 275 275 275
278 277 275 274 273 273 272 271 271 271 271 270 270 271 270 270 274 275 275 274 273 273 273 273 274 274 275 275 275 274 274 275 276 276 274 274 275 276 276 276 276 276 277
276 275 274 273 273 272 271 270 270 270 270 270 270 269 269 269 272 273 275 273 273 273 274 274 274 274 275 277 274 272 273 273 277 278 278 279 280 282 280 278 276 274 273
276 275 274 273 272 271 270 270 270 270 270 270 269 270 269 267 271 274 275 273 271 272 274 274 274 273 276 277 274 273 270 272 273 273 274 275 277 277 279 279 278 275 276
275 273 272 271 270 271 269 269 269 268 269 268 268 268 269 270 270 273 276 274 272 273 271 271 271 274 276 276 277 272 272 274 274 273 275 274 275 276 276 277 278 278 276
273 271 270 269 269 269 268 267 266 267 266 266 266 268 271 272 272 273 275 276 276 271 271 271 272 275 274 274 273 274 275 274 269 270 271 272 274 275 276 278 280 280 280
270 268 267 267 267 267 266 265 265 265 266 267 268 269 269 270 270 272 273 275 274 272 271 273 273 272 272 270 271 273 271 269 268 267 267 270 273 276 277 277 279 280 281
267 266 266 265 264 265 266 266 266 265 266 268 268 268 268 268 269 269 271 269 272 271 272 266 268 269 270 269 268 269 269 268 268 267 268 269 271 272 273 276 278 279 279
267 266 265 265 265 264 266 266 267 268 268 267 267 266 266 265 267 273 272 271 270 271 265 262 262 263 264 265 265 266 267 267 268 268 268 268 269 271 271 274 276 279 278
266 265 265 264 265 265 265 266 271 270 272 272 271 268 266 270 272 272 273 273 271 271 257 258 260 261 262 263 263 264 265 266 267 268 268 268 267 268 268 270 272 272 278
268 266 265 265 265 265 264 264 264 269 272 271 270 270 270 270 270 271 271 270 268 265 252 258 259 260 261 262 263 263 264 265 267 268 267 267 268 267 266 266 268 271 273
268 267 266 265 265 265 264 263 263 262 263 263 268 267 267 268 269 269 269 263 254 258 253 257 258 259 260 261 262 263 264 264 266 267 267 267 266 265 264 265 266 267 269
267 266 266 265 265 265 265 265 264 263 262 260 260 265 262 266 267 266 265 251 249 251 255 256 257 258 259 261 262 263 264 263 266 266 267 266 265 264 263 264 265 266 267
266 265 265 264 263 262 262 261 261 260 260 259 258 256 253 254 250 248 248 247 247 249 253 255 256 257 259 260 261 262 263 264 266 267 266 265 265 264 264 264 264 264 265
264 263 263 262 261 261 261 260 260 259 258 257 255 254 261 251 248 246 245 246 247 248 253 254 255 256 258 260 261 262 262 264 267 267 266 265 265 264 264 265 265 265 265
262 260 261 260 260 260 260 259 259 258 257 255 253 253 262 250 247 246 245 245 246 247 251 252 254 256 257 259 260 261 263 263 267 268 266 265 265 264 264 264 264 264 265
261 260 260 259 259 259 258 258 257 257 256 254 253 252 250 248 247 245 245 245 246 250 252 251 252 255 257 259 260 262 263 264 268 268 266 265 264 264 264 263 263 264 266
260 260 259 258 258 257 257 256 257 256 254 253 252 250 250 246 245 245 244 245 246 249 251 251 252 253 256 258 260 262 264 266 271 268 266 265 264 264 264 263 263 264 264
260 258 258 257 257 256 256 255 255 254 254 253 251 250 248 249 246 244 244 245 247 249 250 251 252 253 254 256 259 261 264 268 271 268 266 265 264 264 264 263 263 263 264
259 258 258 258 257 256 256 255 254 254 253 252 252 250 249 248 246 245 245 247 248 249 249 251 252 251 253 257 260 263 266 272 271 268 267 265 264 263 264 263 262 263 262

GFSGL_sfc_thetae_015.txt.gz
Theta_e
286 286 285 284 284 283 282 281 280 279 278 277 277 276 276 276 276 275 275 275 275 275 275 275 275 276 275 275 275 275 275 275 271 274 276 277 276 276 276 277 277 277 278
287 285 284 282 281 281 280 279 278 278 277 277 276 276 276 275 275 274 274 274 274 274 274 274 273 274 273 273 273 273 273 273 272 270 273 273 273 275 275 275 276 277 277
286 283 283 281 280 280 279 277 277 276 276 276 275 275 274 274 274 274 274 273 273 273 273 272 272 272 272 272 273 273 273 274 273 271 271 273 274 274 274 274 275 275 277
285 283 282 281 280 279 278 277 277 276 275 275 274 273 273 273 273 273 273 272 272 272 272 272 273 273 273 273 273 273 273 272 272 272 271 272 273 275 275 273 272 274 274
284 283 282 281 280 278 276 276 276 275 274 274 273 273 273 273 273 272 272 272 272 272 273 274 274 274 276 276 275 274 274 273 273 272 272 273 273 273 273 274 273 274 274
284 283 282 279 278 276 276 276 275 274 273 273 273 272 271 272 275 277 275 273 273 273 273 274 274 273 274 277 278 279 278 275 273 273 273 272 273 273 274 273 272 272 270
284 282 279 277 276 276 276 275 274 273 273 273 272 272 272 272 277 278 278 276 275 274 273 273 273 274 274 275 277 278 278 278 279 276 273 273 273 274 274 273 273 272 272
282 280 278 277 276 275 275 274 273 273 272 272 272 271 272 272 276 277 277 275 274 274 274 274 273 274 275 275 274 274 275 275 275 276 275 275 275 276 275 275 274 273 274
280 278 277 276 276 274 273 273 272 272 271 272 272 271 271 271 276 276 276 274 274 274 274 275 274 274 275 277 275 273 273 273 277 278 278 279 280 280 280 277 274 273 271
279 278 277 277 275 274 273 272 272 271 271 271 270 270 270 268 274 275 276 273 269 272 274 275 275 274 276 277 275 273 270 271 272 273 275 274 274 274 277 277 275 271 271
276 276 275 275 274 274 272 272 271 271 271 270 269 269 268 268 270 275 277 274 272 271 273 271 272 274 276 277 277 273 270 274 273 269 268 269 270 271 274 276 275 274 272
274 273 273 274 273 272 270 269 270 270 269 268 267 268 269 270 272 275 276 276 276 268 269 271 271 275 275 275 273 274 275 274 267 266 266 267 268 269 271 273 275 276 277
273 272 272 272 271 270 269 268 268 268 268 267 267 268 269 271 271 274 274 274 274 273 271 272 273 272 272 270 271 272 270 267 266 265 265 267 269 270 271 271 272 274 275
271 271 270 270 269 269 269 268 268 267 267 268 268 268 268 268 269 269 270 270 272 271 270 266 268 268 269 269 267 268 267 267 266 266 266 268 269 269 269 270 270 271 270
272 269 268 269 268 268 269 268 268 269 270 269 270 269 267 266 268 270 271 269 267 270 261 260 260 263 263 264 264 265 266 266 266 267 266 266 268 268 268 269 270 269 267
270 269 269 268 267 267 267 267 272 272 274 274 273 270 269 271 274 274 273 272 271 270 256 253 258 260 261 262 262 263 264 265 265 266 265 267 267 267 268 268 268 266 265
271 269 268 267 267 267 267 267 267 272 275 275 274 273 272 273 274 273 272 269 269 263 252 251 256 258 259 261 261 262 262 264 265 265 265 267 268 268 266 265 265 266 265
271 269 268 267 267 267 267 267 268 269 268 269 274 273 273 273 273 272 269 263 256 255 248 249 251 255 258 259 260 260 261 262 263 264 264 267 268 267 265 264 264 264 264
270 268 267 267 268 267 267 268 268 268 267 266 267 269 270 272 272 270 264 256 254 249 247 247 250 254 256 257 258 260 260 261 262 263 264 267 267 266 265 264 265 264 264
270 269 268 267 266 266 266 265 264 264 263 263 263 260 259 260 257 255 254 251 250 248 248 248 251 251 253 255 257 258 260 260 261 263 264 267 267 266 265 264 264 263 263
268 267 267 266 266 266 265 264 263 262 261 261 260 259 262 258 255 253 253 249 247 246 246 246 249 248 252 254 256 257 258 260 262 264 264 267 266 265 265 265 264 264 264
266 266 265 264 264 264 263 263 262 261 260 259 258 260 266 255 253 252 247 247 247 247 245 246 247 247 251 253 255 256 258 259 262 264 266 266 265 265 265 264 264 264 263
264 264 263 262 262 261 261 261 260 259 258 258 258 256 255 253 251 249 248 247 246 244 243 245 246 247 250 253 255 256 257 259 262 264 267 265 265 264 264 263 263 263 262
263 262 261 260 261 260 260 259 258 258 257 256 256 254 254 251 250 249 247 245 242 243 244 246 246 246 250 252 254 256 258 261 264 268 267 265 264 264 264 263 263 263 262
261 260 260 259 259 259 258 258 257 256 256 255 254 254 252 252 250 248 247 244 243 243 246 246 245 247 249 251 252 254 258 261 265 269 267 265 264 264 263 263 263 263 262
260 259 259 259 258 258 257 256 256 256 255 254 254 253 252 252 251 249 247 245 246 246 247 246 246 248 249 252 253 258 261 266 270 269 266 265 264 263 263 263 263 262 262

GFSGL_sfc_thetae_021.txt.gz
Theta_e
287 287 287 286 287 286 284 284 284 283 283 282 282 281 280 279 279 278 277 277 276 276 276 277 276 277 276 276 276 276 275 275 271 273 275 276 275 275 276 277 278 277 278
287 286 286 286 286 285 285 284 284 283 282 282 281 281 280 279 278 278 276 276 275 275 275 275 275 276 274 274 274 274 274 274 272 270 273 273 274 275 275 275 277 278 278
286 285 286 285 284 285 285 284 283 282 282 281 280 280 279 279 278 277 277 276 275 275 275 274 274 274 273 273 273 272 273 274 273 271 271 274 274 275 275 276 276 277 278
285 285 285 285 284 285 285 284 282 282 281 280 280 280 279 278 277 276 276 275 274 274 274 274 274 273 273 273 273 273 273 272 272 271 271 272 274 276 276 274 274 276 276
285 285 285 285 285 285 284 283 282 282 281 280 279 278 278 277 276 276 275 274 274 273 273 274 273 274 276 275 273 273 273 271 271 271 272 273 273 274 273 275 274 274 275
284 285 286 285 284 283 283 282 281 280 280 279 278 277 276 276 281 281 277 274 274 273 272 273 274 274 275 278 279 279 277 271 271 271 272 272 273 274 275 273 273 272 270
284 285 283 283 283 283 282 281 280 279 279 278 277 276 275 276 282 282 280 275 274 273 273 274 274 275 274 275 277 279 279 280 280 276 273 273 273 274 274 273 274 273 273
283 284 280 281 282 280 279 279 279 278 277 277 277 276 276 276 283 283 280 275 274 274 275 275 274 274 275 275 274 274 275 275 275 276 275 275 276 276 276 276 276 273 272
282 282 279 279 280 278 278 277 277 277 276 277 277 276 276 275 283 283 280 275 275 274 275 275 275 274 276 278 275 273 273 275 278 279 280 280 280 280 280 274 269 267 267
282 281 278 277 276 277 278 276 277 277 276 277 276 276 276 275 283 283 281 275 274 274 274 275 276 275 277 278 275 271 270 273 274 272 274 275 275 274 275 273 270 266 266
280 276 275 275 276 276 274 274 275 275 275 274 274 274 275 275 280 283 283 276 274 273 273 273 274 278 278 278 278 275 273 275 273 272 269 269 270 270 271 271 271 270 267
277 275 276 277 273 274 274 274 274 274 273 272 272 271 273 274 278 282 283 278 277 273 273 274 274 277 277 277 277 276 276 275 265 264 265 266 267 268 270 271 272 272 272
281 277 276 277 276 276 276 274 274 274 273 272 272 271 270 272 275 281 282 280 279 274 274 275 276 276 277 275 274 273 272 267 265 262 264 266 268 269 270 270 271 271 271
280 279 277 275 275 275 275 275 274 273 273 272 271 271 270 270 272 277 278 279 278 275 276 274 273 272 271 270 269 268 268 267 266 265 265 267 268 268 267 268 267 268 267
274 277 278 275 274 273 274 274 274 275 275 273 273 272 270 269 271 276 277 277 276 273 267 266 266 266 265 265 265 265 265 266 265 265 265 265 265 266 266 267 267 266 265
269 271 276 276 274 273 273 272 278 278 278 279 278 275 273 275 276 278 279 279 278 275 265 263 264 264 264 264 264 264 264 264 264 264 264 264 264 264 264 265 266 265 265
265 268 271 275 275 273 272 272 270 276 279 280 280 278 277 277 277 279 279 279 278 274 263 264 264 263 263 263 263 262 262 263 263 263 263 263 263 263 263 263 264 265 265
264 266 268 271 273 273 272 271 271 271 272 272 279 278 278 278 278 279 279 278 274 266 262 262 261 260 261 261 261 260 260 260 260 261 261 260 260 261 261 262 263 264 264
264 265 268 273 274 272 272 271 270 271 271 272 273 277 277 278 279 279 279 272 264 261 260 259 259 259 259 258 258 257 256 256 257 257 257 258 260 260 261 263 263 264 264
264 266 266 268 271 270 269 269 269 269 270 271 272 272 273 275 275 274 266 265 263 260 259 258 257 256 255 255 254 251 252 254 254 255 256 258 259 261 262 262 264 263 262
264 266 268 271 269 269 268 268 269 270 270 270 271 273 276 274 268 263 261 261 260 259 257 257 255 254 253 252 249 248 250 254 254 254 256 258 259 259 261 264 264 263 262
267 268 269 270 267 267 268 269 269 270 270 269 269 273 276 264 262 260 259 258 257 256 256 255 253 253 252 251 250 248 249 251 252 252 257 258 258 260 262 264 263 262 262
269 269 267 267 267 268 268 269 268 269 267 266 268 264 262 261 259 258 257 255 254 253 252 251 251 251 247 248 248 249 249 251 252 252 255 256 258 260 263 262 261 261 261
265 265 265 266 266 266 265 265 264 263 264 267 262 261 260 259 258 257 255 254 253 252 251 250 249 248 248 248 248 248 249 251 251 253 255 257 259 262 262 261 261 260 260
263 263 263 263 263 262 262 262 262 263 262 260 259 258 257 257 256 255 254 254 253 252 251 250 250 248 248 249 249 249 250 254 253 255 258 262 262 261 260 260 260 260 260
261 261 261 261 261 261 261 261 261 260 259 258 258 257 257 256 255 254 254 253 253 253 252 251 249 249 250 250 250 252 255 260 261 264 267 266 260 261 260 258 259 259 260

GFSGL_sfc_thetae_024.txt.gz
Theta_e
285 285 286 286 285 284 284 285 285 285 284 283 283 283 282 281 281 280 280 279 279 278 278 278 277 278 277 277 277 277 276 275 271 273 275 275 275 275 276 277 278 277 278
286 285 284 284 283 284 285 284 285 284 284 284 283 282 282 281 281 280 279 279 278 277 277 277 276 277 276 276 276 275 275 275 273 271 273 273 274 275 275 275 276 278 278
285 284 284 284 283 285 285 285 284 284 283 283 283 282 282 281 281 281 280 279 278 278 277 277 276 276 275 274 274 273 273 275 273 271 271 273 274 275 275 276 276 277 278
287 284 284 283 284 285 286 284 283 284 283 283 283 282 282 281 280 280 279 278 278 277 277 276 276 275 275 274 273 273 273 272 272 271 271 272 273 275 275 274 274 275 276
285 285 285 285 285 285 284 283 283 283 283 283 282 282 281 281 280 279 279 278 277 276 276 276 275 275 278 276 274 273 273 272 272 271 271 272 273 274 273 275 273 273 274
284 284 285 285 284 283 283 283 282 281 282 282 281 281 280 280 284 284 281 278 277 275 274 274 274 274 277 279 279 278 276 271 268 269 271 272 273 274 274 273 273 272 271
284 284 284 284 283 283 282 281 282 281 281 281 281 280 279 280 284 285 284 278 277 276 275 274 274 274 274 276 280 280 280 280 277 273 269 273 273 274 274 274 274 274 273
283 284 284 283 282 282 280 281 281 281 281 280 280 280 280 279 284 286 284 278 277 276 275 275 274 274 274 275 276 277 277 277 277 277 275 275 274 276 276 276 275 272 272
282 283 282 281 281 281 280 279 280 280 279 280 280 280 279 279 283 286 284 277 276 275 275 275 275 275 277 279 275 273 274 275 278 279 280 280 281 280 279 272 265 263 266
281 282 283 281 279 278 279 278 279 279 279 279 279 279 278 278 282 286 284 276 274 274 275 276 277 276 279 280 274 273 272 273 274 273 275 275 276 274 276 273 269 261 265
280 278 278 280 281 279 277 274 274 277 277 277 276 276 277 277 278 285 285 276 274 274 274 274 275 279 279 280 280 274 273 275 275 272 270 270 270 270 271 272 272 270 267
275 275 276 280 282 280 276 275 276 276 274 271 273 272 274 275 279 285 286 279 279 274 274 275 275 279 280 280 280 278 279 277 268 266 266 267 268 268 270 271 271 272 272
272 272 273 273 275 280 277 276 275 275 273 272 272 271 271 273 275 283 286 282 280 276 275 276 277 280 280 280 280 279 274 270 267 264 265 266 268 269 270 270 270 270 270
268 268 270 270 273 277 277 277 276 275 274 274 273 272 272 272 274 278 282 282 280 277 277 277 277 278 279 274 274 275 271 269 268 266 266 267 268 268 267 268 266 267 266
265 265 266 268 269 272 277 276 276 276 277 275 275 274 272 271 273 278 281 280 277 275 275 275 274 272 270 269 268 268 268 267 266 267 266 266 266 266 266 267 266 265 263
262 263 264 266 266 269 272 275 279 280 280 281 281 277 275 277 278 280 282 283 280 279 272 271 269 268 267 267 266 266 266 266 266 265 265 265 264 264 264 265 265 263 262
260 261 262 263 265 266 269 273 273 275 281 281 281 281 280 277 279 280 282 283 281 278 270 268 267 267 266 266 266 265 265 265 265 264 264 263 263 263 262 262 263 263 263
260 261 261 262 263 265 267 270 273 272 271 275 280 281 282 279 279 280 281 282 278 274 269 267 266 266 265 265 264 264 263 263 262 262 262 261 261 260 260 260 261 261 262
260 261 262 263 264 265 267 270 272 272 271 273 274 278 280 280 279 280 281 277 275 266 267 266 265 264 263 263 262 261 260 259 259 259 258 258 259 258 258 260 261 262 262
260 261 262 262 263 264 265 269 270 270 270 272 272 274 276 276 275 276 277 276 268 266 265 262 262 262 261 260 259 258 257 256 257 257 256 256 257 258 259 259 260 261 262
260 260 261 262 263 265 266 269 269 269 269 270 272 274 276 274 274 275 272 267 264 263 262 261 260 259 258 257 256 255 255 257 256 255 254 255 257 257 259 260 260 261 263
261 263 263 264 265 266 269 269 269 268 269 270 271 273 278 273 266 264 263 262 261 261 260 259 258 256 256 256 255 255 254 254 251 251 253 255 257 257 258 259 260 262 262
263 264 267 267 267 268 268 268 268 268 269 269 270 267 263 262 261 260 258 258 258 257 256 257 256 255 254 253 252 253 254 252 252 251 251 254 255 256 257 259 261 261 260
263 263 264 265 266 265 265 264 265 266 267 263 262 261 261 260 259 258 257 256 256 254 254 254 255 254 252 250 250 250 250 250 250 249 250 253 254 255 258 261 261 260 259
261 261 262 262 262 263 263 263 263 261 261 261 260 259 259 259 257 257 256 255 254 254 253 253 253 252 252 251 250 251 251 256 254 253 253 255 254 256 260 261 259 259 257
260 260 260 260 261 261 261 261 260 260 259 259 259 259 259 258 257 256 255 255 255 254 254 253 252 251 251 251 251 253 254 258 256 257 256 259 262 263 261 259 256 256 256

GFSGL_sfc_thetae_027.txt.gz
Theta_e
288 288 287 287 287 287 286 287 287 287 287 286 286 286 285 284 284 283 284 283 282 282 282 282 282 282 282 282 282 281 280 280 281 277 279 280 279 279 279 280 280 280 281
287 287 287 286 286 286 286 286 286 286 286 286 285 285 284 284 284 283 283 282 282 281 281 281 281 280 280 280 280 280 280 280 279 278 277 277 277 278 278 278 279 280 280
286 286 286 287 286 285 286 286 286 286 285 285 285 284 284 283 283 283 283 282 282 282 281 280 280 279 279 279 279 279 279 278 278 277 276 277 277 278 278 278 278 280 280
285 285 285 285 286 286 286 286 285 285 285 285 285 285 284 283 283 283 283 282 282 282 281 281 280 279 279 278 278 278 278 277 277 276 275 275 275 277 277 277 277 279 278
284 284 284 285 285 285 285 286 285 284 285 284 284 284 284 283 283 282 282 282 281 281 281 280 280 280 282 280 278 278 277 276 275 274 274 274 275 275 275 277 276 277 278
283 283 284 284 284 284 284 284 284 284 283 284 283 283 283 282 286 287 284 282 281 280 279 279 279 279 280 282 282 281 278 275 274 274 274 274 275 276 277 276 276 275 274
281 282 283 283 282 282 282 283 282 283 283 282 282 283 282 283 286 288 287 282 281 280 280 279 278 278 279 280 282 282 281 280 279 276 274 276 276 277 277 275 275 275 275
279 280 281 282 281 280 280 281 282 282 282 282 282 282 282 282 286 288 287 283 281 281 280 279 278 277 278 279 280 279 279 279 279 278 277 278 278 278 277 277 277 276 275
277 278 279 279 276 277 278 280 280 281 281 281 282 282 282 282 285 287 287 284 280 280 280 279 278 277 279 281 278 278 278 278 282 283 281 280 280 280 280 277 273 271 270
276 276 278 276 275 275 278 281 281 280 280 280 281 282 282 282 284 285 285 284 280 279 278 277 279 277 280 281 278 277 276 277 276 277 278 280 281 278 278 277 274 269 269
275 275 273 274 274 275 277 276 278 279 279 279 279 279 280 280 281 284 285 283 280 278 276 275 276 280 281 282 280 277 277 277 277 276 275 275 274 274 273 273 274 272 270
272 271 270 270 271 272 271 273 276 278 277 277 278 277 278 278 280 282 285 286 282 277 276 276 277 281 281 282 280 279 279 278 276 274 272 272 271 271 272 272 273 273 273
269 267 267 268 268 269 269 270 273 277 276 276 276 275 276 276 277 280 282 285 283 278 277 278 279 281 282 282 282 280 278 275 273 271 270 271 271 271 271 271 271 271 271
265 265 265 265 265 266 268 269 270 273 276 276 275 275 275 274 275 276 279 281 281 280 278 278 279 280 281 280 280 280 276 274 272 271 270 270 270 269 269 269 268 269 268
263 263 262 263 263 264 266 267 269 272 276 276 276 276 275 274 275 277 278 280 280 279 277 276 277 277 276 276 277 274 272 271 270 269 268 268 268 268 268 269 268 267 265
260 260 260 261 262 263 263 264 270 273 276 279 281 280 278 280 280 280 281 283 283 281 275 274 274 275 273 273 270 269 269 269 269 269 268 267 267 267 267 267 267 266 264
258 259 259 260 260 260 261 262 262 267 273 277 281 282 282 279 280 280 282 283 284 281 274 274 274 273 272 271 269 268 267 268 268 268 267 266 266 266 265 265 265 265 264
258 258 258 259 259 260 261 261 263 263 265 269 277 279 282 283 281 281 281 282 280 279 274 273 272 271 269 269 268 268 267 266 266 266 266 265 264 264 263 263 264 263 263
258 259 259 260 260 261 261 262 263 263 265 267 273 275 278 283 283 281 281 279 279 276 272 271 270 270 269 268 267 266 265 265 264 263 263 262 262 261 261 262 262 262 262
259 260 260 260 260 260 261 261 262 263 264 267 271 272 275 277 279 276 278 278 279 273 270 269 268 268 267 266 265 264 263 262 261 261 261 261 261 261 262 261 262 262 262
260 260 261 261 260 260 261 261 263 264 266 270 270 271 276 276 275 275 276 274 269 267 266 265 264 264 263 263 262 261 261 261 260 260 260 260 259 259 260 261 261 261 261
261 261 262 262 263 263 262 263 265 266 269 269 268 272 276 275 270 266 265 265 266 265 265 263 262 261 261 261 260 260 260 259 259 259 259 259 258 259 259 260 260 261 261
261 261 262 264 266 266 265 267 268 269 269 269 268 265 264 263 261 261 260 261 261 261 262 261 260 259 259 259 260 260 259 259 258 257 257 257 257 258 258 258 259 260 261
261 261 262 262 263 264 264 265 265 264 263 262 262 261 261 260 259 259 259 259 259 259 260 259 259 258 257 256 256 257 257 256 256 256 255 255 256 256 257 257 259 261 262
260 260 260 260 261 262 261 261 261 261 260 260 260 259 259 259 258 258 258 258 257 257 256 257 257 257 256 255 254 254 255 258 254 253 252 253 255 255 255 257 260 261 260
258 258 258 259 259 259 260 259 259 259 259 259 259 259 258 258 258 258 258 257 257 256 255 255 255 255 254 255 255 256 256 258 256 255 254 255 256 256 258 261 261 260 258

GFSGL_sfc_thetae_030.txt.gz
Theta_e
289 289 290 291 291 292 291 292 292 293 293 293 294 293 293 293 292 291 291 291 289 289 289 289 289 290 289 289 288 288 287 288 289 282 285 285 285 284 283 283 284 284 284
288 288 288 289 290 289 290 291 291 291 291 292 292 292 292 292 291 290 289 289 288 288 288 287 287 286 287 287 286 285 284 284 286 282 280 281 283 284 283 282 281 281 283
287 287 286 287 288 287 287 288 290 290 290 290 289 290 290 290 289 289 289 289 288 288 288 286 286 285 285 285 285 284 284 281 284 284 279 280 280 280 279 281 281 282 281
285 285 285 285 286 286 286 286 287 288 288 289 289 288 289 289 288 288 286 287 288 287 287 286 286 284 284 284 283 283 283 282 281 281 281 277 278 279 280 280 279 281 281
283 283 283 285 286 286 285 285 285 286 286 286 287 287 287 287 287 287 286 285 286 285 285 284 285 285 285 286 283 284 283 282 281 280 280 277 277 276 277 280 279 281 281
282 282 282 283 284 284 283 282 283 284 285 286 285 285 284 285 287 289 287 285 285 284 284 284 284 284 284 287 286 286 284 282 280 280 279 277 278 278 279 279 278 278 278
281 281 281 282 282 282 280 280 281 282 284 284 285 285 285 286 287 288 288 286 284 284 284 283 283 282 283 283 285 286 284 285 284 282 280 279 278 279 280 278 278 278 278
281 280 280 280 280 280 278 278 279 282 283 283 283 284 285 284 286 287 287 286 285 284 285 284 283 282 282 281 282 282 282 282 282 281 281 281 281 281 281 280 279 279 279
279 279 279 279 278 277 275 276 278 281 281 281 282 283 283 284 286 286 286 284 284 284 284 284 284 282 283 284 281 281 280 280 283 282 282 282 283 283 281 280 277 276 275
278 278 278 278 276 274 275 275 276 278 277 278 280 282 283 283 285 286 285 285 284 284 284 283 283 283 284 283 281 281 278 278 279 279 279 281 282 281 281 280 279 276 275
277 277 276 276 274 274 273 274 273 273 274 275 277 281 281 283 283 285 286 284 284 284 284 282 281 283 283 283 284 281 280 280 280 279 280 279 279 280 280 280 278 277 274
275 274 273 272 272 272 270 270 270 271 271 272 275 278 280 281 282 283 285 285 286 284 284 282 281 282 283 283 283 283 283 282 280 279 278 277 276 276 276 275 275 276 276
269 268 268 269 269 268 268 268 268 269 270 271 273 275 278 280 281 282 283 284 285 284 285 282 281 281 283 283 284 284 281 279 278 276 276 276 276 275 275 274 274 274 274
265 265 265 265 265 266 266 267 267 267 268 270 271 273 276 279 279 280 280 281 282 283 284 280 281 280 282 281 281 281 280 277 277 276 275 275 274 273 272 272 271 271 270
262 262 262 263 262 263 264 265 265 267 268 268 269 271 273 276 279 281 280 279 280 281 280 279 278 277 278 279 279 278 278 276 275 275 273 271 271 271 270 271 271 270 268
260 260 261 261 261 262 262 262 266 268 270 271 273 273 273 277 279 281 282 281 282 283 277 276 276 277 277 278 278 277 276 274 274 272 272 271 270 270 270 270 270 269 268
259 260 260 260 260 260 261 261 260 264 268 269 271 273 275 276 278 282 282 283 282 283 276 276 276 277 278 277 277 274 273 273 272 272 271 270 269 269 269 268 268 268 267
259 260 260 260 260 260 260 261 261 261 261 263 267 270 273 276 281 282 284 283 279 281 277 276 276 277 278 276 272 272 271 270 270 270 269 269 269 268 267 267 267 267 267
260 260 261 261 261 261 261 261 262 262 262 263 265 267 270 275 279 280 284 280 278 279 277 276 277 276 274 273 272 270 270 269 269 268 268 267 267 267 266 267 266 265 265
261 262 262 262 262 261 262 261 261 262 262 263 264 266 268 275 275 277 282 280 279 280 277 275 273 272 272 271 270 269 268 267 267 266 265 265 265 266 265 265 265 265 265
261 262 262 263 263 263 263 263 263 262 263 264 266 268 275 274 274 277 279 279 278 275 273 272 270 269 269 268 267 267 266 265 265 264 264 264 264 263 265 265 265 264 264
262 262 262 262 264 265 266 267 265 264 264 265 268 272 275 272 272 270 270 270 270 271 271 270 268 267 267 266 266 265 264 263 263 263 263 263 263 264 263 264 263 264 264
261 261 262 263 264 265 266 267 267 268 268 268 267 267 266 265 265 265 264 265 266 266 266 266 265 264 265 266 266 266 264 263 264 264 263 263 262 263 263 263 263 263 263
261 260 261 262 262 263 263 263 263 263 263 263 263 262 262 262 261 261 262 263 263 264 264 264 263 263 263 263 264 265 264 263 263 263 263 262 262 262 262 262 262 262 263
259 260 260 260 260 260 261 261 262 262 262 261 261 261 261 261 260 260 261 261 261 261 261 262 262 261 260 260 261 260 261 260 260 259 259 260 260 260 260 261 261 262 263
258 258 259 259 259 259 259 260 260 260 260 260 260 260 260 260 260 260 260 260 260 259 260 260 260 260 260 259 259 258 258 260 258 257 258 258 259 260 260 260 261 262 263

GFSGL_sfc_thetae_033.txt.gz
Theta_e
288 289 289 289 290 290 290 290 291 292 292 292 293 293 294 294 294 294 293 293 291 291 291 291 291 291 291 291 291 290 290 291 291 284 287 287 287 286 285 285 285 283 283
287 287 287 287 288 288 288 288 288 288 289 290 291 290 291 292 292 292 291 291 291 290 290 289 289 290 289 289 289 288 288 288 289 282 283 283 284 285 284 282 281 282 283
285 285 285 285 286 286 286 286 286 286 287 288 288 289 289 289 290 291 291 290 290 290 290 289 288 288 287 288 288 287 287 283 286 286 280 282 282 284 283 281 281 281 281
285 284 284 284 284 285 286 285 284 285 285 286 287 287 287 288 287 288 288 288 289 289 289 289 289 287 287 287 286 286 285 284 284 284 281 279 279 281 281 279 278 280 280
283 283 283 283 284 284 284 283 282 282 283 284 285 286 286 286 286 286 287 287 287 287 288 288 288 288 288 288 286 285 285 284 283 283 282 279 278 277 277 280 280 280 280
283 282 283 282 282 282 282 282 281 281 281 283 284 284 284 284 287 288 288 286 286 285 285 287 287 286 286 289 290 290 287 284 283 282 282 280 279 279 279 279 279 279 277
282 282 282 281 281 281 280 280 279 279 280 280 282 283 282 283 286 287 288 286 286 285 285 285 285 285 285 285 288 289 289 289 289 284 283 282 280 279 279 279 279 279 280
281 281 281 281 280 280 279 278 278 278 278 278 279 281 280 280 284 286 287 286 286 285 285 285 284 285 285 283 283 284 285 285 286 286 285 285 283 281 281 281 280 280 280
279 279 279 280 279 278 276 276 277 276 276 276 277 277 277 278 283 284 285 285 284 284 285 286 285 284 286 287 282 282 283 283 286 289 288 288 287 285 284 281 278 277 276
278 278 278 278 277 276 276 275 276 275 275 275 275 275 276 276 280 282 283 283 283 284 284 285 285 284 286 288 283 282 281 282 282 283 282 284 284 284 285 282 280 276 276
276 276 275 275 274 274 274 274 273 272 272 271 271 272 273 275 276 281 283 282 282 283 283 284 285 287 287 287 287 282 282 283 283 281 280 280 280 281 281 280 281 279 276
271 270 269 269 269 270 269 269 269 269 268 268 268 269 272 274 277 280 282 283 284 283 282 284 285 287 286 287 286 285 285 285 281 279 277 277 278 278 279 279 280 280 279
265 264 264 265 265 265 265 265 265 266 265 266 267 267 269 272 274 278 281 283 284 282 283 285 286 287 286 285 286 285 283 282 279 278 276 277 278 279 279 277 277 276 276
261 262 262 262 262 263 263 263 263 263 263 264 264 265 267 269 271 274 278 280 281 281 282 283 285 286 284 283 282 284 282 282 280 278 278 279 278 276 274 274 272 273 271
261 261 261 261 261 262 263 262 262 264 264 263 263 264 264 265 268 272 274 274 278 279 279 280 281 281 279 280 280 280 281 281 278 279 278 275 274 273 272 273 272 271 269
260 260 261 261 261 262 261 261 266 267 269 269 270 269 268 271 273 274 276 277 278 280 280 278 278 278 277 278 278 278 279 278 277 277 275 273 272 271 270 271 271 270 269
259 259 260 260 260 260 261 261 260 263 267 268 269 270 271 271 273 274 275 276 278 279 279 279 278 277 277 277 278 278 277 276 275 274 273 272 271 271 270 269 270 269 269
259 259 260 260 261 261 261 261 261 260 260 261 266 267 269 271 272 273 274 276 275 277 278 279 277 277 277 278 278 277 276 274 273 273 272 271 271 270 269 268 268 268 268
259 259 260 261 262 262 262 262 262 262 261 261 262 265 267 269 271 273 275 273 276 279 279 279 278 277 278 277 275 274 273 272 272 271 270 270 270 269 268 268 268 268 267
260 260 261 261 262 263 263 263 263 263 262 262 262 263 265 267 267 271 274 276 276 279 279 278 278 278 275 274 272 271 271 270 270 269 269 268 268 268 267 267 266 265 265
260 261 262 262 262 262 263 264 265 266 264 264 264 266 271 271 272 273 274 276 279 278 275 273 274 273 272 271 270 270 269 269 268 267 267 267 267 266 266 267 266 266 266
260 261 261 261 262 263 263 264 265 264 266 266 266 268 270 267 267 268 269 270 272 273 273 272 271 271 270 269 269 268 267 266 266 266 265 265 266 266 266 266 265 265 264
260 260 260 261 262 262 263 263 263 263 263 263 263 263 263 263 263 263 264 265 265 266 267 268 267 267 267 268 268 267 266 265 266 266 265 264 264 264 265 264 264 264 264
259 259 259 260 261 261 261 261 262 262 261 261 261 261 261 261 261 262 262 263 264 264 264 265 265 265 266 266 266 266 266 266 266 265 265 264 264 264 264 264 264 264 264
258 258 258 259 259 260 260 261 260 260 261 261 260 260 261 261 261 261 261 262 262 262 261 262 262 262 262 262 263 264 265 264 263 264 264 264 263 262 262 262 262 262 262
258 258 258 258 258 259 259 259 260 260 260 260 260 260 260 260 260 260 261 261 260 260 260 260 261 261 260 260 260 261 262 262 260 261 261 261 260 260 260 259 259 258 259

GFSGL_sfc_thetae_036.txt.gz
Theta_e
285 285 285 286 286 286 285 284 283 284 284 285 286 286 287 287 287 287 287 287 286 287 287 287 288 288 289 287 287 288 287 285 287 280 281 282 284 285 286 284 284 283 285
284 284 283 284 284 284 284 284 282 283 283 283 284 284 285 285 285 285 285 287 286 286 286 286 287 288 287 286 287 288 288 287 286 279 279 280 281 284 284 282 282 281 281
283 282 282 281 281 281 282 283 282 282 281 282 282 282 283 283 283 284 284 285 286 286 286 286 286 285 286 287 285 286 286 286 287 280 277 279 279 283 280 279 279 278 280
281 281 280 280 280 280 281 281 281 280 279 280 280 282 282 283 283 283 284 283 284 286 286 286 286 285 286 286 285 285 285 285 285 284 277 277 277 280 281 279 278 279 279
281 280 279 279 280 279 279 280 280 279 278 279 279 280 281 282 282 282 282 283 283 284 285 285 286 286 287 288 286 286 285 284 284 284 282 275 277 278 279 279 279 279 280
279 279 279 279 280 280 279 279 279 279 278 278 278 278 279 280 285 286 286 283 284 284 283 284 285 285 286 289 291 291 288 285 285 284 284 280 279 279 280 279 279 277 276
280 279 279 279 278 279 279 279 278 277 277 277 277 277 277 278 283 285 285 282 282 283 283 284 284 285 285 285 287 290 291 291 290 286 284 284 281 280 279 279 279 280 280
277 277 278 278 277 278 278 277 277 277 276 276 276 276 276 276 281 282 283 280 281 282 283 283 283 284 285 284 284 284 285 286 288 287 286 286 285 282 281 281 281 281 278
277 277 277 276 275 276 275 275 276 275 275 274 275 274 274 274 279 279 279 277 278 279 281 283 283 283 286 287 285 283 283 284 288 290 290 290 290 289 284 282 278 277 271
275 275 274 273 272 271 272 272 272 272 273 273 273 273 273 272 276 277 277 275 274 277 279 281 284 283 286 287 285 284 281 282 283 284 285 288 289 288 286 283 281 278 278
271 271 270 269 267 267 267 267 267 267 268 267 268 269 269 270 270 274 275 273 274 275 276 279 281 285 287 288 288 285 284 284 284 283 283 283 284 283 283 283 283 282 279
268 267 265 264 264 264 263 263 263 263 263 263 263 264 266 268 270 272 274 275 276 275 275 278 280 284 286 286 286 288 288 287 283 282 281 281 281 281 281 282 281 282 282
263 261 261 262 262 262 261 261 261 261 261 261 262 262 263 266 267 270 272 273 275 274 276 279 283 284 285 285 287 288 287 285 283 281 280 280 280 281 282 280 280 279 277
260 260 261 260 260 261 261 262 261 260 260 261 260 260 261 262 263 265 266 267 270 271 273 277 280 282 283 283 284 286 286 284 282 281 279 280 280 279 278 279 277 276 274
260 260 260 260 260 260 261 261 261 263 263 262 263 264 264 264 266 269 270 269 269 271 272 273 274 276 276 279 282 282 283 283 281 281 279 278 278 278 277 277 275 274 272
259 259 259 259 259 260 259 260 265 267 269 270 271 270 268 271 272 273 273 274 274 275 271 271 271 273 275 278 279 279 280 281 281 281 279 278 276 275 273 273 273 273 271
258 259 259 259 259 259 259 259 258 262 268 269 270 270 271 271 272 272 273 273 274 274 270 270 271 273 276 277 277 278 278 280 280 278 278 275 274 273 272 271 271 271 271
260 260 259 259 259 259 259 260 260 260 260 261 267 268 270 272 272 273 273 273 269 270 270 270 270 272 275 276 276 277 278 276 277 275 274 274 273 272 272 271 270 270 269
259 259 259 259 259 260 261 261 262 262 262 262 264 267 267 270 271 273 274 270 269 268 269 270 271 274 276 276 277 278 275 275 274 274 273 273 272 271 270 270 270 270 269
259 260 260 260 260 260 261 261 261 262 263 264 264 265 266 266 266 268 270 269 271 272 273 274 277 277 277 276 275 275 274 274 273 272 271 271 271 271 269 269 269 268 267
259 259 259 259 259 260 261 261 261 262 262 262 263 264 270 264 263 264 264 265 266 272 275 274 270 272 274 273 273 272 272 271 271 270 270 270 270 269 269 269 268 267 267
258 258 258 258 259 259 260 261 261 261 261 261 261 262 267 262 262 262 263 264 264 266 267 268 268 269 271 271 270 270 269 268 268 268 268 268 268 268 267 267 266 266 266
257 257 257 257 258 259 259 260 260 260 260 260 260 260 261 260 260 261 261 262 263 264 265 266 266 266 267 268 268 268 267 267 267 268 267 267 267 266 266 265 265 265 264
257 256 256 256 257 258 258 259 259 260 260 260 260 260 260 260 260 260 260 261 261 262 262 263 263 264 265 265 266 266 267 267 267 267 267 266 265 265 265 265 265 265 264
253 255 255 256 256 256 257 257 258 259 259 259 259 260 260 260 260 260 261 261 260 260 260 261 261 261 261 262 263 265 267 266 266 266 266 265 265 265 264 264 264 264 264
252 252 252 254 255 256 256 256 256 257 257 258 258 258 259 259 259 259 260 260 260 260 260 260 260 260 262 262 263 264 265 265 263 264 265 264 263 263 263 262 262 262 262

GFSGL_sfc_thetae_039.txt.gz
Theta_e
283 284 284 283 283 284 283 283 283 283 283 283 284 283 284 284 284 284 284 285 285 285 285 285 286 287 289 289 286 288 288 288 287 289 282 282 284 285 285 288 286 286 289
282 283 282 283 282 283 284 283 282 282 282 281 281 281 282 283 283 283 282 283 283 284 285 285 286 288 285 287 288 286 287 289 286 287 282 280 282 285 285 286 284 285 285
282 281 280 280 280 280 281 281 282 281 281 281 280 280 280 280 281 282 283 282 282 282 283 283 284 284 285 286 286 286 287 288 288 286 287 279 281 282 281 283 283 283 282
281 281 279 279 279 280 280 279 279 280 279 279 279 279 280 280 280 281 281 281 282 282 283 283 283 283 284 284 285 285 285 285 285 285 285 278 278 280 283 281 279 280 280
279 279 279 279 280 280 279 279 279 278 279 279 278 278 278 279 279 280 280 281 281 281 282 283 283 284 286 287 285 285 285 284 284 284 284 279 279 278 280 281 281 280 280
278 279 280 280 280 279 279 279 279 279 278 278 278 277 276 277 281 282 282 279 281 281 280 281 282 283 284 287 289 290 289 286 283 284 284 283 282 281 281 281 281 278 275
278 278 278 278 278 278 278 278 277 277 277 277 276 276 276 276 280 281 281 279 278 279 279 279 280 282 283 283 286 288 289 291 291 286 284 284 284 283 281 281 280 281 281
275 275 276 276 275 276 275 275 274 275 274 274 274 275 274 275 279 280 280 277 276 277 277 278 278 279 281 282 282 282 283 284 286 288 288 287 287 286 283 283 282 282 281
275 274 274 272 271 271 270 270 270 270 270 270 271 271 271 271 276 276 276 274 274 274 275 275 276 277 280 283 282 281 282 283 287 289 290 291 292 291 286 282 281 279 278
272 272 271 270 267 267 267 266 266 266 267 267 267 267 267 267 271 273 273 271 270 271 272 273 276 275 279 281 280 280 280 281 283 284 284 288 290 289 290 284 283 279 280
269 269 268 267 265 264 264 264 263 263 264 263 263 264 264 265 266 270 272 270 269 269 270 271 273 277 278 280 282 281 282 283 284 284 283 283 284 285 287 287 284 283 281
267 265 263 262 262 263 261 261 261 261 260 260 261 261 263 265 267 269 271 272 272 269 269 271 272 276 278 280 280 283 286 286 283 283 282 282 282 283 285 286 285 284 284
259 259 260 261 261 261 260 260 260 260 260 260 261 260 261 264 264 268 270 271 271 268 269 270 273 274 276 277 280 283 283 283 282 282 282 281 282 283 284 284 284 283 280
254 258 260 260 260 260 261 261 260 259 259 260 260 260 261 263 264 265 265 265 268 268 269 268 270 272 275 275 275 280 281 282 282 283 283 282 283 282 282 282 280 279 278
258 260 260 260 259 260 260 260 261 262 263 262 264 265 265 265 267 271 272 271 271 271 269 267 267 269 270 271 272 277 278 279 280 282 283 281 281 280 280 280 280 278 277
258 259 259 259 260 260 259 259 265 267 268 269 271 270 268 272 273 274 274 275 275 276 271 269 268 268 269 270 271 273 277 277 279 282 282 281 279 278 278 278 278 276 274
257 259 259 260 259 259 259 258 258 262 267 268 269 271 272 272 274 274 275 275 276 276 270 268 267 268 269 270 271 273 275 278 280 282 281 279 278 278 277 275 274 275 272
257 259 259 259 259 259 259 259 259 259 259 261 266 269 271 271 273 274 275 275 270 271 270 268 267 268 269 269 270 271 275 277 279 280 280 279 278 276 274 274 274 274 272
257 258 258 259 259 259 259 259 260 260 260 261 262 265 266 268 271 270 270 265 265 266 267 269 269 268 268 270 271 273 276 277 277 277 276 276 275 274 274 273 273 273 271
257 258 259 258 258 258 258 259 259 259 260 260 260 260 261 265 260 261 262 263 263 264 264 269 270 271 271 271 272 275 277 275 275 275 274 274 274 274 273 271 271 270 270
258 258 257 257 257 257 258 258 259 259 259 259 260 261 268 261 260 260 260 261 262 263 264 266 268 270 272 274 274 274 274 273 273 272 272 271 272 271 271 271 270 270 269
255 255 256 255 256 256 257 258 259 259 259 259 259 261 266 260 260 260 260 260 261 262 263 264 266 267 267 268 270 270 270 270 270 270 270 270 270 270 270 269 268 268 268
254 255 255 254 255 256 256 256 257 258 259 259 259 259 260 260 260 260 260 260 261 261 262 262 262 264 265 266 267 268 267 267 268 269 269 268 268 268 268 267 267 266 266
251 251 251 252 254 254 254 255 256 257 258 258 258 258 258 259 259 259 260 260 261 261 261 261 261 261 262 264 266 267 267 268 268 268 268 267 267 267 266 266 266 265 265
247 248 248 249 250 252 252 253 254 254 255 256 256 257 257 258 258 259 259 260 260 260 260 261 261 263 263 263 264 265 266 266 267 267 267 267 266 266 265 265 265 265 265
248 248 247 248 249 249 250 252 252 253 253 255 255 255 256 256 257 257 258 259 259 260 260 260 260 261 263 265 267 267 267 267 265 266 266 265 265 264 264 264 264 264 263

GFSGL_sfc_thetae_042.txt.gz
Theta_e
283 283 282 282 282 282 280 281 280 281 282 281 280 281 281 282 282 281 281 282 282 282 283 283 284 286 286 286 284 287 287 286 284 287 285 283 282 284 284 287 288 288 290
282 283 282 281 282 280 280 280 280 280 281 281 280 280 279 279 280 280 280 280 280 280 281 282 283 285 284 285 285 285 285 286 286 285 287 283 281 283 285 284 286 287 287
280 280 280 279 280 280 280 280 280 279 280 280 280 279 279 279 278 279 279 279 280 280 281 281 281 282 282 283 284 285 285 286 285 285 285 286 281 280 281 282 284 284 285
279 279 278 278 278 278 279 279 278 279 278 278 278 278 279 279 279 278 278 278 279 279 280 281 282 281 281 282 282 283 284 285 285 284 284 284 282 281 281 281 280 282 282
278 278 278 278 278 278 278 278 277 278 278 278 278 278 278 278 278 277 278 278 278 278 279 280 281 282 284 284 282 282 283 283 283 283 283 283 282 278 279 280 282 282 281
277 277 278 278 278 277 277 277 277 276 276 276 276 276 275 277 280 281 280 278 278 277 277 278 279 280 281 284 285 286 286 283 281 282 282 282 283 283 282 282 281 280 279
277 276 276 276 275 275 275 274 273 272 273 272 273 273 273 273 277 278 278 277 276 276 276 277 277 278 279 279 281 283 284 287 288 285 282 283 283 284 283 281 281 282 282
274 272 273 273 271 272 271 270 270 270 269 269 269 269 269 270 274 275 275 273 272 273 274 275 275 275 276 277 277 277 279 281 282 283 284 285 286 286 286 284 283 282 283
273 272 272 270 268 269 267 267 268 267 266 266 267 266 266 266 270 272 272 269 270 270 271 272 272 272 275 277 275 274 275 277 282 286 287 288 289 291 290 286 282 280 279
271 271 270 268 263 265 265 264 265 264 265 265 265 265 264 263 268 270 271 269 267 268 270 271 273 272 275 276 274 273 272 274 277 278 282 284 287 287 289 289 286 280 280
268 268 267 266 264 263 263 263 262 262 263 261 262 262 263 264 264 269 271 269 268 267 268 269 271 273 274 275 276 274 274 277 278 278 280 282 282 283 284 286 288 284 281
266 265 262 261 261 262 260 260 260 260 259 259 260 261 263 264 266 268 271 272 272 269 268 269 269 272 273 275 274 275 276 278 277 278 279 279 281 281 283 284 286 288 286
258 257 257 259 260 261 259 259 259 259 259 259 260 260 261 263 264 269 271 272 272 269 269 270 273 275 276 275 275 275 273 272 272 275 276 280 281 282 283 283 284 286 286
252 256 258 259 259 260 261 260 259 259 259 259 260 260 262 264 266 268 268 268 271 271 271 269 271 273 274 274 272 273 272 272 271 273 276 280 282 282 282 283 282 283 282
256 258 258 259 258 259 260 260 261 262 263 263 265 265 265 265 267 272 273 272 272 273 274 273 270 266 265 265 267 269 270 271 271 273 276 280 280 281 281 282 282 282 279
256 258 258 259 259 260 260 259 265 267 268 270 271 270 269 272 273 274 275 275 276 277 273 271 271 271 270 269 268 268 269 270 272 275 277 278 278 279 280 281 281 280 277
252 256 258 259 258 258 259 258 257 261 267 267 269 270 270 271 272 272 274 274 274 273 267 267 267 268 269 270 269 268 268 270 272 273 276 276 276 279 279 279 278 278 277
251 255 256 257 258 258 258 258 258 257 257 259 264 267 268 269 270 272 271 269 261 264 264 263 264 264 266 269 269 267 268 270 271 272 275 278 279 279 277 278 277 276 276
252 253 253 257 258 258 258 257 258 258 258 259 260 262 263 267 268 267 267 261 260 261 262 262 264 266 269 270 269 269 269 270 271 273 276 278 279 279 278 277 275 276 274
250 254 257 254 257 256 256 256 257 257 258 258 258 259 260 263 259 259 259 260 260 260 261 261 262 265 266 268 271 269 269 271 273 275 276 277 278 276 276 276 275 274 272
250 251 255 256 254 254 255 255 256 257 257 257 258 259 268 260 258 259 259 259 259 259 260 260 261 263 265 265 268 270 272 273 273 273 273 273 273 273 273 274 273 272 271
249 249 250 253 254 253 252 253 255 255 256 256 257 258 265 258 258 258 259 260 260 261 261 261 261 262 263 264 265 266 267 268 269 270 271 271 271 271 271 271 270 269 269
249 250 253 253 252 252 251 249 252 254 254 254 255 256 256 256 257 258 258 260 260 261 261 261 261 262 264 264 266 266 265 266 268 269 268 268 268 269 269 268 268 268 267
248 251 253 251 249 249 249 249 251 252 252 252 252 254 254 254 255 255 257 259 260 261 261 261 261 262 263 264 264 265 267 267 267 268 268 268 267 267 267 267 266 266 266
250 252 252 249 245 247 247 247 250 248 249 250 252 252 253 254 254 254 255 256 258 259 260 260 261 262 263 265 266 266 266 266 266 267 267 267 266 266 266 266 265 265 265
254 253 251 248 247 246 245 246 247 248 248 250 251 252 252 253 254 254 254 255 256 258 259 260 260 261 262 265 267 269 269 269 266 266 266 266 265 265 265 264 264 264 263

GFSGL_sfc_thetae_045.txt.gz
Theta_e
280 280 280 280 280 279 279 279 279 279 280 280 279 279 279 279 279 278 278 279 279 280 281 280 280 282 284 285 285 286 286 285 283 286 288 286 284 285 285 285 286 286 288
280 279 279 279 279 279 279 279 279 278 279 279 279 279 279 279 278 277 276 277 277 278 278 279 280 281 280 282 283 284 284 285 284 282 285 286 283 284 285 285 285 286 286
279 279 279 279 278 278 278 279 278 278 278 278 278 278 278 278 278 278 277 277 277 277 277 278 279 279 279 280 280 281 282 284 284 283 282 285 286 282 283 283 284 284 284
279 278 278 278 278 278 278 278 277 277 277 277 277 277 278 277 277 277 277 277 276 277 278 278 278 278 279 279 280 280 281 280 281 281 281 282 283 284 282 282 282 283 284
277 278 278 278 278 277 277 277 277 277 276 276 275 275 275 275 276 276 277 277 277 277 277 278 278 278 280 281 279 280 280 280 280 279 279 280 280 280 279 282 281 284 283
277 277 277 277 277 276 276 275 274 273 272 272 272 272 272 273 276 277 276 274 275 275 275 276 277 277 278 281 281 282 281 279 279 280 280 279 280 281 282 282 282 281 280
277 275 275 274 273 273 272 271 271 270 270 270 270 269 269 269 273 275 275 273 272 272 272 273 273 275 276 276 278 279 280 281 282 279 278 280 280 282 282 282 282 282 282
272 271 272 271 269 270 269 269 268 268 268 267 267 267 267 268 272 273 273 271 270 270 270 271 271 271 272 273 273 273 275 276 276 277 277 278 280 282 283 284 284 283 284
272 272 270 268 266 267 265 266 266 266 265 264 266 265 264 265 269 271 271 269 269 269 270 270 270 270 272 274 272 271 271 273 276 278 280 281 282 284 285 283 282 282 280
271 270 269 267 262 262 264 264 264 263 264 264 264 264 263 262 267 270 270 269 267 268 269 270 272 271 273 275 273 271 270 272 273 274 275 276 278 278 282 282 283 280 281
268 268 267 265 262 262 261 262 261 261 262 261 261 262 262 263 264 269 271 269 268 267 268 269 270 273 274 275 276 272 271 273 273 273 273 274 276 277 278 280 282 282 281
267 265 263 260 260 261 256 259 259 259 259 259 259 260 262 263 266 268 271 272 273 269 269 269 270 273 274 275 275 276 277 277 274 273 271 271 272 274 277 280 282 283 284
263 258 257 259 259 259 256 258 258 258 258 259 260 260 261 263 264 269 271 272 273 271 271 273 275 276 277 276 277 276 274 272 270 268 268 269 271 273 277 279 281 283 283
260 258 259 258 257 257 260 260 259 258 258 260 260 260 262 265 267 268 268 269 271 272 273 273 274 275 276 276 274 274 273 272 271 270 270 270 272 272 272 276 278 280 280
259 259 258 257 256 258 260 259 260 262 263 264 265 266 265 265 267 272 273 271 272 273 274 272 270 270 271 271 269 268 269 269 268 269 269 269 270 270 271 273 279 280 279
258 259 258 258 258 259 259 259 264 267 269 270 271 269 268 271 273 273 274 275 275 274 268 263 263 264 265 266 267 268 270 269 269 270 269 270 270 272 274 276 278 280 279
255 257 257 258 257 257 258 257 256 260 266 267 268 269 270 271 271 273 273 273 269 268 261 261 262 262 263 264 265 266 267 270 271 270 269 270 271 271 275 276 276 279 279
249 254 253 255 255 255 256 256 256 255 256 257 263 266 268 269 271 270 270 265 259 260 259 259 260 261 262 263 265 266 269 270 269 269 269 270 271 272 274 275 275 276 278
250 252 252 252 254 255 255 254 254 255 255 256 258 261 262 266 268 267 266 257 258 258 259 259 260 260 261 262 264 265 268 269 269 269 269 270 272 273 275 277 278 277 277
249 253 254 252 251 251 252 252 253 253 254 255 256 256 258 261 257 257 258 258 258 259 259 259 259 260 261 262 263 265 266 269 269 270 271 272 274 275 275 277 277 276 277
250 248 253 250 248 249 250 250 253 253 253 254 255 256 267 256 255 256 257 258 258 259 260 260 260 260 261 263 263 264 265 266 267 269 270 271 271 271 273 275 275 274 273
248 249 246 247 249 250 249 252 252 250 251 251 253 253 262 251 252 254 255 256 258 259 261 261 260 261 262 263 264 263 264 265 266 267 268 268 268 269 269 270 270 270 269
249 247 247 247 248 250 252 251 249 249 250 250 250 252 252 252 252 252 253 254 256 257 260 261 260 261 262 264 266 265 264 265 266 267 267 267 267 268 268 268 268 268 267
246 246 248 248 248 251 252 250 249 250 250 249 247 249 250 251 251 252 252 253 254 256 258 260 260 261 262 263 266 267 267 267 266 267 267 266 266 266 267 267 267 267 267
245 246 248 249 249 252 251 249 249 246 247 247 248 247 249 250 251 251 252 253 254 254 256 258 259 260 261 261 265 267 269 267 266 266 266 266 266 266 266 265 265 265 265
254 252 252 252 252 251 250 249 248 248 247 248 248 248 249 250 251 252 252 253 253 254 254 256 258 258 259 261 265 268 269 271 266 266 265 265 264 265 265 264 264 264 264

GFSGL_sfc_thetae_048.txt.gz
Theta_e
279 279 279 279 278 278 278 278 278 278 278 278 278 278 278 277 277 276 276 276 276 276 277 277 277 279 280 281 282 283 283 282 280 282 284 286 287 287 288 287 286 285 287
279 279 279 279 278 278 278 278 278 277 277 277 277 277 277 277 277 276 276 276 275 275 276 276 276 278 277 279 280 279 280 282 280 278 281 282 283 286 287 286 287 286 285
279 278 278 278 278 277 277 278 277 277 276 276 276 276 276 276 276 276 276 276 276 276 276 276 276 276 276 277 277 278 279 280 279 279 278 281 282 283 284 285 285 286 286
279 278 278 278 277 277 277 277 276 276 275 274 274 274 274 274 274 275 275 275 275 275 276 276 276 276 276 276 276 277 278 278 278 278 278 278 279 281 282 282 282 284 284
277 277 277 278 277 277 276 276 275 274 273 273 272 272 272 272 273 274 274 273 273 273 274 275 275 276 278 278 277 277 277 277 276 276 276 277 278 278 279 281 281 282 284
276 277 278 277 276 276 275 273 272 272 271 271 271 270 270 271 274 275 275 273 273 272 271 272 272 273 274 276 278 279 279 276 275 275 276 276 277 278 280 280 280 280 279
277 276 275 274 273 273 271 271 270 269 269 269 268 268 268 268 272 274 274 272 271 271 271 271 271 272 271 271 273 275 275 276 277 275 273 274 275 277 278 278 279 280 280
274 271 272 271 269 270 269 268 267 267 267 266 266 266 266 267 271 272 273 271 270 270 270 270 270 270 270 271 271 271 272 273 273 274 273 273 274 275 276 276 276 277 279
272 271 269 268 266 266 263 266 266 265 265 264 266 265 264 264 269 271 271 269 269 269 269 270 270 269 272 274 272 270 271 272 276 277 278 279 280 280 280 277 275 275 275
271 271 269 267 262 262 264 263 263 262 264 264 264 264 263 262 267 270 271 269 267 268 269 270 272 271 274 275 273 271 270 271 272 272 273 274 276 275 277 276 275 272 272
268 267 267 265 261 261 260 261 259 259 262 260 261 261 262 263 263 269 271 270 269 268 269 270 271 274 275 276 276 273 272 274 274 273 273 273 273 274 274 274 275 275 273
266 266 263 261 261 262 254 256 256 255 256 257 258 260 262 263 266 269 272 274 274 270 270 271 271 275 276 277 277 278 278 278 276 273 271 270 271 271 272 274 275 276 277
261 260 260 261 261 261 255 259 258 255 255 258 260 260 261 264 265 270 272 273 274 272 272 274 276 277 277 276 277 277 276 273 271 270 270 270 271 272 273 272 273 273 273
256 259 261 261 261 260 261 260 256 255 257 259 259 260 262 266 267 267 268 271 273 272 273 273 273 273 273 272 270 272 272 272 271 270 270 272 273 272 271 271 270 270 270
258 261 261 261 259 259 260 260 260 260 261 260 264 266 265 265 267 272 273 272 272 273 271 267 264 263 264 264 265 266 267 268 268 269 269 269 269 269 269 270 270 270 268
259 261 260 260 259 259 259 259 264 267 269 271 271 270 268 271 273 273 274 274 274 271 264 259 260 261 261 262 262 263 265 266 267 268 269 268 268 269 269 270 272 271 270
258 260 259 259 257 256 256 256 255 259 265 267 268 269 269 271 271 273 272 272 268 266 255 257 258 259 260 261 262 262 263 265 267 268 269 269 269 269 269 269 270 271 272
257 258 256 255 254 254 254 255 254 254 254 256 261 264 267 268 270 271 270 265 257 258 252 257 258 259 259 260 260 261 263 264 266 268 269 269 269 269 269 269 270 272 274
254 255 253 252 252 252 253 252 252 251 251 253 255 259 260 265 267 266 265 251 256 256 257 258 259 259 259 260 261 262 263 264 265 267 269 269 269 269 269 270 271 273 275
251 253 253 250 251 250 250 251 251 250 250 250 253 254 255 256 251 252 252 252 254 256 257 258 259 260 260 260 261 262 263 263 264 265 266 268 270 271 271 273 274 274 275
251 251 252 249 249 248 248 248 250 249 250 251 253 253 264 255 251 250 252 253 253 255 256 258 259 260 261 261 261 262 263 263 264 265 265 267 268 268 269 270 270 270 270
252 252 249 249 251 249 248 249 249 249 250 251 252 249 261 248 248 248 251 252 252 254 255 256 258 259 261 261 262 262 264 264 264 265 265 266 267 268 268 268 268 269 269
252 252 253 252 251 251 248 248 248 249 251 250 249 250 247 248 247 248 250 251 252 253 254 254 256 258 260 261 262 264 265 266 265 265 264 265 266 266 267 267 267 267 267
251 250 249 248 245 246 248 249 249 251 252 251 248 247 247 247 247 248 250 250 251 252 253 253 255 256 258 259 261 263 266 269 266 265 265 265 265 265 266 266 266 266 266
252 251 247 248 247 250 250 250 252 252 251 249 250 246 245 247 248 248 249 249 251 252 252 253 254 254 256 257 259 261 265 270 266 265 265 264 264 264 264 264 264 264 264
253 252 253 253 251 250 251 251 252 253 251 250 249 248 247 248 249 249 249 250 251 251 251 253 254 252 254 257 259 263 268 271 268 265 264 264 263 263 263 263 263 263 263

GFSGL_sfc_thetae_051.txt.gz
Theta_e
281 281 281 280 280 280 280 280 279 280 279 279 279 279 278 278 278 278 278 278 278 278 278 278 278 279 279 280 281 281 281 281 280 282 284 285 284 285 286 289 290 290 291
281 281 281 281 280 280 279 279 279 279 278 278 278 277 277 277 277 276 276 277 276 276 277 277 277 278 278 279 279 279 279 280 279 278 281 282 282 284 285 285 286 287 288
280 280 280 280 279 279 279 279 279 277 277 276 276 275 275 275 275 275 276 276 276 275 275 275 276 276 276 277 277 277 278 279 279 278 278 281 282 283 282 283 284 286 287
280 279 279 279 279 279 278 278 276 276 275 274 274 274 273 273 273 274 275 275 274 275 275 275 275 275 274 275 275 276 277 277 278 278 277 277 279 281 282 281 281 284 284
279 279 279 280 279 278 277 275 274 274 273 273 273 272 272 272 273 274 274 274 274 274 274 274 274 274 275 275 275 275 275 275 275 276 276 276 277 277 277 281 280 282 283
278 278 279 278 277 277 275 273 273 272 272 271 271 270 270 271 273 275 276 274 273 272 271 272 272 272 273 274 275 276 275 273 272 272 273 273 274 275 277 277 277 277 276
278 278 277 276 275 274 272 271 270 270 270 269 269 269 268 269 273 275 275 273 272 271 271 270 270 271 271 271 272 274 274 274 276 274 272 272 272 273 275 274 274 274 275
276 275 274 273 271 271 270 269 269 268 268 267 267 267 267 268 272 273 274 272 271 270 270 270 270 270 271 271 271 272 272 273 273 274 274 274 275 275 275 275 275 275 276
275 274 272 271 268 269 267 267 267 266 266 265 267 266 265 265 270 272 272 271 270 269 270 271 271 270 272 274 273 272 272 273 276 277 278 279 279 279 279 277 274 273 272
274 273 271 268 265 264 266 265 265 264 265 265 265 265 264 263 268 271 272 271 269 270 271 271 273 272 275 276 274 273 271 272 274 274 274 276 277 277 278 277 275 272 271
271 270 268 267 264 264 263 264 262 262 263 261 262 263 263 264 264 270 273 272 271 271 272 271 272 275 276 277 278 275 274 276 276 275 275 275 275 276 276 276 276 275 272
268 267 265 262 264 263 260 262 260 260 259 259 259 261 264 265 267 270 273 274 275 272 272 273 273 276 278 278 277 277 277 277 275 274 273 273 273 274 275 276 276 276 276
264 262 260 261 262 262 259 262 262 261 260 260 261 261 263 265 266 270 272 274 275 273 274 275 276 274 274 273 273 274 272 270 270 270 271 272 273 275 275 275 275 275 275
260 261 261 260 261 262 263 262 260 260 260 260 260 261 263 265 268 268 269 272 274 274 273 270 270 269 269 269 267 268 268 268 268 267 269 270 272 271 271 272 272 273 272
260 261 261 261 261 262 262 262 262 262 261 258 259 262 264 266 267 273 273 273 273 272 267 263 262 262 262 263 264 264 265 266 265 267 267 268 269 270 270 272 271 270 269
261 261 261 261 261 262 260 260 264 267 269 271 272 271 269 271 272 274 274 274 274 271 262 259 259 260 260 261 261 262 263 264 265 266 266 267 268 269 270 271 271 270 269
258 261 261 261 260 259 259 258 257 260 264 266 268 270 270 270 272 272 273 272 268 266 257 258 258 259 260 261 261 261 262 263 265 265 266 267 269 270 270 270 270 270 270
254 259 259 259 258 257 257 256 256 254 254 256 260 264 267 269 269 271 269 264 257 258 256 257 258 259 260 260 261 261 262 263 264 265 265 267 268 269 269 269 270 269 270
255 255 256 256 255 254 255 254 254 253 252 252 254 258 260 264 267 266 264 255 253 255 256 257 258 259 260 260 261 262 262 262 264 264 265 266 267 267 268 269 270 271 271
252 255 255 253 254 254 255 254 254 253 252 251 252 254 253 255 255 253 253 252 253 254 255 255 257 258 259 260 261 262 262 263 264 265 265 266 266 267 267 268 269 270 271
252 252 254 251 251 253 253 253 254 253 252 251 252 254 262 261 255 252 251 252 252 253 254 254 255 256 258 259 260 261 262 263 265 266 265 265 265 266 267 268 269 270 270
248 249 248 249 252 252 253 254 253 252 253 252 252 251 261 253 252 251 251 251 252 252 253 253 254 255 257 258 259 260 261 262 264 266 265 264 265 266 267 267 268 268 269
249 250 250 249 251 253 252 252 252 252 252 251 251 252 252 251 251 249 250 251 251 251 253 252 253 254 256 257 258 260 260 262 264 267 264 264 264 265 266 266 266 266 266
248 250 252 252 249 248 248 248 249 250 251 252 252 251 252 251 250 250 250 250 250 251 252 252 253 253 254 255 257 258 261 263 266 266 265 264 264 264 265 265 265 265 265
247 249 252 252 251 251 248 249 251 251 251 252 253 252 252 250 250 250 249 249 249 250 251 251 252 253 253 253 254 256 259 262 268 265 263 263 262 262 263 264 263 264 264
250 251 252 254 252 252 252 252 253 253 254 254 254 253 252 250 250 249 248 248 249 250 250 251 252 251 252 254 255 258 261 266 269 265 264 262 262 263 263 263 263 263 263

GFSGL_sfc_thetae_054.txt.gz
Theta_e
287 287 286 286 286 286 285 284 284 283 282 282 281 281 281 281 281 281 281 281 280 281 281 281 281 282 281 282 282 282 282 282 280 282 284 286 285 285 286 287 288 288 289
287 286 286 286 285 285 284 283 283 282 282 281 281 280 280 279 280 279 279 279 279 279 279 279 279 279 279 280 280 280 280 281 279 278 281 282 282 284 285 285 285 286 287
286 286 285 285 284 284 284 283 283 281 280 279 279 278 278 278 277 278 278 278 278 278 278 278 278 278 277 278 278 277 278 278 279 278 278 281 282 283 283 283 283 285 285
285 285 284 284 284 284 283 282 281 279 279 278 278 277 276 276 276 276 277 278 278 278 278 277 277 276 276 275 275 275 276 276 276 276 277 277 278 280 281 280 281 284 284
284 284 284 285 285 283 282 280 278 278 277 276 276 275 275 275 275 276 277 277 277 276 276 276 276 276 275 275 275 275 275 274 274 274 274 275 275 276 275 278 277 278 280
284 284 284 284 282 281 280 278 277 276 275 275 274 274 273 273 274 276 277 276 276 275 274 275 275 275 274 275 275 276 276 274 272 273 273 272 272 274 275 275 275 275 274
283 284 283 283 281 280 278 276 275 274 274 273 273 272 272 272 273 275 276 275 275 274 273 273 273 273 274 273 274 275 275 276 276 275 273 273 273 274 274 274 274 274 275
282 282 282 281 279 278 275 274 274 273 272 272 272 271 271 271 273 274 275 275 274 273 273 273 272 273 273 273 273 273 274 274 275 275 275 275 276 277 276 276 276 276 277
281 281 281 279 277 275 274 273 273 272 271 271 271 270 269 270 271 273 274 273 273 273 273 273 273 273 275 276 275 274 275 276 278 279 279 280 280 280 280 278 276 275 274
281 281 280 277 274 273 273 271 272 271 270 270 270 269 268 267 270 272 273 273 272 273 274 274 276 275 277 277 276 275 274 275 276 277 277 278 279 278 279 278 277 273 273
280 278 276 274 272 272 271 270 269 269 268 268 267 268 267 268 268 271 273 273 273 273 274 274 275 276 277 279 278 276 275 276 276 275 275 276 277 278 278 278 278 276 274
276 275 273 270 271 269 268 268 267 267 266 266 266 267 269 269 269 271 273 274 275 274 273 275 275 277 276 276 275 275 275 275 272 271 271 272 274 275 277 277 277 278 278
272 271 269 268 268 268 267 267 267 267 267 268 267 268 268 269 270 271 273 274 275 275 275 275 274 273 272 271 272 272 271 269 269 268 268 269 271 273 274 274 275 276 276
270 269 267 266 267 266 268 268 268 268 268 267 267 267 268 269 270 271 272 273 275 275 274 271 270 270 270 269 268 269 268 268 267 267 268 270 271 271 271 273 272 273 272
269 268 269 268 267 268 268 269 268 269 268 267 267 268 268 269 271 272 274 274 275 274 271 268 266 266 266 266 267 267 267 267 267 267 267 268 268 270 270 272 272 273 271
269 268 269 269 268 268 268 267 269 270 271 272 273 273 272 273 274 273 274 275 274 272 268 264 264 264 264 264 265 265 266 266 266 266 266 267 268 268 269 271 273 272 271
269 269 268 266 267 267 266 265 265 267 268 269 270 271 272 273 272 273 273 274 269 268 263 263 263 263 263 264 264 264 264 266 266 266 266 267 267 268 268 269 270 272 271
264 262 266 267 266 265 265 264 263 262 263 264 265 266 267 269 271 271 272 269 263 263 261 261 261 262 263 263 263 263 264 265 265 266 266 267 267 267 267 268 269 269 270
263 264 264 264 263 263 262 262 261 261 261 260 261 262 263 265 267 269 267 262 260 259 261 260 261 261 261 262 263 263 263 264 265 265 266 267 267 267 267 267 268 268 269
260 258 260 261 261 260 261 260 260 260 260 259 260 260 261 259 261 262 261 260 259 259 260 259 260 260 260 261 262 262 263 263 264 265 266 268 268 267 266 267 268 268 269
259 259 258 259 259 260 260 259 259 259 259 259 259 260 262 259 262 261 260 259 259 259 259 259 259 259 260 260 260 261 262 263 264 265 266 267 267 266 267 268 268 269 269
257 258 258 257 258 258 258 259 259 258 258 258 259 259 263 262 260 259 259 258 258 258 258 258 258 259 259 259 259 260 260 261 263 265 265 266 266 266 267 267 267 267 268
257 257 257 257 257 257 257 257 257 258 258 258 258 258 258 258 258 257 257 257 257 256 257 257 257 257 258 259 260 260 259 260 262 264 264 266 266 266 266 266 266 266 266
258 257 257 257 257 256 256 256 256 255 255 256 257 257 257 257 257 257 256 256 256 256 256 256 256 256 256 256 258 260 260 261 262 263 267 265 265 265 265 265 265 265 265
257 257 257 257 257 257 256 256 256 256 256 256 257 257 257 257 256 256 256 255 254 254 255 255 255 255 256 255 256 256 258 259 261 265 267 266 265 265 265 265 264 265 264
258 257 257 257 257 257 256 256 256 257 257 257 257 257 257 257 256 256 255 254 254 254 254 255 255 255 255 256 257 258 259 263 264 268 266 266 265 265 265 265 264 265 264

GFSGL_sfc_thetae_057.txt.gz
Theta_e
289 289 288 288 288 288 287 286 286 285 284 283 283 283 282 282 282 282 282 281 281 281 282 281 281 281 281 281 281 281 281 281 277 279 282 283 283 283 283 285 285 285 285
288 288 288 287 287 287 286 285 285 284 284 283 282 281 281 281 281 280 279 280 279 279 280 279 279 280 279 279 279 279 278 279 277 275 278 278 279 281 281 281 282 284 284
288 287 287 287 286 286 285 285 285 283 283 281 280 280 279 279 278 279 278 279 279 279 279 278 278 278 277 277 277 276 276 277 276 275 275 277 278 279 278 279 280 281 283
287 287 286 286 286 286 285 284 283 283 281 280 280 278 278 277 277 277 278 278 279 279 279 278 277 277 276 275 275 275 275 275 275 274 274 274 275 276 277 276 275 278 277
286 286 286 286 286 285 284 283 282 280 280 279 278 277 277 276 276 276 277 277 277 277 277 277 277 277 277 277 275 275 274 273 273 272 272 272 273 272 272 275 274 275 276
285 285 285 285 284 284 283 282 280 279 278 277 276 276 276 276 275 276 277 276 276 276 275 276 276 276 276 277 277 277 276 273 272 271 271 270 272 273 274 273 273 272 270
284 284 284 284 283 282 282 280 278 277 277 276 275 275 274 275 275 276 277 276 275 275 275 274 274 275 275 274 275 276 276 277 277 275 272 272 272 274 274 273 273 273 272
283 283 283 283 281 281 280 278 277 277 275 275 274 274 274 274 275 275 275 275 275 275 274 274 273 273 274 275 274 274 275 275 275 275 275 275 275 276 275 275 275 275 275
282 283 282 282 280 280 277 277 276 276 275 274 274 273 272 272 274 275 275 274 274 274 275 275 274 274 276 278 276 275 275 275 279 280 280 281 281 281 281 278 275 274 272
282 282 282 281 280 278 277 276 276 275 274 274 273 273 272 270 273 274 274 273 273 274 275 275 277 276 278 279 276 274 272 273 274 274 275 276 277 277 278 277 276 272 272
282 281 280 279 278 277 276 275 274 273 272 271 271 271 270 270 270 274 274 273 273 273 274 274 275 277 278 278 277 273 272 275 274 272 271 272 273 274 275 277 278 277 274
279 278 276 275 275 274 272 272 271 271 269 269 269 269 271 271 271 272 274 275 276 273 273 274 275 277 277 276 274 274 275 273 268 268 268 268 269 270 273 274 274 275 275
276 274 273 272 273 272 270 270 269 269 269 270 270 270 271 272 271 274 275 275 276 274 275 276 277 275 274 272 272 273 270 268 267 266 266 267 269 270 271 271 273 273 274
273 272 271 270 270 270 271 271 271 271 270 270 271 270 270 271 271 272 272 273 275 275 275 272 272 272 272 271 269 269 269 268 267 266 267 268 269 268 268 270 270 270 270
273 272 272 271 269 270 270 271 270 272 272 271 271 270 269 269 272 274 273 273 273 275 273 269 267 267 266 267 267 267 267 267 266 267 266 265 266 267 268 269 269 269 269
272 271 272 272 271 270 271 270 273 274 273 273 273 272 271 274 275 276 276 275 276 274 268 265 265 265 265 265 265 265 266 266 266 266 265 266 266 266 266 267 268 268 267
273 272 272 269 271 270 269 269 268 271 273 273 274 275 275 275 275 276 275 275 275 269 264 264 263 264 264 264 264 264 264 265 265 265 265 265 265 266 266 266 267 267 267
267 264 270 270 269 269 268 268 267 266 265 266 270 270 271 272 273 273 274 274 267 265 262 262 262 262 263 263 263 263 263 263 263 264 264 264 265 266 266 265 266 265 266
266 267 266 266 266 265 265 265 264 264 263 263 263 265 266 269 270 272 273 268 264 262 261 261 261 261 261 261 261 261 262 262 262 262 263 264 265 266 265 265 265 266 266
262 260 260 263 263 263 262 262 262 262 262 262 262 262 263 261 259 262 264 263 261 261 260 260 260 260 260 259 260 260 260 261 261 262 263 264 265 266 265 265 265 265 266
262 261 259 260 261 261 261 261 261 261 260 260 261 262 265 260 260 262 263 263 261 260 259 259 259 259 259 259 258 259 259 260 260 261 262 263 264 265 265 265 265 265 266
260 260 260 259 259 259 260 260 260 259 259 259 259 260 265 263 263 263 262 262 261 260 259 257 257 258 258 257 257 257 257 258 259 260 261 262 263 265 265 264 264 264 264
259 259 259 259 259 258 258 258 258 258 258 258 258 258 259 259 259 260 260 260 259 258 257 256 257 256 256 256 257 258 258 257 259 260 260 260 263 264 264 263 263 263 263
259 259 259 259 258 258 257 257 258 257 257 256 256 257 258 258 259 259 259 259 258 257 256 256 255 254 255 254 256 257 258 258 259 259 260 260 264 264 262 262 262 262 263
259 258 258 258 257 257 257 257 257 257 257 257 257 258 258 258 258 258 258 258 257 255 256 256 255 254 253 252 253 253 255 257 256 258 260 263 264 261 258 258 257 261 260
259 258 258 258 257 257 257 257 257 257 257 257 258 258 259 258 258 258 258 256 256 255 255 255 254 252 252 253 253 255 256 260 260 261 265 264 259 256 256 256 255 255 257

GFSGL_sfc_thetae_060.txt.gz
Theta_e
285 285 284 284 284 283 282 281 281 280 280 280 280 280 279 279 278 278 277 277 277 276 277 276 277 277 276 276 277 277 276 275 273 275 277 278 277 277 279 280 280 280 281
285 284 284 284 283 282 281 281 280 280 280 279 279 279 278 278 277 277 276 276 275 276 276 276 276 278 275 275 275 274 274 274 273 272 274 275 275 276 276 276 278 279 279
285 284 283 282 282 281 281 280 280 279 278 278 278 277 277 277 276 276 275 276 275 275 276 276 275 275 275 274 273 272 273 275 273 272 272 274 274 275 274 275 276 276 278
284 283 281 281 281 281 280 280 279 279 278 277 277 276 276 276 275 276 276 275 275 276 276 276 275 275 274 273 274 273 274 273 273 272 271 272 272 274 274 272 272 275 275
284 282 282 281 281 281 280 280 279 278 277 277 276 275 275 275 275 275 276 275 275 275 275 276 275 276 277 277 275 274 273 272 272 271 271 271 271 271 271 273 273 273 274
283 282 282 282 281 281 280 279 278 277 276 276 275 275 274 275 277 277 277 276 276 275 274 275 275 275 275 277 277 278 277 274 272 270 270 270 272 272 273 273 272 271 269
282 282 282 282 282 281 280 278 277 276 276 275 274 274 273 274 278 278 278 276 275 274 274 274 274 275 274 274 275 277 277 278 279 276 272 272 272 273 274 273 273 273 272
282 282 282 282 280 280 279 277 275 275 274 273 273 273 273 273 278 278 278 275 274 274 274 274 273 273 274 274 274 274 275 276 276 277 276 276 276 277 277 277 277 276 276
282 282 282 281 280 279 278 276 275 274 273 272 272 271 270 271 277 278 277 273 273 273 274 274 274 273 276 278 276 273 274 274 277 278 278 279 279 279 278 275 271 271 270
282 282 282 281 280 278 277 275 274 272 272 273 273 270 270 267 275 277 276 273 269 272 273 275 277 275 278 279 276 273 270 271 272 273 271 272 273 273 275 274 273 271 271
280 279 279 279 279 278 275 271 271 269 271 268 269 268 268 269 269 275 277 274 271 270 271 272 274 277 278 279 279 272 270 274 270 267 268 268 269 270 271 272 273 272 269
278 277 276 275 275 274 271 268 267 268 265 264 263 265 268 269 271 273 276 277 276 272 270 273 273 277 278 278 276 275 276 273 264 265 265 265 266 268 270 270 271 272 273
275 273 270 270 270 269 268 266 265 265 265 265 267 266 267 270 269 275 276 277 277 275 274 274 277 277 276 273 273 274 270 264 263 263 264 265 267 268 269 269 270 271 271
271 270 268 268 266 265 267 267 266 266 266 267 267 267 266 267 267 269 269 270 273 274 274 271 271 274 273 272 268 269 268 266 265 265 265 266 267 266 266 268 267 267 267
269 268 267 266 265 265 267 266 268 266 268 263 265 265 263 264 267 271 269 266 266 270 271 266 260 262 262 263 262 263 265 264 264 265 265 264 265 266 266 267 267 266 265
267 267 266 266 265 266 265 264 273 274 275 276 276 270 263 272 275 275 276 277 278 278 270 258 259 261 262 264 261 262 263 263 264 264 264 264 264 264 264 266 267 266 265
266 266 266 266 265 264 263 262 261 266 274 276 276 277 277 277 277 278 278 278 278 277 260 256 260 261 261 263 261 260 262 263 263 263 263 263 263 264 264 264 266 265 264
262 263 263 262 261 261 260 260 259 258 258 260 268 271 272 273 274 275 275 276 272 270 255 259 259 260 260 261 259 257 259 261 261 261 261 261 262 263 263 264 264 264 264
262 261 260 260 259 259 258 258 258 256 255 254 256 263 265 269 270 271 273 270 268 263 258 260 261 260 259 259 258 254 255 258 259 259 260 260 261 262 262 264 264 264 264
257 260 259 259 260 259 256 255 255 255 255 255 255 255 255 255 252 252 257 260 260 259 260 261 260 260 257 257 254 252 255 253 255 254 258 259 260 262 261 263 263 263 263
259 259 258 256 255 253 253 253 254 253 252 251 252 253 266 263 262 255 257 259 261 257 261 260 260 259 258 256 253 251 253 255 252 252 258 259 260 259 261 264 263 263 263
255 253 251 251 252 252 250 251 251 250 250 250 253 252 264 259 258 258 260 260 258 258 259 259 258 257 257 256 252 252 250 252 253 251 257 258 258 259 261 263 262 262 262
252 251 251 250 251 252 250 249 249 249 251 250 251 253 250 251 252 253 257 258 256 258 258 257 256 256 256 256 253 252 252 254 252 251 257 257 257 258 261 261 260 260 260
251 251 251 250 250 250 249 248 250 251 251 251 249 250 251 252 252 254 257 256 257 258 257 257 256 256 256 254 253 250 251 253 251 255 254 257 257 258 262 255 257 256 258
249 250 250 249 248 249 248 248 249 248 249 251 251 251 251 253 256 255 257 258 258 257 256 256 255 255 255 254 251 248 250 256 254 254 255 256 256 258 262 252 251 253 251
250 249 249 249 248 248 247 248 248 249 250 251 251 252 253 256 257 257 257 257 257 256 256 255 255 254 253 253 249 251 253 257 256 256 256 258 260 262 254 252 252 250 251

GFSGL_sfc_thetae_063.txt.gz
Theta_e
285 284 284 283 283 282 281 280 280 280 279 279 279 279 279 278 278 277 276 277 276 276 276 276 276 277 275 275 275 275 275 274 271 273 274 275 275 275 276 277 277 277 277
285 284 283 283 282 281 280 279 279 279 279 279 279 278 278 277 277 276 276 276 275 275 276 276 275 277 274 274 274 273 273 273 272 271 273 273 273 274 274 274 276 277 276
284 283 282 281 281 281 280 279 279 279 278 278 278 277 277 277 276 276 276 275 275 275 275 275 275 275 274 274 272 272 272 274 272 271 271 273 273 274 273 274 274 275 277
284 283 282 281 281 281 280 279 279 278 277 277 277 277 276 276 276 276 275 275 275 275 276 276 275 274 274 273 273 273 274 273 273 272 271 272 273 274 274 272 273 275 275
284 283 282 282 281 281 280 279 279 278 277 277 276 276 275 275 275 275 276 275 275 275 275 276 275 275 277 277 275 274 273 271 271 271 272 271 271 272 272 274 273 274 274
284 283 282 282 282 281 280 280 279 278 277 277 276 275 274 275 279 280 277 276 276 275 274 275 275 274 274 277 278 278 277 274 271 271 272 272 272 273 274 273 273 272 270
283 283 282 282 282 281 281 279 278 277 276 275 274 274 274 274 280 281 280 276 275 274 274 274 275 275 274 273 275 277 278 278 279 276 273 273 273 273 274 274 274 273 272
283 283 283 282 282 281 280 279 278 277 275 275 274 274 274 274 279 281 280 276 274 274 274 274 274 273 273 273 273 273 275 276 276 276 275 274 275 276 275 273 272 272 272
282 282 282 282 281 280 279 278 278 276 275 274 274 273 272 272 279 280 279 274 274 273 274 274 273 273 275 278 275 273 273 274 276 278 278 278 277 277 275 272 268 268 267
282 283 283 282 282 280 280 278 277 276 276 274 274 272 271 269 277 279 279 274 269 272 273 274 276 274 277 279 275 270 268 270 272 271 269 270 272 271 273 271 270 267 267
282 282 282 282 281 281 280 275 274 273 272 270 270 269 269 269 270 278 279 275 272 270 271 271 274 277 278 278 279 272 268 274 267 266 266 267 268 269 270 271 271 269 267
280 280 280 280 279 277 276 270 271 270 269 267 266 266 267 269 272 275 278 279 278 271 269 272 273 277 278 278 279 277 277 274 260 259 262 264 265 267 268 269 270 270 271
278 276 275 274 274 273 273 269 266 266 268 266 268 267 266 269 269 275 277 278 279 276 274 274 277 278 279 276 274 275 271 262 259 258 262 264 266 268 268 267 269 269 269
273 271 270 271 268 267 269 269 267 266 265 266 265 265 263 265 267 268 269 270 274 275 275 272 274 276 275 274 268 269 268 265 263 263 264 265 266 265 265 266 265 266 266
269 268 267 267 267 266 267 265 266 264 265 261 260 262 261 262 266 271 269 265 266 269 269 265 263 266 265 266 264 265 265 265 263 263 263 263 264 264 264 265 265 265 264
268 267 267 266 264 265 265 263 273 273 274 276 276 269 265 273 276 277 277 278 278 279 272 270 266 267 266 266 263 262 264 264 264 262 261 262 263 263 263 264 265 264 263
267 267 266 266 265 263 262 262 261 265 274 275 276 277 277 277 277 277 277 278 278 278 274 274 266 266 265 265 264 263 262 263 263 260 261 261 262 261 262 262 263 264 263
263 264 263 263 262 261 261 259 259 257 257 261 267 269 271 272 273 273 274 274 270 271 268 263 263 262 263 263 263 261 261 261 261 257 258 258 259 260 260 260 262 262 262
263 261 261 260 259 259 259 257 256 254 253 252 253 260 262 267 268 269 269 258 257 260 262 262 260 260 262 262 261 260 259 258 258 252 252 254 257 259 258 260 261 262 262
258 260 258 258 257 257 256 255 254 251 251 249 250 250 250 251 250 250 250 249 254 258 259 260 261 261 261 260 259 258 256 256 255 250 252 253 256 257 259 259 260 261 261
256 256 257 255 254 252 251 250 251 249 249 247 247 249 265 259 254 252 250 251 254 258 257 258 260 259 259 259 258 257 255 257 256 250 250 251 254 256 257 258 260 260 260
254 253 252 252 253 250 248 249 248 248 247 246 248 247 263 249 248 250 251 249 252 256 257 258 257 255 258 258 258 257 256 256 254 249 250 253 254 253 257 257 259 259 258
254 253 251 248 249 250 249 246 247 247 247 246 246 248 246 247 247 249 250 252 252 255 256 257 257 255 257 257 258 257 256 256 255 249 249 252 251 251 255 256 259 257 253
252 250 250 248 249 247 247 247 247 249 248 247 246 248 249 248 249 250 251 252 251 251 254 256 257 256 257 257 256 255 255 254 252 248 249 253 254 252 255 256 258 255 253
249 249 249 249 247 248 247 246 247 245 246 247 249 247 247 249 250 250 251 251 252 250 252 255 256 256 255 255 255 254 253 255 252 249 246 248 252 253 254 256 258 256 249
248 250 249 248 246 245 245 246 246 247 247 249 249 249 249 250 251 251 251 251 251 251 252 254 255 255 255 255 254 255 254 256 253 252 250 249 252 254 256 258 257 255 253

GFSGL_sfc_thetae_066.txt.gz
Theta_e
286 285 284 284 283 282 281 281 280 280 279 279 279 279 279 278 278 277 277 277 276 276 276 276 276 276 275 274 275 275 274 273 271 272 274 274 274 274 275 275 276 275 276
285 284 284 283 282 281 281 280 280 279 279 279 279 279 278 278 277 276 276 276 275 275 276 275 275 277 274 274 274 273 273 273 271 270 273 273 273 274 274 274 276 277 276
284 284 282 282 282 281 280 280 280 279 279 279 279 278 277 277 277 276 276 276 275 275 275 275 275 275 274 274 273 272 272 274 272 271 271 273 273 274 274 275 275 275 277
284 283 282 282 281 281 280 280 279 279 278 278 278 277 277 277 276 276 276 275 275 275 276 276 275 274 274 273 273 273 274 272 272 271 271 272 273 274 274 273 273 275 275
283 283 282 282 281 280 280 280 279 279 279 278 277 277 276 276 276 275 275 275 275 275 275 276 275 275 277 276 275 273 273 271 271 271 271 272 272 273 272 273 272 273 275
283 282 282 281 281 281 281 280 279 279 278 278 277 276 275 276 280 281 277 275 276 275 274 274 275 274 275 278 279 279 278 271 266 266 271 272 272 272 272 272 273 271 268
283 282 282 282 281 281 281 280 279 278 278 277 276 276 275 275 281 282 282 276 275 275 274 274 275 275 274 273 276 278 278 279 279 277 273 272 272 272 273 272 271 270 269
283 283 282 282 281 281 280 279 279 278 277 277 276 276 275 275 281 283 282 276 275 275 274 274 274 273 273 273 273 272 273 274 275 276 275 274 274 276 273 272 271 269 269
283 282 282 282 281 280 280 279 279 278 277 276 277 275 275 274 281 282 281 276 275 274 274 274 273 273 275 278 275 272 273 274 278 279 279 279 278 277 275 271 265 265 264
283 283 283 283 282 281 281 280 279 279 278 277 276 275 274 274 279 282 281 274 270 273 273 274 276 273 277 278 275 272 270 272 272 269 270 271 272 270 273 271 269 265 265
283 283 282 283 283 282 282 280 280 278 276 275 274 272 272 271 272 280 281 275 273 271 271 272 273 277 278 279 280 275 273 274 269 265 266 266 267 268 269 270 270 268 265
282 282 282 283 283 282 282 281 278 277 275 273 271 269 269 270 272 277 279 280 279 271 271 272 272 277 278 279 279 280 280 278 260 257 258 263 265 266 268 269 269 269 269
282 282 282 282 282 282 280 276 274 274 274 272 270 269 267 269 270 276 278 279 279 277 276 275 277 278 279 279 280 280 275 264 260 257 260 264 266 267 268 267 267 268 268
281 279 277 277 274 274 274 274 273 271 270 268 268 267 264 266 266 267 268 269 273 275 275 271 274 278 279 277 271 274 270 268 266 263 263 265 266 264 263 265 264 265 264
273 271 271 271 271 268 269 268 269 265 268 265 265 264 262 260 265 271 268 264 264 269 271 267 261 267 268 269 267 267 267 267 265 265 262 261 263 264 264 264 264 263 262
270 269 269 268 267 268 268 266 274 273 275 275 274 267 263 272 275 277 278 279 279 280 276 271 269 268 268 268 269 269 266 265 265 264 261 261 262 262 261 262 263 261 261
268 267 266 267 266 265 264 265 264 267 276 277 276 275 274 274 275 276 277 277 277 276 270 269 269 269 267 268 268 267 265 265 264 263 263 261 262 261 260 260 261 261 260
264 264 264 263 263 262 262 260 260 259 258 258 266 269 270 270 271 271 272 270 257 258 254 258 259 261 263 265 266 265 264 263 262 261 261 260 258 258 258 258 259 259 259
262 261 261 260 259 260 260 258 257 254 252 252 254 261 260 266 267 267 267 251 249 249 249 253 254 258 261 262 262 262 261 259 260 258 257 257 257 256 256 257 259 259 259
259 260 260 260 258 258 257 257 255 252 251 249 248 249 249 252 251 249 248 246 246 247 249 250 253 256 259 259 258 258 257 257 257 257 256 255 256 256 257 257 258 258 258
258 257 258 256 255 254 253 254 254 251 248 246 247 247 264 253 248 245 245 245 246 250 251 250 256 258 257 257 257 256 256 257 258 257 255 253 255 255 256 257 257 257 259
255 254 254 254 255 255 253 252 251 249 248 246 246 245 262 247 244 244 244 246 248 249 251 251 256 251 252 256 256 256 255 255 257 256 254 254 254 254 255 256 256 257 257
254 254 253 251 252 252 251 248 248 247 247 245 245 246 245 244 244 244 246 248 248 249 250 249 252 252 250 255 256 257 256 256 257 256 253 253 253 249 253 254 255 255 253
254 254 254 252 252 252 253 251 248 249 247 246 244 244 245 246 246 247 248 248 248 249 249 250 250 251 251 252 253 256 256 256 255 253 252 252 251 246 250 252 254 256 256
254 254 254 255 254 253 251 250 250 246 245 245 246 245 244 246 246 247 248 248 249 249 250 250 250 250 251 251 254 255 255 257 256 254 251 249 246 245 245 249 253 255 253
255 255 254 252 252 250 250 250 248 247 245 247 248 247 247 248 249 249 249 249 249 250 250 249 250 250 250 251 252 254 255 258 256 254 250 246 246 246 247 251 252 255 255

GFSGL_sfc_thetae_069.txt.gz
Theta_e
288 288 287 285 284 283 282 281 280 280 280 280 280 279 279 279 279 278 278 277 277 276 276 276 276 276 275 274 275 274 274 273 271 272 273 274 273 274 275 276 276 276 276
288 287 286 284 283 281 281 280 280 280 280 280 280 280 279 279 278 278 277 277 276 276 276 275 275 276 274 274 274 273 273 273 272 270 272 272 272 274 274 274 276 277 276
286 286 284 283 281 281 280 280 280 279 279 279 279 279 279 278 278 278 278 276 275 275 275 275 275 275 274 273 273 272 272 274 272 271 271 273 273 274 274 275 275 275 277
286 285 283 282 282 281 281 280 280 279 279 279 279 279 278 278 278 277 277 275 275 275 276 275 275 274 274 273 273 272 273 272 272 271 271 271 273 274 274 272 272 274 274
285 284 283 283 283 281 280 280 279 279 279 279 278 278 278 277 277 277 276 276 275 275 275 276 275 275 278 276 274 273 273 271 271 270 270 271 272 272 271 272 271 273 273
284 283 283 282 281 281 280 280 279 279 279 278 278 277 277 277 281 282 278 275 275 275 274 274 275 274 275 279 280 281 277 271 265 265 271 271 272 272 272 272 272 270 268
283 283 282 282 281 280 280 279 279 278 278 278 277 277 277 276 283 284 282 276 275 275 274 275 275 275 274 274 277 280 279 280 280 275 273 274 272 273 273 272 271 270 269
282 282 282 282 281 280 280 279 279 278 278 277 277 277 277 277 283 284 283 276 275 275 275 274 274 274 274 273 273 272 273 273 274 275 275 275 274 275 276 274 271 269 269
282 282 282 282 281 280 279 279 279 278 278 277 278 277 277 276 282 284 283 277 276 275 275 274 274 274 276 279 275 271 272 274 278 280 281 281 281 279 277 272 264 262 264
282 283 283 283 282 280 280 279 279 279 279 278 278 278 277 277 281 283 283 277 274 275 275 275 277 274 277 279 275 270 270 272 273 272 273 274 274 271 274 271 269 264 264
283 282 282 282 282 282 281 280 280 279 278 277 277 276 277 276 275 282 284 277 276 274 274 274 274 278 279 280 281 275 274 276 274 275 269 268 268 268 269 270 270 269 265
282 282 282 282 282 282 282 281 280 279 278 277 276 274 273 272 275 279 282 283 280 274 273 274 273 278 279 280 280 280 281 281 272 265 262 263 265 266 268 269 269 269 269
283 283 283 283 283 283 282 281 279 280 279 277 274 274 271 271 272 278 279 281 281 279 276 275 278 279 280 280 281 281 279 272 265 261 263 265 266 267 268 267 267 267 267
283 282 282 282 282 282 283 282 280 277 277 276 273 273 269 269 269 270 270 270 273 273 273 268 273 278 279 278 276 275 275 272 268 268 266 266 266 264 263 265 264 264 263
280 277 279 280 278 275 274 274 274 272 276 273 271 270 268 266 268 271 268 262 262 267 268 261 261 266 269 269 269 269 269 269 268 268 267 264 263 264 263 264 264 261 260
271 271 271 271 270 270 270 269 275 275 277 276 275 270 263 272 275 277 278 279 279 279 275 270 268 267 267 268 268 268 269 267 268 268 266 264 263 262 261 262 263 261 259
270 268 268 269 269 268 268 269 269 273 278 278 278 278 276 276 275 275 275 275 273 266 255 254 256 259 261 263 264 266 267 268 267 266 265 263 263 261 260 259 261 261 259
265 265 266 265 265 264 264 264 267 267 264 259 268 270 272 272 271 271 271 264 254 254 248 249 250 251 254 258 259 261 263 264 263 263 262 261 260 259 256 258 259 258 259
263 261 261 260 260 261 260 259 259 258 256 252 254 260 259 268 269 268 264 249 247 247 246 247 247 248 251 254 258 260 259 260 261 260 258 258 257 256 255 257 258 259 259
259 261 260 260 259 259 258 258 256 255 254 253 251 251 248 252 250 248 246 245 244 244 245 245 247 247 249 253 256 252 252 252 257 257 257 257 256 257 257 257 258 258 257
258 257 258 257 256 255 255 256 256 255 255 254 253 251 261 252 249 246 246 243 243 243 244 244 246 247 247 250 248 250 249 254 254 256 257 256 255 255 257 258 258 257 257
256 255 255 255 256 256 254 255 255 255 253 252 250 251 263 250 245 244 242 242 243 243 244 244 246 247 250 249 249 251 252 252 254 257 257 256 255 256 256 256 256 256 256
255 254 253 252 253 254 253 252 253 253 252 253 252 250 246 244 242 242 243 242 242 243 244 242 244 248 249 248 248 252 254 251 255 256 256 255 255 255 254 254 254 254 255
254 255 256 253 252 251 252 251 253 254 253 252 249 247 245 244 243 243 243 243 242 245 243 243 245 247 249 249 249 250 253 253 254 255 255 254 254 254 252 252 250 253 254
252 253 253 254 252 251 251 252 253 251 251 251 248 244 243 243 243 243 243 244 244 243 246 246 246 247 248 249 250 248 249 255 254 255 254 252 252 252 249 244 245 249 253
251 251 250 250 252 252 252 251 250 251 249 247 246 245 245 245 246 245 246 246 247 247 248 248 248 248 249 249 249 252 253 257 255 255 252 251 251 248 241 244 244 248 251

GFSGL_sfc_thetae_072.txt.gz
Theta_e
290 289 289 288 287 285 284 283 283 282 280 280 280 280 280 279 279 279 279 278 278 278 278 277 276 276 275 274 275 274 274 274 271 273 273 273 273 274 275 275 276 276 276
288 288 288 287 285 284 284 283 282 281 280 280 280 279 279 279 279 279 278 278 278 277 277 276 275 276 274 274 274 273 273 273 272 270 272 272 272 273 274 274 276 277 276
287 286 286 285 284 284 282 282 281 280 279 280 280 280 279 279 279 279 279 278 277 277 276 275 275 275 274 273 273 272 272 274 272 271 270 272 273 273 274 274 274 275 276
286 286 285 284 284 283 282 281 281 280 279 279 280 280 279 279 278 278 277 277 277 277 276 276 275 275 274 273 273 272 273 272 272 270 270 271 272 273 273 272 272 274 274
285 285 285 284 284 283 282 281 280 280 280 280 279 279 278 278 278 277 277 277 277 276 276 276 275 275 278 276 274 273 272 271 271 270 270 270 271 271 271 272 271 272 273
285 284 284 284 283 282 281 280 279 279 279 279 278 278 277 278 282 283 279 277 277 276 275 275 276 275 276 280 281 280 276 271 264 266 269 270 272 272 272 271 271 271 268
284 284 283 283 282 281 281 280 279 279 279 278 278 278 277 277 284 284 282 277 277 276 276 276 275 276 275 274 278 281 281 282 281 274 269 272 273 273 273 272 272 271 269
283 282 282 282 282 280 280 279 279 279 278 278 278 278 278 277 284 285 283 277 276 276 276 276 275 275 275 274 273 273 274 274 275 275 275 275 274 275 275 275 273 268 270
282 281 281 282 281 280 279 279 279 279 278 278 278 277 278 277 284 285 284 279 277 276 276 275 275 275 277 280 276 273 273 274 277 280 281 281 282 282 282 274 261 259 265
281 282 282 282 281 280 280 279 279 279 279 278 278 278 278 278 284 285 284 279 277 277 276 276 278 275 278 280 277 274 272 273 274 273 274 276 278 274 277 274 270 262 264
282 281 282 282 281 281 281 280 279 279 278 277 277 277 278 278 279 285 285 279 279 277 276 275 276 280 281 281 282 277 275 277 276 275 273 272 271 270 270 271 270 269 266
281 281 281 282 281 281 281 280 279 279 278 277 277 276 276 277 279 282 284 285 282 277 276 275 275 279 280 281 281 281 282 282 279 273 268 268 268 268 269 269 270 270 270
281 281 282 282 282 282 280 279 279 279 279 277 277 278 275 274 275 281 281 283 284 281 277 277 279 280 281 281 282 281 280 278 274 269 268 268 269 270 269 268 269 268 268
282 282 282 282 281 282 282 281 280 279 279 279 277 278 276 273 273 273 273 274 276 276 273 270 273 277 278 277 271 273 273 274 274 272 271 271 269 266 265 265 263 262 261
283 281 282 282 282 281 277 280 280 278 281 279 279 278 273 271 271 273 272 267 266 269 265 262 263 265 266 265 264 265 265 265 267 268 269 268 266 266 265 265 264 258 257
277 278 278 277 276 275 274 273 278 278 279 279 279 274 269 274 277 278 277 277 278 278 268 262 259 260 262 262 262 263 264 266 267 267 267 266 265 265 263 263 263 257 256
270 269 271 273 273 272 272 273 272 277 279 278 278 277 275 277 279 279 279 276 274 267 255 252 254 256 256 258 257 258 260 262 264 264 264 264 264 263 262 261 261 260 259
265 266 266 267 267 268 268 268 271 272 270 265 275 276 277 276 275 275 274 267 256 255 248 249 249 249 251 252 253 254 257 258 258 259 261 261 261 261 259 259 259 258 258
264 262 262 261 262 263 263 262 262 263 261 258 259 261 261 273 273 270 265 254 249 248 246 246 245 246 248 248 250 252 253 252 253 252 253 255 258 257 256 257 258 259 259
259 261 261 261 260 260 260 260 258 258 257 256 253 252 250 256 252 249 246 245 245 245 244 245 245 244 244 245 247 247 246 247 248 248 250 251 252 255 257 256 257 258 258
259 258 259 258 258 258 257 258 257 256 255 255 254 255 260 255 251 248 247 243 244 243 244 243 243 242 242 243 243 244 245 248 247 249 250 250 250 251 255 257 257 258 258
256 256 256 256 256 256 254 255 256 255 255 256 252 249 267 248 247 249 246 244 242 243 243 242 242 243 245 244 244 244 245 246 245 247 251 251 251 253 255 256 256 257 257
255 254 254 252 253 254 252 251 253 254 253 253 252 250 247 246 246 243 242 242 240 240 240 240 242 244 244 244 244 246 247 248 248 249 252 250 251 253 254 254 255 255 255
254 254 253 251 251 251 250 249 250 251 250 248 247 247 248 246 243 243 242 242 240 241 240 241 243 244 244 245 243 243 245 248 246 251 252 253 251 252 254 254 254 254 254
251 252 253 252 253 252 253 251 251 248 248 249 248 249 250 248 245 244 244 242 242 241 244 244 244 245 246 247 246 244 246 253 249 250 247 248 248 249 252 249 250 244 246
253 254 253 253 252 250 250 252 251 253 253 253 254 253 252 250 249 249 246 244 245 246 246 245 245 246 247 247 248 250 251 256 253 252 249 248 248 249 245 244 240 242 244

GFSGL_sfc_thetae_075.txt.gz
Theta_e
295 293 292 291 291 289 288 286 285 284 283 282 282 281 282 281 282 282 281 281 281 280 281 280 279 279 279 279 279 279 278 279 278 277 278 278 278 278 279 279 280 279 280
293 292 291 289 288 287 286 285 284 283 283 282 281 281 281 281 281 281 280 280 280 280 279 279 278 278 277 278 278 277 278 277 277 275 275 276 276 277 278 278 278 279 279
291 291 289 288 287 287 286 284 283 283 282 281 281 281 281 281 281 281 281 280 280 280 279 278 278 278 277 277 277 277 276 276 276 276 275 276 276 277 277 278 278 278 278
290 290 288 287 287 287 285 284 283 282 281 281 281 280 280 280 280 280 279 279 279 279 279 279 278 278 277 277 276 276 276 275 275 274 274 274 275 276 277 276 276 278 277
288 288 288 287 286 285 284 283 282 281 281 281 280 280 280 280 280 279 279 279 279 278 278 278 278 278 279 278 277 276 276 275 275 274 273 274 274 274 274 276 275 276 276
287 287 287 285 285 284 283 282 281 280 280 280 280 279 279 279 283 283 280 279 278 278 277 277 277 278 278 281 281 280 278 275 274 274 274 273 274 275 276 275 275 273 272
286 286 285 284 283 283 282 281 280 280 280 279 279 279 279 279 285 284 282 279 279 278 277 277 277 277 277 277 281 283 283 283 281 277 275 275 275 276 276 275 275 274 273
285 284 284 283 282 282 281 281 280 280 279 279 279 279 279 279 285 285 282 279 279 278 277 277 277 277 276 276 276 275 276 276 277 278 278 278 277 277 277 277 276 274 273
283 283 283 282 281 281 281 280 280 279 279 279 279 279 279 279 285 286 283 279 279 278 277 277 277 277 278 281 277 275 276 276 278 281 281 282 283 283 283 279 272 271 272
282 282 282 282 281 280 281 280 280 280 279 279 279 279 279 279 286 286 285 281 280 279 278 277 278 277 279 281 279 277 275 276 276 276 276 278 280 279 281 279 276 272 270
281 281 280 281 280 280 280 281 280 279 279 278 278 278 278 279 283 287 287 282 281 280 279 278 278 281 282 282 282 279 277 279 279 278 277 276 275 275 275 275 274 273 270
280 280 281 281 281 281 280 279 280 279 278 277 277 277 278 278 281 286 288 285 284 280 279 278 278 281 281 282 282 282 283 282 281 280 275 273 272 272 273 273 273 273 272
278 280 280 280 281 281 280 279 279 279 278 277 277 276 276 276 278 284 286 287 287 282 280 279 280 280 281 281 280 281 278 276 275 273 272 272 272 273 273 272 271 271 271
281 281 281 280 280 280 281 280 280 279 278 278 277 278 277 276 277 278 280 283 283 283 280 277 277 277 277 275 272 272 272 272 271 270 270 271 272 270 269 270 268 267 266
282 281 281 281 281 281 280 281 280 281 281 279 280 281 278 277 277 278 278 276 274 275 269 269 270 269 269 268 267 267 268 268 267 268 268 268 269 269 268 268 267 266 264
280 280 281 281 279 277 276 277 282 282 284 284 284 281 276 279 280 281 280 279 278 278 268 267 265 265 266 265 264 263 264 263 264 265 265 265 265 265 266 266 265 264 262
279 277 277 277 276 275 275 276 275 278 281 280 281 280 279 278 280 280 280 279 280 273 264 263 263 263 262 261 261 261 261 262 262 262 262 262 263 263 263 263 262 262 261
272 275 277 276 275 275 275 276 276 274 273 273 278 277 279 280 280 280 280 272 264 262 260 259 259 258 258 258 258 258 259 260 260 260 260 260 260 260 260 260 260 260 260
266 265 266 267 270 271 271 271 271 268 267 263 265 268 268 278 277 272 271 261 262 259 256 256 255 255 256 256 256 256 256 257 256 256 256 256 257 257 258 258 259 259 259
260 262 262 263 263 264 265 265 264 264 262 262 262 261 258 263 260 257 256 257 257 256 254 255 253 253 253 254 254 254 254 254 255 254 255 255 256 256 257 257 257 258 258
259 259 260 260 260 260 262 263 262 262 261 259 257 255 262 259 257 256 255 254 254 253 253 253 252 251 251 251 251 251 251 254 253 252 253 255 255 255 255 257 257 258 258
257 256 257 256 257 258 256 257 258 258 257 257 254 255 269 256 255 252 251 251 251 251 251 252 251 250 251 250 251 251 251 252 252 251 252 253 254 255 255 256 256 257 257
256 256 255 254 255 255 254 254 255 256 255 255 255 255 255 254 253 252 251 251 250 251 248 247 248 248 248 247 249 251 251 252 252 252 252 253 253 254 254 255 255 255 255
254 255 254 252 252 252 253 252 253 253 255 254 254 254 254 252 252 253 253 252 250 249 248 248 248 249 248 248 248 248 249 250 250 250 251 252 252 252 254 254 254 254 254
253 253 253 252 251 251 252 253 255 255 255 254 253 253 252 252 252 252 252 252 252 251 250 249 248 248 248 249 248 248 248 253 253 250 250 251 251 250 250 252 252 252 250
251 252 253 253 254 253 252 253 252 253 253 254 253 254 254 254 254 254 253 251 251 250 250 249 248 248 248 249 249 250 250 254 252 251 251 250 250 249 249 249 249 248 248

GFSGL_sfc_thetae_078.txt.gz
Theta_e
303 303 302 301 300 297 294 294 290 288 285 284 284 284 285 284 286 286 288 288 287 286 286 286 284 285 284 283 282 282 282 282 282 280 281 283 281 282 282 283 283 283 283
302 302 301 300 297 294 292 291 289 287 285 284 284 283 283 284 286 284 286 286 285 284 284 284 283 282 282 281 281 281 281 281 282 280 281 280 280 282 282 282 281 281 282
301 300 299 297 294 292 291 289 288 286 284 283 283 282 282 282 283 284 283 286 285 284 284 283 282 281 279 280 280 280 280 279 280 280 280 279 280 281 281 282 282 282 282
299 298 297 296 294 292 290 287 286 285 283 283 283 282 281 281 281 282 282 283 284 283 284 283 282 281 280 279 279 280 279 279 279 279 279 278 279 280 279 279 280 282 281
296 296 296 295 294 291 288 287 286 285 284 283 282 281 281 280 280 280 281 282 283 282 282 282 281 281 282 281 279 280 279 279 279 278 278 278 278 278 278 280 278 280 281
295 295 295 294 291 289 287 286 285 284 283 282 281 280 280 280 284 284 282 282 281 281 280 280 280 280 281 282 282 282 281 280 279 279 279 278 278 278 279 279 278 277 276
293 293 292 290 288 288 286 285 285 284 282 281 281 280 280 280 285 285 283 281 281 281 279 279 279 279 279 280 283 283 282 282 281 279 279 279 279 280 280 278 278 277 277
290 289 289 288 287 286 284 283 283 282 282 281 280 280 280 280 286 285 283 281 281 280 280 280 280 279 279 278 279 279 279 279 281 282 282 282 281 281 280 279 279 279 279
288 288 287 287 286 285 284 283 283 282 282 282 281 280 280 281 286 285 282 281 281 280 280 281 280 279 280 281 278 277 278 278 280 281 282 283 283 284 283 282 280 276 275
287 287 287 286 285 284 284 284 284 282 281 280 280 280 280 281 286 286 282 281 281 280 279 279 280 280 280 282 281 280 278 279 279 279 279 280 281 281 282 281 280 277 277
286 285 285 285 284 284 284 284 282 281 280 279 279 279 280 282 285 286 285 282 283 281 280 279 279 282 281 282 283 281 280 281 281 281 281 280 280 279 278 279 278 277 275
284 284 283 283 284 284 283 282 282 281 280 280 280 279 280 281 284 286 287 285 286 284 282 282 281 283 284 284 284 284 283 283 283 281 279 278 277 276 276 276 276 275 276
282 281 282 283 283 283 282 282 281 281 280 279 279 278 278 279 282 286 287 287 287 284 284 282 282 283 284 284 283 281 277 278 277 276 275 275 275 275 274 274 274 274 273
281 281 282 282 282 282 283 282 282 281 281 279 279 279 278 278 280 283 285 286 286 285 284 283 282 282 281 276 276 275 275 274 273 273 273 273 273 272 271 272 270 270 269
282 282 282 283 283 282 282 282 282 283 283 282 282 282 280 278 280 282 283 283 284 283 277 276 275 275 274 273 272 271 271 271 270 270 269 269 269 269 268 269 268 268 266
282 283 283 282 282 281 281 281 283 283 284 284 284 284 284 284 284 283 283 284 283 281 276 275 274 274 273 272 271 269 268 266 267 267 267 266 266 266 266 266 266 265 264
283 283 282 281 280 279 279 280 279 282 284 284 285 285 283 283 284 284 284 284 282 281 275 274 273 272 271 269 267 266 266 265 264 265 265 265 264 264 263 264 264 263 263
283 281 282 280 280 280 280 280 280 279 278 278 281 281 281 282 283 283 283 279 273 272 272 272 271 269 267 266 265 264 264 263 264 264 263 263 262 262 262 262 262 261 261
279 279 280 280 279 279 279 279 279 278 277 275 277 275 279 281 281 282 278 274 272 270 268 268 267 265 264 264 263 262 262 262 262 261 261 261 261 261 260 261 261 260 260
271 271 275 275 274 275 276 275 275 274 273 274 275 274 272 272 271 268 267 267 268 268 265 265 263 262 262 262 261 261 261 259 260 260 260 260 260 260 260 260 260 260 260
270 269 268 272 273 273 273 273 273 272 271 271 272 267 268 272 269 267 265 264 264 263 262 262 261 260 260 260 260 260 259 260 260 259 259 259 259 258 259 260 259 259 259
269 269 270 270 269 269 270 271 270 270 269 268 266 266 272 267 265 264 263 262 261 262 261 261 260 260 259 259 259 259 259 258 259 258 258 258 258 258 258 259 258 259 259
267 267 266 265 265 263 265 265 266 267 266 266 265 264 265 265 263 262 261 260 259 258 257 257 259 257 257 256 258 259 258 258 258 259 258 258 257 258 258 258 258 257 257
265 265 264 263 264 264 264 264 263 262 264 264 263 263 263 262 261 260 259 259 258 258 257 255 256 256 257 256 256 256 256 256 257 256 256 256 257 257 256 257 257 257 256
263 263 263 263 262 263 261 262 263 262 262 261 261 261 260 260 259 259 259 258 257 257 256 255 255 255 255 254 255 255 255 256 256 255 255 255 255 255 255 255 255 256 255
260 261 260 260 260 261 261 261 261 261 260 260 260 259 259 259 259 259 258 257 257 257 257 257 256 255 255 255 255 255 254 256 254 253 255 255 255 255 255 254 253 254 254

GFSGL_sfc_thetae_081.txt.gz
Theta_e
307 306 307 307 308 308 306 304 301 298 293 291 289 287 287 288 289 291 290 290 289 288 288 287 286 286 285 285 284 284 284 285 283 280 283 284 282 282 282 282 283 282 282
306 305 305 305 304 303 302 300 296 292 289 288 286 285 285 286 287 289 288 288 287 285 285 285 284 284 283 283 283 283 282 283 283 280 280 281 280 282 281 281 281 281 281
304 303 303 302 302 300 299 297 292 289 287 286 285 284 284 284 285 284 285 285 285 285 284 283 283 283 281 282 282 281 281 280 280 281 280 280 280 281 280 281 281 281 282
302 302 301 301 300 299 297 293 290 288 286 285 285 284 283 283 284 283 283 283 283 283 283 283 283 282 281 281 280 280 280 279 279 279 280 279 279 280 279 278 280 281 280
301 300 300 300 299 297 293 290 288 286 285 284 283 282 281 282 282 282 282 282 282 282 282 282 283 283 283 282 280 280 279 280 279 279 279 278 278 278 278 280 278 279 280
299 298 298 297 293 292 290 287 286 284 284 283 282 281 280 281 285 285 283 282 282 282 281 281 282 281 282 283 283 283 282 281 280 280 279 278 279 279 279 279 278 277 275
295 294 293 293 291 290 288 286 285 284 283 282 282 281 281 281 286 286 285 282 281 281 281 280 280 280 281 281 283 283 282 283 283 281 279 279 279 280 280 278 278 277 276
291 291 291 290 289 288 287 286 285 284 283 282 282 282 281 281 286 286 284 282 282 281 281 280 281 280 279 280 281 281 281 281 282 282 281 281 282 281 280 279 277 277 279
289 290 289 288 287 287 285 285 285 284 282 282 282 281 281 281 286 286 283 281 281 280 280 282 283 280 282 282 279 278 279 279 280 282 283 283 284 284 284 282 279 278 275
288 289 289 287 286 285 285 284 284 284 282 282 281 281 281 282 286 286 283 282 280 280 280 282 282 281 283 284 280 279 278 279 279 279 279 280 281 281 282 280 279 276 275
287 287 286 286 285 285 285 284 283 283 282 281 280 280 281 284 285 286 284 282 281 281 280 280 280 284 284 284 283 281 281 282 281 280 279 279 279 279 278 278 278 276 272
285 285 284 284 285 285 283 283 282 281 279 279 279 279 280 282 285 287 285 284 285 283 282 281 281 284 285 284 284 284 284 284 282 281 279 277 277 277 276 275 275 274 274
282 281 282 283 284 284 283 281 281 281 280 280 280 279 279 281 284 287 287 285 285 284 285 284 284 285 285 286 286 285 281 280 278 276 276 275 274 274 274 272 273 272 272
281 282 282 282 282 283 283 283 282 281 281 280 280 280 279 279 281 284 285 286 284 286 285 284 284 284 284 281 278 278 277 276 273 272 272 272 272 270 268 269 267 267 266
282 282 283 283 283 282 282 283 282 283 283 281 281 281 280 278 279 283 285 285 285 285 283 282 281 278 275 275 274 274 272 271 270 270 269 268 268 268 267 267 266 264 262
282 282 282 282 282 281 281 281 284 284 284 285 285 284 283 284 284 283 285 286 287 285 279 277 276 275 275 273 272 270 270 266 268 268 266 266 265 265 264 264 265 261 260
283 283 283 281 281 280 280 280 279 282 284 284 284 285 285 284 285 284 284 285 286 285 279 278 276 275 275 273 271 269 267 267 265 266 265 264 264 263 262 261 262 262 259
284 283 283 282 282 281 281 282 281 279 278 279 282 283 284 283 284 285 285 285 282 283 277 276 275 274 272 270 268 266 265 264 264 264 263 262 260 260 259 259 260 257 257
281 282 283 282 282 282 282 281 281 281 279 278 277 278 280 283 284 285 286 278 275 273 273 273 272 270 268 266 265 265 264 263 262 261 260 258 258 257 256 257 258 258 257
275 276 279 279 279 279 279 279 278 278 276 276 277 276 273 276 273 270 271 273 272 272 269 268 266 265 264 264 263 262 261 259 258 258 258 258 257 257 256 255 256 256 256
273 273 274 276 276 276 276 276 276 275 275 275 275 272 273 274 272 269 267 267 267 266 265 264 262 262 262 262 261 260 260 260 259 258 259 258 256 255 255 257 256 255 255
272 272 273 272 272 273 274 274 274 274 273 273 268 269 272 270 268 266 265 263 262 262 262 262 262 261 261 260 260 260 259 258 258 258 258 256 255 254 254 255 254 256 255
270 269 268 267 266 266 268 269 270 270 269 269 267 267 268 266 265 264 263 261 259 259 259 260 260 258 258 258 260 260 259 258 259 258 255 255 255 254 254 254 254 253 253
268 267 266 266 266 267 267 266 265 264 266 266 265 265 265 264 263 261 260 259 258 258 257 255 256 256 256 256 257 256 256 256 257 256 253 254 253 253 252 252 252 252 253
265 265 264 265 264 264 265 264 264 264 264 263 263 263 263 263 262 261 261 259 257 258 257 256 256 255 255 255 255 256 256 258 255 255 254 253 251 250 249 249 249 250 250
262 262 262 262 262 262 262 262 262 262 261 261 261 260 260 259 259 259 258 257 257 257 257 257 256 255 255 255 255 256 257 258 255 256 254 254 253 253 249 249 248 248 248

GFSGL_sfc_thetae_084.txt.gz
Theta_e
302 302 302 302 302 303 302 301 298 296 293 292 290 291 291 292 294 295 294 294 295 294 291 289 286 285 284 283 283 282 281 281 277 276 279 280 280 280 281 281 281 281 281
301 301 300 301 301 300 299 297 295 293 290 289 288 287 288 289 290 291 290 291 291 288 287 286 284 285 283 282 282 280 280 280 280 276 277 278 278 281 281 280 280 280 280
300 299 299 298 298 298 297 295 292 289 287 286 286 287 286 287 288 290 289 288 289 287 286 285 284 283 281 281 281 280 279 280 280 279 277 278 279 279 279 279 279 279 281
299 298 297 297 297 296 295 292 289 287 285 284 285 285 284 285 285 285 285 285 284 284 284 283 282 282 281 280 280 279 279 279 279 278 278 277 278 279 278 277 278 279 279
298 297 297 296 296 295 291 288 286 285 285 284 284 283 283 283 283 284 284 284 283 283 283 283 282 282 283 282 280 279 279 278 279 279 278 277 277 277 277 278 277 278 279
297 296 295 293 292 290 288 286 285 284 283 283 283 282 282 282 286 287 284 283 283 282 281 281 282 282 284 285 284 284 282 280 278 279 279 278 278 278 278 278 278 276 274
292 291 290 290 289 288 286 285 284 283 282 282 282 281 281 281 287 287 285 283 282 282 281 281 281 281 281 282 285 285 284 285 284 282 279 279 278 279 279 279 278 277 275
288 287 287 287 287 286 285 284 282 282 281 282 282 282 281 281 287 287 285 282 282 282 281 281 280 280 281 281 281 281 280 281 282 281 280 280 281 281 280 279 277 276 276
286 286 285 285 284 284 283 282 282 282 283 282 282 281 281 281 287 287 284 282 281 281 281 281 281 280 283 284 281 280 280 280 284 285 284 284 284 284 283 279 276 273 273
286 286 285 284 284 283 282 281 279 283 283 282 281 281 281 282 287 287 284 282 280 279 280 281 282 282 285 285 280 279 277 278 278 279 280 281 282 281 282 279 276 270 270
283 282 282 282 280 281 280 278 278 280 281 280 280 280 281 282 285 287 285 282 281 279 279 280 283 286 287 286 283 279 279 281 281 279 278 278 279 278 277 277 277 273 267
280 279 277 276 280 279 278 276 277 279 280 279 279 278 280 282 285 287 287 284 283 279 279 281 282 286 286 287 285 283 284 284 280 279 278 277 276 275 275 274 274 273 273
276 275 276 276 278 279 278 276 275 274 275 275 276 277 278 279 283 287 286 285 285 282 282 282 284 286 287 287 286 285 283 283 280 277 275 274 273 272 272 270 271 270 270
274 275 276 278 275 275 278 277 278 276 277 277 276 277 277 278 281 284 284 284 284 284 285 284 285 286 286 284 282 284 277 276 275 274 272 270 269 266 264 266 263 264 261
277 277 278 277 277 277 277 277 279 278 281 279 278 278 277 277 280 284 285 283 283 284 282 283 282 280 275 275 274 273 271 271 270 270 267 264 266 266 265 264 263 259 257
277 278 279 281 280 279 279 279 284 284 285 285 284 281 277 281 283 285 286 286 286 286 282 280 276 275 274 272 271 270 270 269 269 267 263 264 264 263 261 261 262 256 255
281 280 279 279 279 279 278 278 277 280 284 284 285 285 284 284 284 285 286 286 287 286 281 279 277 276 274 272 271 269 268 267 266 264 262 262 262 261 260 258 259 258 255
283 282 281 280 279 279 279 278 279 278 278 277 282 283 284 284 285 285 285 286 283 284 280 280 278 276 275 273 270 267 265 264 260 261 261 259 258 257 255 255 257 253 253
280 280 280 280 280 280 279 279 279 279 277 276 276 278 278 283 284 285 285 282 281 279 275 275 273 271 269 268 267 264 263 260 259 261 260 258 256 253 251 253 255 256 254
275 278 279 278 279 278 278 277 277 276 275 275 275 273 272 276 273 270 270 273 272 271 270 269 268 267 264 262 260 260 259 259 261 260 256 255 254 254 253 252 251 252 250
273 273 276 276 276 276 276 276 275 275 275 275 271 273 276 268 270 268 267 267 268 266 263 261 257 257 257 258 258 258 260 259 256 255 254 254 254 253 252 255 252 250 250
271 271 271 271 272 273 273 273 273 273 273 271 267 267 273 265 262 260 258 256 255 255 255 257 255 256 257 260 261 260 259 258 256 256 256 254 253 252 251 251 250 251 250
268 267 266 265 265 266 266 267 268 268 267 264 262 263 264 262 261 257 256 253 253 252 251 253 253 255 255 255 255 258 258 258 258 258 257 256 254 253 250 250 250 250 249
266 265 264 264 265 264 263 261 261 263 263 263 262 263 263 261 260 257 255 254 256 254 254 255 254 255 254 252 252 252 253 254 256 257 256 255 255 255 253 249 249 251 252
263 263 262 261 261 262 262 261 261 260 260 260 259 258 258 259 259 258 258 257 256 256 255 254 253 253 254 253 253 253 254 260 253 255 254 255 255 254 254 252 251 251 249
260 259 259 260 260 260 259 259 258 257 256 256 256 255 255 255 255 254 253 252 252 252 251 253 254 254 254 254 254 256 257 260 257 257 255 255 254 254 252 252 252 250 249

GFSGL_sfc_thetae_087.txt.gz
Theta_e
301 301 301 301 301 301 300 300 299 297 295 293 293 295 296 296 297 298 297 296 296 295 296 294 292 289 288 287 286 286 284 282 280 278 280 281 280 280 281 281 281 281 281
300 300 300 300 299 299 299 299 296 295 292 291 290 289 291 293 294 295 293 295 294 293 293 292 290 289 287 287 285 284 283 282 280 278 278 279 278 279 279 279 280 281 281
299 299 298 298 297 297 297 296 293 292 290 288 287 287 287 290 290 292 292 291 292 292 291 289 286 285 283 282 282 282 282 281 280 279 277 278 278 279 279 279 279 280 281
298 298 297 297 296 296 296 294 291 290 287 286 286 285 285 286 288 288 288 288 288 287 286 286 284 284 282 282 282 281 281 280 280 278 277 277 277 279 279 278 278 280 280
297 296 298 295 295 294 292 290 288 287 286 285 284 284 284 285 286 286 286 286 285 284 284 284 284 284 285 284 282 280 280 279 279 279 277 277 277 277 277 279 278 279 279
295 295 295 292 291 290 290 288 286 285 284 284 283 283 283 284 287 289 287 285 284 284 282 283 283 283 284 286 285 284 282 280 279 279 279 278 278 279 279 278 278 277 275
290 290 290 290 289 289 288 286 285 284 283 282 282 282 282 283 288 289 288 284 284 283 283 282 282 283 283 283 285 285 285 286 285 282 280 280 279 280 279 279 279 278 276
287 286 287 287 287 288 286 285 283 282 281 281 281 283 282 282 288 289 287 284 284 283 283 282 282 281 282 283 282 282 283 284 284 283 282 281 281 281 281 281 279 278 277
286 286 285 284 285 284 284 283 281 279 279 279 283 282 282 281 287 289 286 282 282 282 282 283 282 281 284 285 281 281 280 281 285 285 283 284 285 285 282 279 275 274 272
284 285 285 283 283 283 283 281 278 277 280 282 282 282 282 282 287 289 286 282 281 280 281 281 282 281 285 285 283 281 279 280 280 280 281 283 284 283 285 281 278 272 271
282 282 281 281 279 280 278 277 276 279 282 281 281 281 281 282 285 288 287 282 281 279 280 280 281 285 286 287 285 282 281 281 281 278 279 279 279 279 278 278 277 273 267
279 278 276 274 277 277 275 272 274 280 281 280 279 279 280 281 284 288 287 284 284 280 280 280 282 286 287 288 284 285 285 282 279 278 277 277 277 277 276 274 274 273 273
274 273 272 273 274 273 274 273 274 277 280 278 278 278 278 280 283 287 288 286 286 281 281 283 285 287 288 288 286 285 284 281 279 277 276 275 275 275 273 271 270 270 270
273 274 274 275 275 275 276 276 275 274 275 276 277 277 277 279 281 283 285 284 284 282 282 283 285 286 286 285 284 285 282 282 279 277 275 272 272 270 266 265 263 263 260
275 275 276 277 278 277 276 276 277 276 278 278 279 279 277 277 280 283 284 283 283 283 281 282 282 283 282 280 279 277 276 276 275 273 272 269 269 268 265 264 263 257 257
277 276 277 279 279 279 279 279 284 284 285 284 283 281 279 281 283 284 287 286 285 286 282 281 281 281 279 277 275 273 272 272 272 270 270 269 267 265 263 263 261 256 255
281 280 278 278 278 278 278 278 278 281 285 285 285 284 283 282 283 285 286 286 286 286 280 280 279 278 274 272 272 271 270 271 270 270 268 267 265 264 263 260 260 258 254
279 281 280 279 279 279 278 278 277 278 278 277 283 283 285 284 285 285 286 286 284 284 281 279 279 277 275 274 272 271 269 268 267 266 266 264 262 261 257 258 259 254 253
278 280 280 280 279 280 279 278 278 278 277 275 276 279 278 283 284 286 286 283 278 281 280 279 279 277 276 275 273 271 269 267 266 264 261 260 259 257 252 256 256 256 254
276 279 279 279 278 278 278 277 276 276 276 276 275 274 274 277 276 271 274 277 273 272 272 273 271 270 271 270 265 263 262 262 261 261 258 259 259 258 256 254 254 252 252
274 275 277 276 276 276 276 276 275 275 275 274 272 274 277 274 272 272 271 271 272 272 271 269 266 265 264 263 261 259 259 258 256 259 259 259 256 256 255 256 254 253 253
271 272 272 272 273 273 273 273 274 273 273 270 268 270 272 264 264 265 264 263 262 261 261 261 260 259 257 258 257 258 258 259 259 259 258 257 256 255 254 255 254 255 254
268 268 267 267 268 269 268 268 269 269 268 266 265 263 263 263 262 261 260 257 256 256 254 255 256 252 251 253 255 260 260 259 259 257 256 256 256 256 255 256 256 255 255
266 265 265 265 265 265 264 263 263 264 262 261 261 261 261 261 259 258 256 254 254 253 254 254 254 255 254 252 253 254 256 256 257 258 258 257 256 256 255 255 255 256 256
263 263 262 262 261 259 257 257 258 257 258 259 258 258 258 259 259 257 256 256 256 256 256 256 256 257 256 255 254 253 252 260 254 256 256 255 253 254 255 255 255 256 256
261 261 260 259 258 257 257 256 254 255 254 255 256 256 256 256 255 255 255 254 253 252 251 251 251 251 249 250 250 252 255 259 254 256 253 254 254 254 255 255 255 255 255

GFSGL_sfc_thetae_090.txt.gz
Theta_e
299 299 300 300 301 300 300 300 299 297 296 295 295 299 300 300 301 301 301 299 297 297 297 296 296 297 294 290 288 287 285 285 283 279 281 282 281 281 281 282 282 282 282
299 299 299 299 299 298 298 298 297 296 294 294 292 294 296 297 298 298 298 298 296 295 295 295 294 295 291 290 287 286 286 284 282 278 279 279 280 281 281 280 280 281 281
297 297 297 297 297 296 296 296 295 294 293 291 290 289 289 292 294 295 296 295 295 296 295 293 293 290 288 287 287 286 285 283 282 280 278 279 279 280 279 278 279 280 281
297 296 296 296 296 296 295 295 293 292 291 288 288 288 287 287 288 290 290 292 292 292 292 292 291 289 288 286 285 285 283 282 281 280 278 278 278 279 279 278 278 280 280
295 295 296 295 294 295 293 291 290 289 288 287 286 285 285 285 286 288 288 289 289 288 287 287 287 287 287 287 285 283 283 282 281 279 277 278 277 277 277 279 279 279 279
292 292 293 292 290 290 290 289 288 288 286 285 284 284 283 285 288 290 289 287 287 286 285 284 284 284 285 288 287 287 286 282 279 279 278 277 278 279 279 279 278 277 276
287 287 287 287 287 288 288 288 287 286 285 284 284 282 282 283 288 290 290 286 286 285 284 283 283 284 284 285 287 288 287 286 284 283 280 281 279 280 280 279 279 278 277
285 285 285 285 285 286 286 286 285 284 283 283 282 281 282 284 288 289 289 285 285 284 284 283 283 282 284 284 283 282 282 284 285 285 284 283 282 282 282 281 280 279 278
284 284 284 284 283 284 284 284 281 279 279 279 280 280 283 284 287 289 289 283 283 283 283 283 283 283 285 286 282 281 282 283 286 287 286 286 286 286 283 281 276 275 274
283 284 283 282 280 281 282 280 278 276 280 279 279 279 283 284 286 288 289 283 282 282 282 282 283 283 287 287 282 281 281 281 282 282 282 284 285 285 285 280 278 274 272
281 281 281 281 279 279 278 276 274 274 279 282 282 282 282 283 283 288 290 283 282 281 281 281 282 286 287 287 284 283 283 282 283 281 281 281 280 280 280 280 279 275 270
279 278 277 276 277 278 272 272 272 281 282 281 280 280 280 281 283 286 289 286 284 281 280 280 281 286 287 287 285 286 287 283 281 278 277 277 277 276 277 276 275 273 273
273 274 272 273 274 275 272 273 277 280 281 279 279 279 278 279 281 286 288 288 285 281 281 282 283 286 287 287 287 287 284 280 279 277 276 276 276 276 275 272 271 270 270
274 275 275 274 275 273 276 276 277 278 279 279 279 278 278 279 280 282 284 286 284 283 283 283 284 285 286 286 284 285 282 279 279 277 275 273 273 273 270 268 265 264 261
276 275 276 275 274 277 278 277 278 275 276 277 279 279 278 278 280 283 285 283 283 281 281 282 282 282 283 282 283 282 281 279 278 274 273 270 271 271 268 265 264 259 258
278 275 275 275 274 276 273 276 283 283 283 284 284 282 280 282 283 285 286 286 285 284 279 279 280 282 281 279 278 275 275 277 277 274 273 271 270 269 267 264 263 257 257
272 278 275 274 273 274 275 274 275 281 286 286 286 285 284 282 284 284 285 287 286 285 280 280 280 280 275 277 276 274 273 274 273 273 272 271 270 268 266 264 261 260 259
271 275 279 278 272 273 275 274 277 278 277 277 282 285 285 284 285 285 286 286 283 284 280 279 279 277 275 275 274 272 270 270 271 270 270 269 268 266 263 262 262 260 259
270 273 279 277 275 274 277 277 277 277 277 276 277 280 278 284 285 285 286 283 282 281 279 278 278 277 276 275 273 272 272 270 270 268 268 266 264 263 261 262 262 260 257
270 273 278 275 275 275 278 277 276 276 274 275 275 274 275 276 276 275 276 278 277 276 278 279 278 276 276 275 273 272 270 268 267 266 265 264 262 263 262 260 260 257 256
270 273 276 276 275 275 276 276 275 275 274 273 272 274 278 274 273 273 272 271 271 271 271 272 271 269 267 268 267 265 265 265 264 263 262 261 260 259 260 261 259 257 256
269 269 272 272 273 273 274 274 274 274 272 271 269 269 273 268 268 268 267 265 264 264 263 265 263 262 261 262 262 261 261 260 259 260 261 261 260 259 258 257 257 257 256
267 268 269 268 269 270 269 269 270 269 268 267 266 264 264 263 262 261 260 259 259 258 258 259 260 256 254 253 255 258 259 260 261 261 260 259 258 257 256 257 256 254 255
265 266 265 265 266 265 265 264 264 264 264 263 262 262 262 261 260 260 259 258 257 256 255 255 255 255 256 258 258 258 258 257 257 258 258 257 256 256 255 252 255 254 255
263 263 262 262 262 262 262 261 261 260 259 258 258 257 257 257 257 255 255 256 257 255 255 254 253 252 253 254 252 251 252 259 253 255 252 252 253 254 255 255 253 253 254
261 261 260 261 260 260 260 259 259 259 259 258 258 257 255 254 254 253 252 251 251 251 250 249 249 249 249 248 248 251 253 258 252 253 249 250 250 250 250 251 253 254 254

GFSGL_sfc_thetae_093.txt.gz
Theta_e
298 298 298 298 299 299 299 299 298 297 297 296 296 299 301 301 303 303 303 303 300 300 299 298 297 298 298 296 292 291 291 292 291 281 283 282 282 282 282 284 284 283 284
297 297 297 297 297 297 297 297 296 296 295 295 294 294 298 299 300 300 300 301 298 297 297 296 296 297 296 295 290 289 289 289 289 280 280 281 281 282 282 282 282 282 281
296 296 296 295 296 296 296 296 295 295 294 292 292 291 294 295 296 297 298 298 298 298 297 294 295 294 293 292 289 289 288 287 287 281 279 280 279 282 281 282 280 280 281
294 294 294 294 294 295 295 294 293 293 293 291 290 290 289 291 291 291 291 293 294 295 294 294 294 293 293 290 288 288 286 285 284 283 279 279 279 280 280 278 278 280 280
291 292 292 292 293 292 292 291 290 290 289 289 288 287 287 287 287 286 288 290 290 291 290 290 291 291 290 290 288 286 285 285 282 280 279 278 278 277 277 279 278 279 280
288 288 289 288 287 287 288 288 288 288 287 287 286 286 286 286 289 291 289 287 288 288 288 287 286 286 287 290 290 290 287 284 282 281 280 278 277 278 279 278 278 277 276
285 285 285 285 285 286 286 286 286 287 286 286 285 284 284 284 289 291 290 286 287 287 287 286 284 285 285 286 289 290 289 290 288 283 279 279 278 280 280 279 280 279 278
284 283 284 284 284 285 284 285 285 284 284 283 283 283 282 283 289 290 290 287 286 286 286 285 285 284 284 284 285 285 285 286 285 284 282 282 282 282 282 282 281 280 279
283 283 283 282 281 282 282 283 283 281 281 280 279 280 279 281 287 289 289 286 285 284 285 284 284 283 285 287 284 282 282 283 286 287 287 287 287 286 284 281 279 277 274
282 283 282 281 279 279 280 281 279 275 280 279 280 278 281 283 287 288 288 286 284 283 283 283 283 283 286 288 283 282 281 282 283 284 285 286 286 286 286 282 280 276 271
280 280 280 279 278 278 278 275 275 279 281 283 282 283 283 283 284 287 289 285 284 282 282 281 282 286 287 288 285 283 283 283 284 282 282 282 282 283 282 280 280 277 272
278 277 276 275 275 278 274 275 272 276 282 283 282 282 281 281 283 285 287 289 286 282 281 281 282 286 287 288 285 286 287 285 282 280 280 279 280 279 278 278 277 276 275
274 274 274 273 276 273 271 274 276 273 279 281 280 281 281 280 281 284 286 288 287 281 282 282 283 286 287 287 286 287 285 282 280 278 278 278 278 277 275 273 272 271 270
277 276 277 276 277 276 277 275 275 275 278 279 279 280 280 279 280 281 283 285 285 282 283 282 283 285 286 285 284 285 282 281 280 279 278 276 276 274 272 270 268 267 266
277 279 278 277 275 276 275 275 275 274 276 278 279 279 279 278 280 283 283 284 283 282 281 281 281 282 282 283 283 283 280 279 278 276 275 273 273 273 271 269 267 264 263
273 276 278 279 278 276 279 279 281 284 285 284 284 284 276 282 283 284 285 286 285 285 279 279 280 280 281 282 281 279 279 279 277 276 275 274 273 272 269 267 265 264 263
271 272 273 276 279 279 274 274 273 276 284 285 286 286 286 284 284 284 285 286 286 285 278 278 279 280 279 278 278 278 277 278 277 276 274 273 273 272 269 267 265 263 262
267 269 272 274 279 278 273 273 272 271 270 273 280 283 285 285 285 285 285 285 283 283 280 279 278 277 276 276 276 274 273 273 274 273 273 272 271 270 268 266 265 263 263
263 266 269 274 278 276 274 272 272 273 274 273 276 279 278 282 285 285 285 283 281 280 279 278 276 276 275 275 275 275 274 272 272 271 271 270 269 268 266 266 265 264 262
263 266 270 273 276 274 274 273 272 274 272 273 274 273 274 275 276 275 276 277 279 278 279 278 278 276 276 276 274 272 271 270 269 269 268 268 267 267 266 264 264 261 260
265 267 270 273 273 274 276 273 271 274 274 269 270 274 278 272 271 270 269 268 269 270 271 273 272 271 272 271 270 269 268 268 267 266 265 264 264 263 264 264 263 262 261
266 266 266 269 271 272 273 273 274 272 271 268 266 267 272 267 267 266 264 263 262 262 263 265 264 263 263 265 265 266 265 265 263 263 262 262 261 262 262 261 260 260 258
265 266 265 266 268 269 269 268 269 269 267 266 265 264 264 263 262 261 260 259 260 259 259 260 261 260 259 259 260 261 262 261 259 259 260 260 260 260 260 259 259 258 257
264 264 265 264 265 265 265 265 265 264 264 263 262 262 261 261 260 260 259 259 259 258 257 257 257 256 256 256 256 257 258 258 260 260 260 259 258 258 257 255 257 257 257
262 262 262 262 262 262 262 262 262 262 261 261 260 260 259 259 259 258 258 257 256 256 255 254 253 253 253 252 251 252 253 257 253 254 252 253 254 256 255 255 253 251 252
260 261 260 261 260 260 260 260 260 260 260 260 259 259 258 258 258 257 257 256 256 255 254 251 250 249 250 249 249 253 255 259 255 255 249 248 247 246 246 248 250 250 252

GFSGL_sfc_thetae_096.txt.gz
Theta_e
297 297 297 297 298 298 298 298 297 297 297 296 296 296 297 300 302 303 303 304 302 303 301 300 300 301 299 299 296 296 294 295 293 292 284 283 284 284 285 286 286 285 288
295 295 296 296 296 296 296 296 295 295 295 295 294 294 295 299 301 301 301 302 301 300 300 298 298 298 297 298 296 294 293 294 293 291 281 281 281 283 283 284 284 285 284
293 293 293 293 294 294 294 294 294 294 294 293 292 292 294 296 297 298 300 299 300 300 299 296 297 296 295 296 294 293 292 291 290 286 280 282 281 282 281 283 282 282 282
290 290 290 290 290 291 291 292 292 292 291 291 291 290 289 291 291 292 292 295 296 296 296 295 295 295 294 294 291 291 289 288 287 286 281 280 280 281 281 280 279 280 280
287 287 287 287 287 287 287 287 286 287 287 287 287 287 287 287 289 290 290 291 291 292 291 292 293 293 292 294 291 289 288 287 285 285 281 279 278 278 278 279 279 278 279
287 286 285 285 285 285 285 285 285 286 286 286 286 286 286 286 290 292 291 288 288 288 289 290 290 287 289 292 293 294 290 287 285 285 283 280 279 278 279 279 278 277 275
284 284 283 283 283 283 284 283 284 284 284 284 284 283 285 285 290 292 291 287 286 287 288 288 287 287 286 287 291 292 292 292 291 286 284 282 279 279 280 278 279 278 278
283 283 282 282 282 283 282 282 281 282 282 282 283 282 282 284 289 290 290 286 285 286 287 287 287 286 285 285 286 286 287 287 289 287 286 283 282 282 281 281 280 280 279
283 282 281 280 279 280 280 281 281 279 282 279 279 279 279 282 287 289 289 286 286 286 286 286 286 285 286 288 285 285 284 284 288 288 287 286 287 286 283 282 279 278 276
282 282 281 280 277 277 279 279 277 277 281 282 282 280 280 283 287 288 288 286 285 285 284 284 284 285 286 288 286 284 282 282 283 284 284 286 286 285 286 283 281 279 275
279 279 279 278 276 276 275 279 276 277 279 278 279 279 279 280 281 287 288 286 285 285 284 283 283 286 287 288 289 284 283 284 285 284 284 284 283 284 283 282 282 280 276
277 276 275 275 275 277 271 277 273 273 276 279 281 283 279 278 282 285 287 287 288 285 284 283 282 285 287 288 287 286 287 286 283 282 281 281 281 281 279 279 279 278 277
279 278 273 274 275 276 271 273 276 278 279 280 280 281 281 279 280 284 285 286 287 286 283 283 284 285 286 287 288 286 285 282 281 280 279 279 279 277 275 273 273 273 272
274 277 279 279 279 278 277 276 275 277 277 279 279 280 280 279 277 279 281 282 283 285 283 283 283 284 285 285 284 285 283 281 280 280 279 277 276 276 274 272 270 270 269
270 271 273 277 280 279 278 279 278 279 277 278 279 279 278 278 277 282 283 282 283 283 281 279 276 278 281 282 282 282 281 280 280 278 276 276 275 275 272 271 270 268 268
268 271 272 273 274 277 279 280 283 283 284 285 285 285 284 284 285 285 285 285 286 286 278 276 277 278 279 280 280 278 279 279 278 277 276 276 274 274 271 270 268 268 267
263 266 268 270 271 273 278 278 277 277 281 284 285 284 285 285 285 285 285 285 286 284 278 278 279 279 278 279 279 278 277 278 278 277 276 275 274 274 271 269 268 267 267
259 262 264 266 269 273 277 278 273 272 272 270 278 282 282 283 285 286 285 285 283 282 279 278 278 278 278 277 277 276 276 276 276 276 275 275 274 273 271 269 268 267 267
260 262 264 266 268 271 274 275 272 271 268 269 270 276 276 280 283 282 283 282 280 278 279 279 278 277 277 277 277 277 276 275 275 274 274 273 273 272 270 270 269 268 267
260 263 265 266 268 271 275 274 272 270 270 271 270 271 274 274 274 273 272 272 273 275 276 278 278 278 277 277 276 275 274 272 272 272 271 271 270 270 269 267 267 265 265
261 263 265 266 269 271 273 273 273 271 271 266 267 272 276 267 268 267 266 265 265 265 267 269 269 269 270 271 270 270 270 270 270 269 268 267 267 266 267 267 266 265 263
263 263 265 265 267 269 270 272 272 272 269 266 266 266 270 263 263 263 263 262 262 262 263 264 263 262 262 264 264 264 266 266 265 264 264 264 263 263 263 263 263 262 262
262 263 264 264 265 267 268 267 267 267 266 265 265 263 262 260 260 260 260 260 259 258 259 259 260 260 259 259 260 261 262 260 259 259 259 260 260 261 261 261 261 260 259
261 261 262 262 263 264 264 264 264 264 263 263 262 261 260 259 258 259 259 259 258 258 258 258 258 258 258 257 256 256 257 257 258 258 259 259 259 260 259 259 259 259 259
260 260 260 261 261 262 262 262 262 262 261 261 261 260 260 260 260 259 258 258 257 257 257 256 255 254 252 252 253 252 255 257 253 254 253 255 256 255 254 254 254 254 255
259 259 258 259 260 260 260 260 260 260 260 260 260 259 259 259 259 259 258 258 257 257 256 255 252 251 250 250 250 255 257 260 255 254 248 248 248 246 246 246 246 245 247

GFSGL_sfc_thetae_099.txt.gz
Theta_e
297 298 298 298 299 300 300 300 301 301 301 300 300 300 301 301 303 304 304 305 304 304 302 302 301 303 301 300 298 298 297 296 293 297 289 286 285 286 286 289 290 290 293
295 295 295 295 296 296 296 296 297 297 297 298 297 297 298 299 301 302 302 303 302 302 302 301 300 301 300 300 299 296 296 296 294 293 287 282 283 285 285 286 286 287 288
292 292 291 291 292 292 292 293 293 294 294 295 294 294 295 295 298 299 300 300 301 301 301 299 299 298 296 297 297 296 295 295 295 293 291 282 282 283 283 284 284 285 286
290 289 289 289 289 289 290 289 290 290 290 291 291 291 291 291 291 293 292 296 297 298 299 298 298 296 296 295 294 294 293 292 291 291 287 281 281 282 282 281 280 282 282
288 288 287 287 287 287 287 287 287 287 287 288 288 288 289 289 289 290 290 292 292 293 293 293 294 293 292 295 294 293 292 290 290 288 287 281 280 279 279 281 280 280 281
287 286 286 286 285 285 285 285 286 286 286 286 287 287 287 287 290 292 292 290 289 289 289 290 290 288 290 292 294 295 294 289 288 287 287 284 283 282 281 280 279 278 276
285 284 284 284 283 284 284 284 284 284 284 284 284 284 285 286 289 291 291 289 288 288 288 288 288 288 287 289 291 292 293 294 294 289 287 287 285 283 281 279 279 279 280
284 283 283 283 282 282 282 282 282 282 282 282 283 283 283 284 289 290 290 288 288 288 288 287 287 288 288 287 287 286 287 289 290 291 288 289 287 284 283 282 281 281 282
283 282 282 281 279 280 279 280 281 280 281 281 282 281 281 283 287 289 289 286 286 286 287 287 287 287 288 289 287 285 285 286 290 292 292 290 288 286 285 283 280 279 277
281 281 281 280 276 277 278 278 279 277 280 281 281 281 280 281 285 287 288 286 286 286 287 286 285 286 288 289 286 285 284 285 285 285 287 288 287 286 286 284 282 279 278
279 279 278 278 276 277 276 276 277 276 277 276 278 279 279 280 282 286 288 286 286 285 285 286 285 287 288 289 289 286 285 286 285 284 284 284 284 284 284 284 283 282 279
278 279 278 274 276 277 272 274 274 273 275 278 278 281 282 281 283 285 286 287 287 285 285 286 285 287 287 288 287 288 288 287 284 284 283 282 281 282 282 282 282 281 282
275 273 276 276 275 276 276 276 276 276 278 278 280 280 281 282 280 283 284 284 285 284 285 286 287 287 287 286 286 288 286 285 284 283 282 281 281 279 277 275 275 275 274
267 269 272 272 274 276 280 280 278 278 277 277 279 279 280 281 282 279 280 283 283 283 284 284 285 285 285 285 284 285 285 284 283 282 280 277 277 277 275 275 274 274 272
266 269 270 272 272 273 275 278 279 281 280 279 280 281 280 281 283 285 284 283 284 283 283 281 280 280 280 281 283 283 282 282 281 278 278 277 277 275 273 273 273 272 271
263 267 268 269 270 271 272 274 281 284 284 284 285 285 284 285 286 286 285 286 285 286 280 277 278 279 279 280 281 280 281 281 280 279 278 277 276 275 272 272 272 272 271
260 262 265 266 267 268 270 272 275 281 282 282 283 284 284 283 285 285 286 285 285 284 279 277 278 279 280 281 280 280 279 279 279 278 278 277 276 275 273 272 271 271 270
257 259 261 263 264 266 268 271 275 275 274 274 277 281 282 282 283 283 284 285 282 282 279 279 278 279 279 280 280 279 279 278 278 277 277 277 276 275 274 272 271 271 270
258 260 262 263 264 265 267 269 272 274 273 272 272 276 274 279 281 278 277 275 277 280 280 280 280 279 279 279 279 278 278 277 277 277 276 276 275 274 273 273 272 271 270
258 260 263 263 264 266 268 271 273 274 273 272 271 271 272 269 268 267 268 268 269 269 271 273 274 275 276 277 278 277 276 276 275 275 274 274 274 274 273 271 271 269 269
259 260 262 263 264 267 268 270 272 274 273 270 268 270 275 266 264 263 264 264 264 265 265 267 267 267 268 270 272 273 273 273 273 272 272 272 271 271 271 271 270 269 268
261 261 262 263 264 265 267 268 269 270 269 267 266 266 269 263 263 261 261 261 261 261 262 264 263 262 262 263 266 268 268 268 268 269 269 268 268 268 267 267 267 266 265
259 260 261 261 263 264 264 265 266 266 266 265 264 263 263 262 261 260 260 260 260 260 260 261 261 261 261 261 262 263 264 263 264 265 265 265 265 265 265 265 264 263 263
257 259 259 261 261 262 262 263 263 264 264 263 263 262 261 261 260 260 260 260 260 260 259 259 259 259 259 259 260 260 261 261 261 262 263 264 263 263 263 262 263 262 262
256 257 258 259 259 260 261 261 261 262 262 262 261 261 261 261 260 260 259 260 259 259 258 258 257 256 256 256 256 256 258 259 259 258 259 260 261 261 260 260 259 259 259
256 257 257 258 259 259 259 259 260 260 260 261 260 260 260 260 260 260 259 259 259 259 258 258 257 256 256 255 255 258 258 261 255 253 254 255 255 254 254 254 252 254 254

GFSGL_sfc_thetae_102.txt.gz
Theta_e
304 305 305 304 305 305 305 305 305 306 305 306 306 306 307 308 308 309 308 308 307 307 307 305 304 305 304 303 302 301 299 298 295 299 298 293 289 288 289 292 292 292 293
300 299 299 299 300 300 299 300 301 301 302 302 302 302 303 304 305 305 304 304 303 302 303 303 302 303 302 303 301 299 298 299 297 295 298 288 287 288 289 287 288 289 291
297 296 296 296 297 296 296 296 296 297 297 298 298 298 298 299 299 301 301 300 301 301 302 301 301 300 299 299 299 299 298 297 297 295 295 285 285 284 284 285 286 286 288
295 295 294 294 294 294 294 294 294 294 294 294 295 294 294 295 295 294 293 295 296 298 299 299 300 298 297 297 295 296 295 294 294 294 293 292 283 282 284 283 282 284 284
294 293 292 292 292 292 292 292 291 291 291 292 291 292 292 292 291 293 292 292 293 293 294 294 295 293 292 294 295 294 293 293 293 292 291 290 282 280 280 282 283 282 282
292 291 291 291 290 290 290 289 290 290 290 290 290 289 290 289 290 291 291 291 290 290 290 291 292 289 290 291 293 294 294 291 289 290 290 289 289 285 284 283 282 278 277
290 289 288 288 288 288 287 287 287 288 288 288 288 288 288 289 289 290 290 290 290 290 290 289 289 290 288 290 291 292 292 293 294 292 288 289 289 289 285 282 281 281 281
288 287 286 286 286 286 286 286 286 287 286 286 287 287 287 287 288 289 289 290 290 289 289 289 289 289 290 289 289 288 288 289 289 290 291 292 292 291 286 285 283 282 284
286 286 285 285 283 284 284 285 285 285 285 286 285 285 285 286 287 288 288 288 287 287 287 288 288 287 288 289 287 286 286 287 289 291 292 293 294 293 287 284 282 280 279
283 283 284 283 282 282 283 283 284 284 284 284 284 285 284 284 286 287 287 288 286 286 287 287 287 286 288 289 286 286 284 285 286 286 286 288 290 289 288 285 284 280 280
281 281 281 281 281 282 282 282 282 282 282 282 283 285 285 285 286 286 287 286 285 284 284 285 286 288 288 289 289 286 286 287 287 286 285 285 285 285 285 285 285 283 280
277 277 277 278 280 281 280 280 281 281 281 281 282 283 286 286 285 285 286 286 286 283 283 284 285 287 288 289 288 288 288 288 286 285 285 284 284 284 284 284 284 285 284
271 272 274 275 277 279 279 281 282 281 280 280 280 281 282 284 285 285 285 284 285 284 284 284 285 285 287 287 286 286 285 285 285 284 284 284 284 283 280 279 278 276 275
268 270 273 274 275 277 279 279 280 281 281 281 280 279 281 283 284 285 285 284 285 285 285 285 285 284 285 285 284 285 285 285 285 285 284 282 280 280 279 279 277 277 274
267 269 271 273 274 274 276 277 278 280 282 282 282 282 282 282 284 285 285 285 285 285 285 285 283 283 283 283 284 284 284 284 283 283 281 280 279 278 276 278 276 276 273
266 269 270 270 272 273 274 275 278 279 281 284 285 284 284 285 286 285 286 286 286 286 284 282 282 282 281 282 282 282 282 282 282 282 281 279 278 276 274 275 276 276 273
263 265 267 268 269 270 271 272 272 276 280 283 283 283 284 284 284 284 284 284 286 285 282 282 282 282 281 282 282 282 282 282 282 281 281 279 278 276 275 274 275 275 273
261 262 264 267 268 269 270 271 271 272 273 277 281 281 282 282 282 283 282 283 283 284 283 282 282 282 281 281 281 282 282 281 281 281 280 280 278 276 275 275 274 274 273
262 265 265 266 267 268 268 270 271 273 274 276 279 280 278 278 280 277 276 276 276 278 278 279 279 280 280 281 281 281 280 280 280 280 279 278 278 277 277 276 275 274 273
264 263 264 265 267 268 269 270 272 273 275 277 277 277 277 276 274 272 271 270 271 271 272 273 273 274 275 276 278 279 279 279 278 278 278 277 277 277 276 275 274 273 272
264 265 264 266 267 268 268 270 271 272 274 276 273 274 273 271 269 268 268 267 266 267 268 269 269 269 269 271 273 275 275 275 275 275 275 275 275 275 275 275 274 273 272
264 264 265 265 266 267 267 269 269 270 271 270 270 269 270 268 267 266 265 265 265 265 265 266 267 266 266 266 267 271 271 271 271 272 272 271 272 271 272 271 271 270 269
263 263 264 265 265 265 267 267 267 267 268 268 267 267 266 265 265 264 264 263 264 263 264 264 264 264 264 264 265 265 266 265 266 267 269 269 269 269 269 269 268 267 267
262 263 263 264 264 264 265 265 265 265 265 265 265 265 264 264 264 263 263 263 263 263 263 262 262 261 261 262 263 263 264 264 264 265 265 267 267 266 267 266 266 265 265
261 261 262 262 262 262 263 263 264 264 264 264 264 264 264 264 263 263 263 262 262 262 262 261 260 260 260 260 260 260 260 261 261 260 263 264 264 264 263 263 264 264 263
260 260 261 261 261 261 261 261 262 262 262 263 263 263 263 263 263 263 262 262 262 261 261 261 261 260 259 260 260 261 261 263 261 258 260 261 261 260 260 260 259 260 260

GFSGL_sfc_thetae_105.txt.gz
Theta_e
306 307 306 306 307 307 306 306 306 307 306 306 306 307 307 308 309 309 310 308 306 306 307 306 305 306 305 305 303 302 301 300 296 300 301 299 293 292 292 291 292 293 294
301 301 301 301 301 301 300 300 301 301 302 301 301 302 302 303 304 304 304 305 304 302 302 302 302 303 303 303 303 301 300 301 298 296 299 299 291 290 291 289 289 290 291
299 298 298 298 298 297 297 297 297 298 298 298 298 297 297 298 298 299 298 298 299 300 300 299 299 299 297 298 299 299 300 299 299 296 296 298 289 286 286 286 287 287 288
297 296 295 295 295 295 295 295 295 295 295 295 295 294 294 294 294 293 292 293 294 295 296 296 296 296 296 296 296 296 296 295 295 294 294 295 294 284 285 284 285 285 286
295 294 293 294 293 293 293 293 293 292 292 292 291 291 291 292 289 290 290 291 291 291 291 292 292 293 291 293 293 293 293 292 292 292 291 292 292 281 283 286 284 287 285
293 292 292 292 291 291 291 290 290 290 290 290 290 289 289 288 290 290 290 290 290 289 289 290 291 289 290 291 291 292 293 290 288 289 289 289 290 291 288 286 286 282 281
290 289 289 289 288 289 289 288 288 289 289 288 289 288 288 289 290 290 289 287 288 289 289 288 288 288 288 289 290 290 290 291 292 290 287 288 289 290 290 288 285 285 284
288 287 287 287 286 287 287 287 287 287 287 286 287 287 287 287 289 289 288 287 288 288 288 288 287 287 287 287 287 286 287 288 288 288 288 289 290 290 290 290 288 285 285
286 286 285 285 284 284 283 284 285 285 285 285 285 285 285 285 288 288 287 286 286 286 287 287 287 287 288 289 286 285 285 286 290 291 291 292 292 292 292 288 284 282 280
282 282 283 283 282 282 283 283 284 284 284 284 284 285 284 284 286 287 287 286 284 285 286 286 286 286 288 288 286 285 284 285 286 286 287 288 289 288 289 287 286 282 282
280 280 281 281 280 281 282 282 282 282 282 282 282 284 284 284 285 287 287 284 284 283 283 283 284 286 286 287 288 286 285 287 287 286 285 285 285 285 285 286 285 284 282
275 276 276 276 278 280 279 280 282 282 282 281 282 283 284 284 285 286 286 286 286 283 282 283 284 286 286 286 286 288 288 287 284 283 283 283 284 284 285 284 284 284 284
271 272 274 275 277 278 278 279 280 281 282 282 281 281 282 283 284 286 286 286 286 285 285 285 286 286 286 285 285 286 284 284 282 281 282 284 284 282 281 279 277 276 275
270 271 273 274 275 277 277 279 279 279 280 281 281 281 282 282 283 285 285 285 285 285 286 285 286 286 285 285 284 284 284 283 282 282 283 281 280 280 279 279 277 277 273
269 271 273 274 273 274 276 276 277 278 279 278 279 280 281 281 283 285 286 284 284 285 285 285 284 282 282 282 282 282 283 282 282 283 281 281 279 278 277 278 277 276 273
268 270 271 270 272 272 273 274 278 279 280 281 282 282 283 284 285 286 286 285 285 285 284 283 281 281 280 280 280 281 281 281 282 282 281 280 278 276 276 276 277 276 273
264 266 268 268 270 271 271 271 271 274 278 279 281 282 283 283 284 284 284 284 284 284 283 282 281 282 281 280 280 280 280 281 281 280 280 280 278 276 275 275 276 275 273
261 263 265 268 269 269 270 270 271 270 271 273 278 280 282 282 282 282 281 280 281 283 283 282 281 281 280 279 279 279 279 280 280 279 279 279 277 275 275 275 275 274 272
263 266 267 267 268 268 268 269 271 272 272 273 276 280 281 280 280 278 277 274 274 274 274 275 275 275 276 276 278 279 279 279 278 278 277 275 276 276 276 276 275 274 273
265 264 265 266 267 268 270 270 271 271 272 273 275 275 276 274 275 273 271 270 269 269 269 270 271 271 271 272 273 276 277 277 276 276 276 277 276 277 275 275 274 273 273
265 266 265 266 268 268 269 269 270 270 271 272 273 271 275 270 270 269 268 267 266 266 266 267 268 268 267 267 268 271 272 272 272 272 273 273 274 274 274 275 274 273 273
265 265 266 266 267 267 268 267 269 269 270 270 270 270 271 268 267 266 266 266 265 266 265 265 266 266 265 265 265 265 267 267 266 267 270 270 271 271 272 271 271 270 270
265 264 265 266 266 265 266 267 267 267 267 267 267 267 266 266 266 265 265 264 264 264 264 264 264 263 264 264 264 264 263 263 264 265 265 268 268 269 269 269 268 267 267
263 263 264 264 264 263 265 264 265 265 265 265 265 265 265 265 264 264 264 264 264 264 264 263 262 262 261 261 262 262 262 263 262 262 262 264 265 265 264 264 264 263 263
262 262 262 262 262 263 263 263 263 264 264 264 264 264 264 264 264 264 264 264 263 263 263 263 262 262 261 261 261 261 261 261 261 261 260 261 260 260 259 259 258 257 257
261 261 261 262 261 262 262 262 262 262 263 263 263 264 264 263 264 264 264 263 262 262 261 262 262 261 261 261 261 262 262 264 263 261 258 259 257 256 254 253 252 252 253

GFSGL_sfc_thetae_108.txt.gz
Theta_e
300 301 301 302 302 301 300 299 300 299 299 299 300 300 301 301 301 301 301 302 301 300 302 302 303 304 304 304 303 303 302 301 297 299 301 300 297 295 295 294 294 294 295
296 296 296 296 295 294 294 294 295 295 296 295 296 296 296 296 296 296 296 296 296 296 296 296 296 299 299 300 301 300 300 300 298 296 298 299 296 293 294 293 293 292 292
294 294 293 293 292 292 292 293 293 293 293 293 293 292 292 292 292 292 292 292 292 292 293 292 295 295 293 294 296 296 297 298 298 296 295 298 298 288 289 288 289 290 290
293 292 291 290 291 291 291 291 290 291 290 290 290 289 289 289 288 287 287 289 289 290 290 291 292 292 291 291 291 292 293 293 293 293 293 293 294 289 285 286 288 287 288
291 290 290 290 290 289 288 288 287 287 287 286 286 286 286 287 286 286 285 286 286 287 287 288 289 289 289 290 289 289 289 289 290 290 290 291 291 291 285 288 285 289 290
289 288 288 288 286 286 285 285 286 285 286 286 286 285 285 286 291 291 289 285 284 285 285 285 285 285 288 290 290 291 290 287 286 287 288 287 288 289 290 290 289 287 286
285 285 284 284 284 284 284 285 284 284 285 284 284 284 284 284 289 290 289 284 284 284 285 286 286 287 287 287 288 289 288 289 290 288 286 286 286 288 288 287 287 287 286
284 283 283 283 282 283 283 283 283 283 283 283 282 281 282 283 288 289 288 284 283 284 284 286 286 286 286 286 286 286 286 286 286 287 287 287 288 288 288 287 287 287 287
282 282 282 281 280 281 280 281 281 280 280 279 281 280 279 282 287 288 287 282 284 284 285 285 285 285 286 287 285 284 284 285 288 290 290 290 291 291 291 288 285 284 283
280 281 281 281 279 277 279 278 279 278 281 281 281 279 278 279 285 287 286 284 283 283 284 284 285 284 286 286 284 283 282 283 285 286 286 287 288 287 288 286 285 282 282
278 278 278 277 276 277 277 277 275 275 277 274 277 277 277 278 279 286 287 285 283 283 283 283 283 286 286 287 287 284 284 286 286 284 284 283 284 285 285 285 285 283 282
275 275 273 272 274 276 271 271 271 271 270 272 271 273 276 276 283 286 286 287 287 284 283 284 284 286 287 287 286 286 286 286 283 282 281 281 282 283 283 282 283 283 280
269 269 268 269 271 271 268 268 270 269 269 271 274 277 278 280 283 286 286 287 287 285 284 285 287 287 287 285 285 285 284 283 282 281 280 282 280 278 277 277 276 273 274
266 267 268 268 268 268 271 271 268 268 268 270 273 276 278 279 281 283 284 285 285 285 285 285 285 287 286 285 283 283 283 282 281 281 281 281 280 279 272 273 272 272 271
266 268 268 268 266 268 271 268 271 271 271 270 277 277 277 277 280 284 284 284 285 284 284 283 283 282 281 281 281 281 281 282 281 281 280 279 279 275 271 272 273 271 271
266 267 266 266 266 268 269 270 275 277 279 280 280 280 280 282 284 284 285 285 285 285 282 280 281 281 280 280 279 279 280 280 280 280 279 279 278 271 269 270 272 271 272
259 262 263 265 264 264 264 264 266 270 275 277 278 280 281 282 283 283 283 283 283 282 280 281 281 280 280 279 279 279 278 279 280 279 279 278 278 270 269 269 271 271 272
254 260 258 260 260 260 261 262 262 265 268 270 275 278 280 282 281 281 281 278 271 273 273 273 272 273 273 274 275 277 278 278 278 278 278 277 277 270 268 270 272 270 271
256 258 258 259 258 259 260 261 263 267 269 270 270 274 274 276 278 279 276 265 264 263 268 269 270 269 269 270 271 272 274 276 275 275 274 273 274 271 270 272 273 274 272
255 259 259 257 257 258 259 261 262 263 268 269 269 269 268 264 264 262 260 259 260 262 265 265 267 267 266 266 267 268 271 271 270 271 270 271 273 274 273 272 274 273 272
255 256 260 256 256 257 258 259 261 262 266 267 268 264 274 266 264 263 260 259 258 261 263 263 265 264 265 264 265 265 267 267 266 267 269 269 270 270 272 272 272 272 272
255 255 255 255 257 257 257 256 259 263 261 262 263 259 271 260 261 261 260 261 262 262 263 263 263 263 264 263 263 263 264 263 263 264 264 267 268 268 269 270 270 270 269
255 255 255 255 255 257 256 256 257 259 257 256 259 260 256 256 258 261 260 261 261 262 262 262 262 262 262 262 263 262 262 262 262 262 261 263 265 265 266 266 266 266 266
254 254 254 254 254 254 254 256 255 258 257 256 256 256 256 256 261 262 261 261 260 262 262 262 262 261 261 261 261 261 261 261 261 260 260 261 262 262 262 261 262 261 262
252 253 253 253 252 253 253 254 256 254 255 256 257 255 256 258 261 262 261 262 261 262 262 262 262 262 261 261 261 261 261 262 262 262 259 259 259 259 257 257 256 257 256
252 252 252 252 252 252 253 255 255 255 255 256 257 256 257 257 258 261 262 261 261 260 260 260 261 260 260 260 260 262 262 264 264 264 260 258 256 255 254 253 253 253 253

GFSGL_sfc_thetae_111.txt.gz
Theta_e
299 300 300 300 300 299 299 299 299 298 298 297 297 297 297 296 297 297 297 297 297 297 297 296 297 298 297 300 301 302 301 301 296 298 300 300 297 296 297 297 297 297 298
294 294 293 294 294 293 292 293 293 293 293 293 293 293 293 293 293 292 291 292 291 291 292 292 292 295 292 294 296 296 296 297 296 293 295 296 296 297 296 295 295 295 295
292 291 291 290 290 290 290 291 291 291 290 290 290 290 289 289 288 288 289 289 289 289 289 289 289 290 289 291 291 291 292 293 293 291 290 293 294 295 293 291 290 292 292
291 290 289 289 289 289 289 289 288 288 288 288 287 286 286 287 286 285 286 287 287 288 288 288 288 287 286 288 288 287 288 288 288 289 289 289 290 291 286 287 288 291 291
290 289 288 288 288 287 287 287 286 285 285 285 285 285 285 286 286 286 285 285 285 285 285 286 286 286 287 289 288 287 287 286 286 285 285 286 286 287 286 289 288 289 290
288 287 287 286 285 285 285 285 285 284 284 284 284 284 284 284 289 291 289 284 284 284 283 284 284 284 286 288 288 289 288 285 285 284 283 283 284 285 286 286 286 285 283
284 284 284 284 283 283 284 283 283 283 283 283 283 283 283 283 288 289 289 284 283 283 283 283 285 285 286 285 287 288 287 288 288 286 284 284 284 285 285 285 285 285 285
283 282 283 282 282 282 282 282 282 282 281 282 281 281 280 282 287 288 288 283 282 283 284 284 284 284 285 284 285 284 285 285 285 285 285 285 287 287 287 286 286 285 286
282 282 281 280 279 280 279 280 281 279 279 278 280 277 276 279 286 287 286 285 284 284 284 285 284 284 285 286 284 283 283 284 287 288 289 290 290 290 289 286 283 282 281
280 281 280 280 278 277 279 279 279 277 279 279 279 277 276 276 284 286 286 284 283 283 284 284 284 284 286 287 284 284 282 283 284 285 285 285 286 285 287 285 284 281 281
278 278 277 277 277 278 277 277 275 274 275 272 275 276 276 275 278 286 287 284 284 283 283 283 284 286 287 288 288 285 283 285 285 283 282 282 283 282 284 284 284 282 280
275 275 275 275 277 276 274 273 271 269 270 271 268 272 275 276 280 284 286 287 286 284 284 284 284 286 287 287 286 286 286 285 283 282 281 281 281 281 281 280 279 278 277
272 271 273 274 274 273 269 270 273 269 267 268 270 268 272 276 275 283 284 286 286 284 284 285 286 286 287 286 285 286 283 282 281 280 280 280 281 281 280 275 269 270 272
272 272 272 270 268 269 271 271 266 266 266 268 270 274 276 277 277 280 282 284 284 284 285 284 285 285 285 286 282 283 282 282 281 280 280 281 281 280 279 270 270 268 265
270 271 270 269 266 268 270 269 271 270 270 266 268 277 276 276 278 282 283 282 283 284 283 283 279 280 282 281 280 280 281 281 280 280 280 279 279 279 276 268 269 268 267
268 267 267 267 266 267 267 266 273 275 277 277 279 279 278 280 282 283 284 284 284 284 280 278 278 280 280 280 279 279 279 279 279 279 279 278 277 277 271 267 269 267 265
261 262 261 263 262 261 261 261 262 266 273 275 277 278 279 280 280 281 281 282 279 279 272 271 272 272 272 273 274 275 276 278 279 275 275 273 273 272 268 266 269 268 264
254 260 257 258 257 257 258 259 258 257 260 263 271 275 278 277 278 279 278 272 262 264 261 267 268 269 269 269 270 270 272 274 276 274 274 272 271 269 267 268 270 270 267
255 255 255 255 256 256 256 256 257 256 257 259 259 269 268 274 275 273 273 258 258 257 259 261 266 266 266 266 267 267 269 271 271 270 270 271 271 271 268 269 269 273 272
252 257 256 254 254 255 256 256 256 256 257 256 257 260 262 261 257 255 255 254 254 256 258 260 263 264 265 265 265 265 266 267 267 267 268 269 270 270 270 269 269 269 269
253 254 257 254 253 253 254 255 256 254 255 256 256 257 272 264 255 253 253 254 255 255 258 262 262 263 264 263 264 264 264 265 264 264 265 266 268 268 269 270 270 270 267
252 253 252 253 254 254 253 253 253 254 255 254 254 255 269 254 253 253 253 253 254 257 259 259 261 261 261 261 262 262 262 262 262 262 262 263 266 266 267 268 268 268 267
254 253 252 252 252 254 253 252 252 253 253 252 252 253 253 252 252 253 255 255 255 255 260 259 259 260 260 261 260 261 260 261 261 261 260 261 262 263 264 264 264 264 264
253 253 253 252 252 252 251 251 251 253 252 252 251 251 252 253 254 255 256 256 255 257 259 260 260 261 261 261 261 261 261 261 262 261 260 260 260 260 261 262 262 261 261
251 252 252 252 251 252 251 250 251 250 250 251 252 251 251 253 254 255 256 256 256 255 258 260 260 260 260 260 260 260 260 262 261 262 261 259 259 258 256 257 257 257 257
252 251 251 250 250 249 249 250 251 251 251 253 253 253 253 254 256 255 255 255 256 257 257 258 259 259 259 259 259 260 262 264 262 263 263 259 259 257 255 254 253 253 253

GFSGL_sfc_thetae_114.txt.gz
Theta_e
298 298 297 297 297 299 300 299 298 298 298 298 297 296 294 294 294 294 293 293 293 293 292 292 292 293 292 292 293 294 295 296 292 294 294 297 295 295 295 296 296 295 297
294 294 293 294 294 295 294 294 294 293 292 291 291 291 291 290 290 290 289 289 289 288 289 289 289 291 289 290 291 291 292 292 291 288 290 290 291 292 293 293 293 295 295
291 291 290 291 291 290 290 289 289 289 289 289 289 289 288 287 287 287 287 287 287 287 287 287 288 288 286 286 286 288 288 289 288 286 286 288 289 290 290 290 290 291 292
289 289 288 288 288 288 288 288 287 287 287 286 286 285 285 285 286 285 286 286 286 286 286 286 286 286 285 285 286 286 286 286 286 285 285 285 286 287 287 286 286 288 287
289 288 287 286 287 287 286 285 285 285 284 284 284 284 284 285 286 285 285 285 284 284 284 285 285 284 286 287 286 285 285 285 284 283 283 283 283 284 283 285 284 285 285
287 286 286 285 284 284 284 284 284 283 283 283 283 283 283 283 289 290 287 284 283 283 283 283 283 283 284 287 287 287 287 284 283 283 283 282 283 284 284 284 284 283 282
285 284 284 283 283 283 283 283 282 282 282 282 282 282 282 282 288 289 288 284 282 282 282 284 284 284 285 284 286 286 286 287 287 285 282 283 283 284 284 284 284 284 283
283 283 283 283 282 282 282 281 281 281 281 281 280 280 280 282 287 288 287 284 284 284 284 284 284 284 284 284 284 284 284 284 285 285 284 284 285 286 286 285 283 283 283
282 282 281 281 280 280 279 280 280 279 279 279 281 279 278 278 286 287 286 283 284 284 284 284 284 283 285 287 284 283 283 284 287 288 288 289 288 288 287 284 281 280 279
281 281 280 279 277 277 278 277 278 278 280 280 279 277 275 273 283 286 285 281 279 283 284 284 285 284 286 287 284 284 283 283 284 284 284 284 285 284 286 284 282 278 277
279 278 277 277 276 276 275 276 276 278 277 276 275 274 273 275 278 285 286 282 282 283 283 281 282 286 287 287 287 285 284 285 284 282 282 282 283 283 283 282 281 279 276
276 275 273 272 276 275 273 275 274 273 270 268 268 272 275 276 280 282 284 285 286 282 280 281 283 286 287 286 286 287 287 285 282 281 281 280 281 281 282 281 280 278 278
272 270 270 274 274 275 274 272 271 269 268 270 271 270 273 276 275 281 282 284 285 283 282 283 286 286 286 284 285 287 283 281 281 280 279 280 281 281 281 280 271 270 270
273 273 274 273 272 272 274 274 270 267 267 269 270 273 273 274 274 275 278 280 281 281 283 283 284 283 283 283 282 283 282 281 280 279 279 280 281 280 279 277 268 268 265
272 272 272 271 271 271 272 271 271 271 270 266 266 273 272 269 274 282 282 281 282 282 281 278 276 276 276 278 280 280 280 279 279 280 279 279 279 278 278 268 266 264 265
271 270 270 269 269 269 268 267 272 274 276 277 278 275 275 280 281 281 281 281 281 280 271 268 269 270 270 271 272 273 274 276 278 278 277 276 276 274 274 268 265 263 264
268 266 265 265 265 262 261 260 260 265 273 275 276 276 278 278 278 279 279 278 276 271 259 259 263 266 267 267 268 269 269 271 274 276 274 274 273 273 272 271 270 268 266
262 263 263 261 260 258 258 258 257 258 258 260 269 273 276 275 276 275 275 268 258 260 254 255 259 262 264 265 265 265 266 268 270 271 271 271 271 271 271 272 272 270 270
260 259 258 257 256 258 257 256 256 254 254 254 255 265 264 272 273 271 270 254 254 253 252 254 255 259 261 262 264 264 265 266 267 266 267 268 269 269 270 271 272 273 272
256 259 258 257 255 255 255 256 254 253 254 252 253 254 256 258 254 252 251 251 250 251 252 252 255 256 258 261 262 263 263 264 264 264 264 265 267 268 268 269 270 270 271
259 257 258 254 254 254 253 255 254 252 252 252 254 254 271 258 252 251 251 250 251 251 252 252 254 254 255 255 258 260 261 262 262 262 262 262 264 265 267 268 268 269 269
258 257 255 257 255 254 252 252 252 252 252 252 252 252 268 252 251 250 250 250 251 252 255 256 255 254 255 255 255 257 259 260 260 260 260 261 262 263 264 265 266 267 267
258 256 255 252 253 253 252 250 251 251 251 250 250 251 250 250 249 249 250 252 251 252 252 253 255 255 256 258 258 258 259 259 260 260 259 259 260 261 261 262 263 263 264
257 257 256 254 252 251 252 251 250 252 251 251 249 249 250 249 250 252 252 253 252 253 252 252 254 255 254 255 257 259 260 260 260 260 259 259 258 259 259 259 260 261 261
254 255 255 255 253 254 251 251 251 250 250 251 251 249 249 250 251 252 253 252 253 252 253 253 254 254 255 255 255 255 257 261 260 260 259 258 258 258 258 257 256 256 257
253 254 253 252 251 250 250 252 252 252 252 253 253 252 252 253 253 253 253 252 253 254 254 253 253 254 254 254 255 258 260 263 262 261 260 259 258 258 256 256 256 253 254

GFSGL_sfc_thetae_117.txt.gz
Theta_e
299 298 299 299 299 300 301 301 300 300 299 298 297 296 295 294 294 292 291 291 290 290 290 289 289 290 289 289 289 290 290 289 287 288 289 289 289 288 290 292 292 292 293
294 294 294 294 294 294 294 294 295 294 294 293 293 291 289 289 289 289 288 288 287 287 287 287 286 288 287 288 287 287 287 288 287 284 287 286 287 288 288 287 289 290 290
291 291 291 291 291 291 290 291 291 291 289 288 288 287 286 286 286 286 286 286 286 286 285 285 286 286 284 284 285 286 287 287 286 284 283 286 286 287 286 287 287 287 288
289 289 288 288 288 289 289 288 287 286 286 286 285 285 285 285 285 285 285 284 284 285 285 285 285 284 283 283 284 285 285 284 284 284 283 284 284 285 285 284 283 284 284
288 287 286 286 287 286 285 285 284 284 284 284 284 283 284 285 286 285 284 284 284 284 283 283 283 283 286 286 285 284 284 284 283 283 282 283 283 283 282 284 283 284 285
287 286 285 285 284 284 284 283 284 283 283 283 282 282 282 285 290 290 286 284 283 283 283 282 282 282 285 286 286 287 286 284 282 282 282 281 282 283 283 283 283 282 280
284 284 284 284 283 283 283 283 282 282 282 282 281 282 281 284 289 289 286 283 282 282 282 282 283 283 282 283 285 286 286 287 287 284 282 282 282 283 284 283 282 281 281
283 283 283 283 282 282 282 281 281 281 281 280 280 280 280 284 288 287 286 283 283 283 283 283 282 282 283 284 284 284 284 283 284 285 284 284 285 285 285 284 283 282 282
283 283 282 282 281 280 279 279 280 279 278 278 279 278 278 279 287 287 285 281 282 282 283 283 283 283 285 287 284 283 283 284 287 288 288 288 287 287 286 283 280 278 276
282 282 281 280 279 278 279 278 277 277 278 279 279 278 278 275 283 286 285 281 277 281 282 283 284 282 287 287 284 284 282 283 284 284 283 284 285 284 286 284 282 278 276
280 279 278 278 277 277 276 275 274 275 277 274 275 275 273 274 278 284 285 283 283 282 282 279 281 285 287 287 287 282 282 286 284 282 282 282 282 282 283 283 283 280 277
277 276 275 274 276 274 273 271 274 273 273 272 272 274 275 275 280 282 284 284 285 281 281 280 279 285 285 286 285 285 286 287 281 280 280 279 279 281 281 282 282 281 277
274 272 271 272 273 273 274 274 273 273 274 274 274 271 272 274 273 281 282 283 283 278 280 282 284 284 284 281 283 284 283 282 280 275 276 278 278 280 281 280 277 270 269
272 271 272 272 273 274 274 273 272 271 271 271 272 270 270 272 272 273 275 273 278 278 280 277 280 280 280 278 275 277 279 280 279 278 278 278 277 275 278 278 271 272 264
272 272 272 273 271 271 273 272 272 272 272 269 266 268 267 265 271 281 278 271 273 278 270 264 265 266 267 267 268 269 271 272 272 275 275 276 275 275 275 276 272 268 268
271 272 271 270 271 271 271 269 274 275 277 279 279 273 268 279 280 280 280 280 279 279 261 258 260 263 264 266 265 266 267 267 269 271 273 273 273 272 272 274 272 270 269
274 270 270 270 268 267 266 267 266 266 275 276 277 277 278 277 277 278 277 277 275 268 255 254 256 258 260 263 262 263 264 266 267 269 269 270 270 270 270 271 272 272 272
267 268 267 266 265 264 264 263 260 260 260 259 268 272 276 275 276 275 274 267 256 256 251 252 253 254 256 258 258 259 262 263 265 265 265 266 268 268 268 269 270 271 271
264 264 263 263 262 262 259 256 255 253 253 253 254 264 263 272 273 271 269 253 253 251 250 250 251 252 254 254 255 256 256 259 262 260 261 262 264 265 266 267 268 270 271
260 263 262 261 260 260 258 258 255 253 254 252 252 253 253 256 254 252 250 249 248 250 250 250 250 250 251 251 252 252 254 255 256 255 257 261 262 263 264 265 266 267 268
262 261 262 261 260 259 259 258 258 256 255 252 254 253 266 259 254 251 250 249 251 250 250 249 249 249 249 250 250 250 251 254 255 255 254 258 260 260 262 264 264 266 267
262 262 262 261 260 259 257 256 255 255 255 254 253 251 269 254 250 251 250 251 252 251 251 251 252 251 252 252 251 251 252 253 254 253 254 256 258 259 261 261 261 263 264
260 259 259 259 259 257 256 253 254 254 254 253 252 252 250 250 250 251 252 252 249 249 249 249 253 255 252 252 252 254 254 255 255 252 254 254 254 258 258 259 259 260 261
260 260 261 259 257 257 258 255 254 254 254 253 251 252 252 251 251 252 252 251 249 251 251 251 252 253 253 253 252 253 254 254 254 255 254 254 255 258 259 258 258 258 259
260 260 259 259 257 258 256 254 253 252 252 253 252 250 251 251 252 255 255 254 252 251 252 252 252 252 254 254 253 252 253 258 256 255 253 252 254 255 256 258 258 255 255
258 259 258 258 254 255 256 254 254 254 253 254 254 255 256 257 257 257 256 255 253 253 253 252 252 253 253 253 253 255 256 260 259 258 256 255 256 257 254 254 256 254 255

GFSGL_sfc_thetae_120.txt.gz
Theta_e
299 301 304 305 306 307 306 305 303 302 301 299 298 297 296 295 295 294 293 291 289 288 288 288 287 287 287 287 287 287 286 285 284 284 285 286 284 285 287 286 287 287 288
295 295 297 297 298 298 297 296 298 295 295 294 293 291 291 290 290 288 287 287 287 286 286 285 285 287 285 285 285 285 284 285 285 282 284 284 285 285 284 283 286 287 286
293 293 292 293 294 293 293 292 293 291 291 290 290 288 287 286 286 286 286 285 285 284 284 284 284 284 282 282 282 283 284 285 284 283 283 284 283 283 283 283 283 283 285
291 290 290 289 291 291 290 290 289 289 288 287 286 285 285 285 285 284 284 284 283 283 284 284 283 283 282 282 283 282 284 283 284 283 282 283 283 284 284 282 282 283 285
289 288 287 286 287 287 286 286 286 285 284 284 284 284 285 285 285 284 284 283 283 282 283 283 283 282 285 286 284 283 284 283 282 282 281 282 282 282 281 283 281 283 284
287 286 286 285 285 284 284 284 284 283 283 283 283 283 284 285 290 288 285 283 283 283 282 282 282 281 283 286 286 286 286 283 282 282 282 281 282 282 283 282 283 280 278
285 284 284 284 284 283 283 283 283 282 282 282 282 282 283 285 289 288 286 283 283 282 282 282 282 283 281 282 284 286 285 287 286 283 281 282 282 283 284 282 281 280 280
284 284 283 283 283 282 282 281 281 281 281 280 280 281 282 285 288 287 285 283 283 282 282 282 282 282 282 282 284 284 283 284 284 283 284 284 285 284 283 283 282 280 281
283 283 283 283 282 281 280 280 280 280 279 278 279 277 278 278 288 287 285 282 283 282 283 282 281 281 284 287 284 282 280 283 286 288 288 288 287 286 285 283 279 278 276
283 283 282 282 281 280 280 279 278 277 279 279 278 276 276 276 286 287 284 282 278 280 281 282 283 281 286 286 284 283 281 281 281 284 280 282 283 282 285 283 282 278 277
281 281 280 279 279 279 277 276 276 276 276 274 275 274 275 277 280 285 286 282 281 280 280 279 280 284 285 286 286 281 282 284 282 280 277 275 276 277 279 280 281 280 278
280 279 278 277 278 277 276 273 273 274 273 272 273 274 275 275 280 283 284 284 284 275 276 278 279 284 284 284 281 284 284 284 282 280 273 271 276 276 277 278 279 280 280
278 276 275 275 275 274 273 273 273 273 273 273 275 274 273 274 274 281 282 283 283 277 278 280 282 282 281 277 279 279 274 275 275 272 274 277 278 278 276 275 272 270 273
276 274 273 274 272 272 274 274 274 273 273 274 273 272 271 271 272 272 273 271 277 276 278 271 275 275 275 274 270 271 271 270 269 270 273 274 274 271 271 273 271 273 264
275 273 273 273 272 272 273 273 273 273 276 273 272 272 270 268 271 278 276 268 270 275 263 259 260 262 262 264 263 264 266 265 266 267 268 270 270 271 271 271 270 265 263
273 273 272 272 271 272 272 270 276 277 279 279 279 275 272 277 281 280 280 280 279 277 258 255 257 260 261 262 260 261 263 262 264 265 266 266 267 268 268 269 270 269 270
274 273 273 272 271 270 271 271 269 270 276 280 281 280 280 278 279 279 278 277 274 268 254 252 255 256 257 259 259 259 259 262 260 261 261 263 264 265 266 266 268 268 269
270 274 273 271 271 271 269 269 268 268 267 264 272 275 277 279 277 278 276 268 256 255 250 251 252 252 254 255 255 255 256 257 257 258 258 258 258 262 263 264 265 266 267
271 267 268 269 268 267 266 264 263 258 258 256 255 265 264 274 276 274 273 254 254 251 249 249 249 250 251 252 252 251 251 252 254 252 253 253 254 258 260 261 263 265 266
268 267 266 267 263 262 261 262 261 260 258 255 255 257 253 256 256 254 249 249 249 249 249 249 250 249 250 249 249 249 250 250 250 250 251 251 252 254 259 260 261 262 264
265 265 266 262 262 263 263 263 263 261 260 258 259 253 265 257 257 254 251 248 250 251 251 251 251 250 249 249 248 248 248 251 249 249 250 250 250 251 253 258 259 260 262
264 264 264 264 264 262 262 263 264 262 262 259 258 251 271 261 256 253 251 251 252 252 252 252 252 252 253 252 252 251 250 251 249 248 250 250 250 251 252 253 254 258 260
264 262 262 262 263 263 262 260 261 259 260 257 256 256 252 252 252 251 252 253 251 250 251 249 253 257 255 252 251 252 252 253 253 250 250 249 249 251 249 252 253 254 256
261 262 263 263 262 261 261 259 259 258 256 256 256 256 254 252 252 253 253 253 252 254 255 255 255 256 257 255 251 250 251 252 249 252 251 250 251 250 250 251 255 254 254
259 260 261 260 259 260 259 260 258 255 255 257 256 255 256 255 254 255 257 257 257 257 258 258 256 256 255 255 254 251 251 257 254 252 249 248 251 249 250 250 254 255 253
259 260 260 260 260 261 260 258 258 259 257 257 258 258 258 258 258 259 260 260 259 258 258 257 257 255 253 253 253 254 254 258 256 255 253 250 251 252 253 254 253 254 256

GFSGL_sfc_thetae_123.txt.gz
Theta_e
304 306 308 308 311 313 312 311 308 307 305 303 302 300 299 299 298 296 295 293 292 291 291 291 290 291 290 291 291 291 289 289 286 288 289 289 288 288 289 289 289 289 290
299 301 301 302 304 304 303 302 302 300 299 297 295 294 293 292 292 292 290 290 289 289 288 289 288 288 288 288 288 287 287 288 286 283 286 286 286 287 287 287 287 288 288
296 297 297 297 299 298 297 296 295 294 293 292 292 291 290 289 289 289 289 288 287 287 287 287 287 286 285 286 286 286 286 286 286 284 283 286 286 287 287 287 287 288 288
294 294 294 294 294 294 293 292 291 291 290 290 289 288 287 287 287 287 287 286 286 286 286 286 286 285 285 285 285 285 285 285 285 284 284 284 285 286 286 284 284 287 286
292 291 290 290 290 290 289 289 288 288 288 288 287 287 286 286 285 286 286 286 285 285 285 285 285 285 286 286 285 285 285 284 284 283 283 283 283 283 283 284 283 284 285
290 289 287 288 288 287 287 286 286 286 286 286 286 286 287 286 289 288 286 285 284 284 283 284 284 283 286 286 286 286 286 284 284 282 282 282 282 283 284 283 282 281 278
288 286 286 286 285 285 285 285 284 284 284 284 285 286 286 287 289 288 286 284 284 284 284 284 283 284 284 284 285 286 285 286 286 285 282 283 283 284 283 282 282 281 280
286 286 285 285 284 284 284 283 283 283 283 283 283 285 285 287 288 287 285 284 284 284 284 284 284 283 284 284 284 284 284 285 285 285 285 285 286 286 285 283 283 282 282
285 285 284 284 283 283 282 282 281 282 281 281 282 283 284 285 288 287 285 284 284 284 284 284 283 283 284 286 285 283 283 284 286 287 287 288 288 287 285 284 281 280 278
285 284 284 284 284 283 282 281 280 281 280 281 280 280 279 283 288 287 285 284 283 283 283 283 283 283 285 286 283 281 278 282 283 284 285 285 285 284 284 283 282 279 278
283 282 282 282 282 281 280 280 280 280 279 278 278 277 278 280 284 287 286 283 283 282 282 281 282 284 284 285 285 280 280 283 283 282 282 281 280 281 281 282 282 280 278
282 281 281 280 281 280 280 278 278 278 277 276 276 276 277 278 281 286 286 285 285 281 281 281 281 284 283 283 281 281 280 278 277 276 276 276 278 279 279 280 279 279 280
281 281 280 279 279 279 278 277 276 276 276 275 276 276 276 277 279 284 284 284 284 281 281 281 282 281 279 276 277 276 272 272 272 271 272 274 275 276 276 276 276 276 275
280 278 277 277 275 275 276 277 276 275 275 276 276 276 276 276 276 277 279 279 280 280 281 276 278 276 275 273 270 270 271 270 270 269 270 271 273 272 272 273 272 273 272
278 276 275 275 275 274 275 275 275 276 278 276 277 277 275 275 276 279 278 276 275 277 271 268 269 269 268 268 267 267 268 268 267 268 268 268 269 270 270 271 270 271 270
275 275 274 274 273 273 273 273 277 278 279 280 279 277 275 277 280 282 282 282 281 278 267 267 267 266 267 266 265 266 266 265 266 266 266 266 266 266 267 268 269 269 268
276 274 273 273 272 272 274 274 273 274 279 281 281 281 280 278 281 282 281 280 277 271 266 263 265 265 264 264 264 264 264 265 263 264 264 264 264 264 264 265 266 267 267
270 271 273 273 273 274 273 272 272 272 271 272 277 281 282 281 281 280 280 275 268 262 261 262 262 261 261 262 262 262 262 262 262 262 262 262 261 261 262 263 264 264 265
271 271 271 271 273 272 270 270 271 269 269 268 267 271 270 279 281 279 280 267 264 262 259 258 259 259 259 259 260 259 259 260 260 259 260 259 259 260 260 261 262 261 262
267 268 270 270 270 268 267 268 267 265 265 265 263 268 263 264 266 266 264 261 260 260 259 259 258 257 257 257 258 258 258 257 258 258 258 258 259 258 259 259 260 260 261
267 265 265 265 267 268 269 268 268 265 265 265 266 266 267 266 267 264 262 257 259 259 258 257 257 256 256 256 255 256 256 258 257 256 256 257 257 258 258 259 259 259 260
262 263 263 265 266 266 268 268 266 266 266 266 263 262 272 269 263 262 260 259 258 258 258 258 257 256 257 257 257 257 258 257 257 256 256 255 255 256 256 257 257 258 259
260 260 260 261 264 265 264 264 265 264 264 262 263 263 262 264 262 261 260 259 257 255 254 254 256 257 258 258 259 259 259 259 258 257 256 256 255 256 255 256 257 256 257
259 261 261 261 260 261 262 263 262 263 263 263 262 261 261 262 260 258 257 258 256 257 257 257 258 259 260 260 259 258 258 258 257 256 255 255 255 254 255 254 255 255 256
256 257 259 260 260 262 261 260 261 261 260 260 259 259 259 260 258 258 259 259 260 260 260 260 260 260 259 260 260 259 256 258 258 254 253 253 254 253 253 253 255 255 255
255 256 257 257 258 258 259 261 260 261 261 261 261 260 260 261 261 261 261 261 261 261 261 261 261 260 259 259 259 259 258 259 256 256 254 254 253 254 253 253 253 254 255